Wetterdaten: Mittwoch, 17.04.2019
Datum Zeit Temp. A. Feuchte A. Luftdruck Regen Wind Richtung Richtung Sonnenschein ET UV Solar Taupunkt Windchill Windböen
17.04.2019 00:00 5,7 °C 81 % 1018,6 hPa 0,0 mm 3,4 km/h (1 Bft) S 178 ° 0 min 0,000 mm 0,0 UV-I 0 W/m² 2,7 °C 5,7 °C 6,4 km/h (2 Bft)
17.04.2019 00:01 5,7 °C 81 % 1018,7 hPa 0,0 mm 3,0 km/h (1 Bft) S 178 ° 0 min 0,000 mm 0,0 UV-I 0 W/m² 2,7 °C 5,7 °C 3,2 km/h (1 Bft)
17.04.2019 00:02 5,7 °C 81 % 1018,7 hPa 0,0 mm 3,1 km/h (1 Bft) S 178 ° 0 min 0,000 mm 0,0 UV-I 0 W/m² 2,7 °C 5,7 °C 4,8 km/h (1 Bft)
17.04.2019 00:03 5,7 °C 81 % 1018,7 hPa 0,0 mm 2,0 km/h (1 Bft) S 178 ° 0 min 0,000 mm 0,0 UV-I 0 W/m² 2,7 °C 5,7 °C 3,2 km/h (1 Bft)
17.04.2019 00:04 5,7 °C 81 % 1018,8 hPa 0,0 mm 0,0 km/h (0 Bft) S 178 ° 0 min 0,000 mm 0,0 UV-I 0 W/m² 2,7 °C 5,7 °C 0,0 km/h (0 Bft)
17.04.2019 00:05 5,7 °C 81 % 1018,8 hPa 0,0 mm 0,1 km/h (0 Bft) S 178 ° 0 min 0,000 mm 0,0 UV-I 0 W/m² 2,7 °C 5,7 °C 1,6 km/h (1 Bft)
17.04.2019 00:06 5,7 °C 81 % 1018,8 hPa 0,0 mm 0,3 km/h (0 Bft) S 178 ° 0 min 0,000 mm 0,0 UV-I 0 W/m² 2,7 °C 5,7 °C 3,2 km/h (1 Bft)
17.04.2019 00:07 5,6 °C 81 % 1018,8 hPa 0,0 mm 1,5 km/h (1 Bft) S-SW 196 ° 0 min 0,000 mm 0,0 UV-I 0 W/m² 2,6 °C 5,6 °C 4,8 km/h (1 Bft)
17.04.2019 00:08 5,6 °C 82 % 1018,7 hPa 0,0 mm 2,6 km/h (1 Bft) S-SW 194 ° 0 min 0,000 mm 0,0 UV-I 0 W/m² 2,8 °C 5,6 °C 4,8 km/h (1 Bft)
17.04.2019 00:09 5,6 °C 82 % 1018,8 hPa 0,0 mm 2,9 km/h (1 Bft) S-SW 194 ° 0 min 0,000 mm 0,0 UV-I 0 W/m² 2,8 °C 5,6 °C 4,8 km/h (1 Bft)
17.04.2019 00:10 5,5 °C 82 % 1018,8 hPa 0,0 mm 3,2 km/h (1 Bft) S-SW 207 ° 0 min 0,000 mm 0,0 UV-I 0 W/m² 2,7 °C 5,5 °C 6,4 km/h (2 Bft)
17.04.2019 00:11 5,4 °C 82 % 1018,7 hPa 0,0 mm 3,5 km/h (1 Bft) S 190 ° 0 min 0,000 mm 0,0 UV-I 0 W/m² 2,6 °C 5,4 °C 6,4 km/h (2 Bft)
17.04.2019 00:12 5,3 °C 82 % 1018,7 hPa 0,0 mm 2,5 km/h (1 Bft) S 190 ° 0 min 0,000 mm 0,0 UV-I 0 W/m² 2,5 °C 5,3 °C 4,8 km/h (1 Bft)
17.04.2019 00:13 5,4 °C 82 % 1018,7 hPa 0,0 mm 2,7 km/h (1 Bft) S 190 ° 0 min 0,000 mm 0,0 UV-I 0 W/m² 2,6 °C 5,4 °C 4,8 km/h (1 Bft)
17.04.2019 00:14 5,4 °C 82 % 1018,7 hPa 0,0 mm 1,9 km/h (1 Bft) S 190 ° 0 min 0,000 mm 0,0 UV-I 0 W/m² 2,6 °C 5,4 °C 3,2 km/h (1 Bft)
17.04.2019 00:15 5,5 °C 82 % 1018,7 hPa 0,0 mm 1,5 km/h (1 Bft) S 189 ° 0 min 0,000 mm 0,0 UV-I 0 W/m² 2,7 °C 5,5 °C 3,2 km/h (1 Bft)
17.04.2019 00:16 5,5 °C 82 % 1018,7 hPa 0,0 mm 0,3 km/h (0 Bft) S 189 ° 0 min 0,000 mm 0,0 UV-I 0 W/m² 2,7 °C 5,5 °C 3,2 km/h (1 Bft)
17.04.2019 00:17 5,5 °C 82 % 1018,7 hPa 0,0 mm 1,1 km/h (1 Bft) S 189 ° 0 min 0,000 mm 0,0 UV-I 0 W/m² 2,7 °C 5,5 °C 3,2 km/h (1 Bft)
17.04.2019 00:18 5,5 °C 82 % 1018,8 hPa 0,0 mm 1,6 km/h (1 Bft) S 190 ° 0 min 0,000 mm 0,0 UV-I 0 W/m² 2,7 °C 5,5 °C 4,8 km/h (1 Bft)
17.04.2019 00:19 5,5 °C 82 % 1018,7 hPa 0,0 mm 0,1 km/h (0 Bft) S 189 ° 0 min 0,000 mm 0,0 UV-I 0 W/m² 2,7 °C 5,5 °C 1,6 km/h (1 Bft)
17.04.2019 00:20 5,5 °C 82 % 1018,7 hPa 0,0 mm 0,0 km/h (0 Bft) S 189 ° 0 min 0,000 mm 0,0 UV-I 0 W/m² 2,7 °C 5,5 °C 0,0 km/h (0 Bft)
17.04.2019 00:21 5,5 °C 82 % 1018,7 hPa 0,0 mm 1,2 km/h (1 Bft) S 189 ° 0 min 0,000 mm 0,0 UV-I 0 W/m² 2,7 °C 5,5 °C 4,8 km/h (1 Bft)
17.04.2019 00:22 5,5 °C 82 % 1018,7 hPa 0,0 mm 2,6 km/h (1 Bft) S 190 ° 0 min 0,000 mm 0,0 UV-I 0 W/m² 2,7 °C 5,5 °C 4,8 km/h (1 Bft)
17.04.2019 00:23 5,5 °C 82 % 1018,7 hPa 0,0 mm 0,0 km/h (0 Bft) S 190 ° 0 min 0,000 mm 0,0 UV-I 0 W/m² 2,7 °C 5,5 °C 0,0 km/h (0 Bft)
17.04.2019 00:24 5,5 °C 82 % 1018,7 hPa 0,0 mm 0,9 km/h (0 Bft) S 189 ° 0 min 0,000 mm 0,0 UV-I 0 W/m² 2,7 °C 5,5 °C 3,2 km/h (1 Bft)
17.04.2019 00:25 5,5 °C 82 % 1018,7 hPa 0,0 mm 3,6 km/h (1 Bft) S-SW 209 ° 0 min 0,000 mm 0,0 UV-I 0 W/m² 2,7 °C 5,5 °C 6,4 km/h (2 Bft)
17.04.2019 00:26 5,4 °C 82 % 1018,7 hPa 0,0 mm 4,8 km/h (1 Bft) S 176 ° 0 min 0,000 mm 0,0 UV-I 0 W/m² 2,6 °C 4,6 °C 6,4 km/h (2 Bft)
17.04.2019 00:27 5,3 °C 82 % 1018,7 hPa 0,0 mm 4,3 km/h (1 Bft) S 176 ° 0 min 0,000 mm 0,0 UV-I 0 W/m² 2,5 °C 5,3 °C 6,4 km/h (2 Bft)
17.04.2019 00:28 5,3 °C 82 % 1018,7 hPa 0,0 mm 5,0 km/h (1 Bft) S 176 ° 0 min 0,000 mm 0,0 UV-I 0 W/m² 2,5 °C 4,4 °C 6,4 km/h (2 Bft)
17.04.2019 00:29 5,2 °C 82 % 1018,7 hPa 0,0 mm 3,2 km/h (1 Bft) S 176 ° 0 min 0,000 mm 0,0 UV-I 0 W/m² 2,4 °C 5,2 °C 4,8 km/h (1 Bft)
17.04.2019 00:30 5,2 °C 82 % 1018,7 hPa 0,0 mm 2,4 km/h (1 Bft) S 176 ° 0 min 0,000 mm 0,0 UV-I 0 W/m² 2,4 °C 5,2 °C 3,2 km/h (1 Bft)
17.04.2019 00:31 5,2 °C 83 % 1018,7 hPa 0,0 mm 3,2 km/h (1 Bft) S 176 ° 0 min 0,000 mm 0,0 UV-I 0 W/m² 2,6 °C 5,2 °C 4,8 km/h (1 Bft)
17.04.2019 00:32 5,2 °C 83 % 1018,7 hPa 0,0 mm 4,2 km/h (1 Bft) S 176 ° 0 min 0,000 mm 0,0 UV-I 0 W/m² 2,6 °C 5,2 °C 6,4 km/h (2 Bft)
17.04.2019 00:33 5,2 °C 83 % 1018,7 hPa 0,0 mm 5,6 km/h (1 Bft) S 176 ° 0 min 0,000 mm 0,0 UV-I 0 W/m² 2,6 °C 4,1 °C 8,0 km/h (2 Bft)
17.04.2019 00:34 5,1 °C 83 % 1018,7 hPa 0,0 mm 6,6 km/h (2 Bft) S 176 ° 0 min 0,000 mm 0,0 UV-I 0 W/m² 2,5 °C 3,6 °C 8,0 km/h (2 Bft)
17.04.2019 00:35 5,1 °C 83 % 1018,7 hPa 0,0 mm 7,5 km/h (2 Bft) S-SW 197 ° 0 min 0,000 mm 0,0 UV-I 0 W/m² 2,5 °C 3,4 °C 9,7 km/h (2 Bft)
17.04.2019 00:36 5,0 °C 83 % 1018,7 hPa 0,0 mm 10,7 km/h (2 Bft) S 180 ° 0 min 0,000 mm 0,0 UV-I 0 W/m² 2,4 °C 2,5 °C 12,9 km/h (3 Bft)
17.04.2019 00:37 4,9 °C 83 % 1018,8 hPa 0,0 mm 7,5 km/h (2 Bft) S 176 ° 0 min 0,000 mm 0,0 UV-I 0 W/m² 2,3 °C 3,2 °C 9,7 km/h (2 Bft)
17.04.2019 00:38 4,9 °C 83 % 1018,8 hPa 0,0 mm 7,8 km/h (2 Bft) S 176 ° 0 min 0,000 mm 0,0 UV-I 0 W/m² 2,3 °C 3,1 °C 9,7 km/h (2 Bft)
17.04.2019 00:39 4,9 °C 83 % 1018,8 hPa 0,0 mm 6,3 km/h (2 Bft) S 174 ° 0 min 0,000 mm 0,0 UV-I 0 W/m² 2,3 °C 3,5 °C 11,3 km/h (2 Bft)
17.04.2019 00:40 4,9 °C 83 % 1018,8 hPa 0,0 mm 4,2 km/h (1 Bft) S 175 ° 0 min 0,000 mm 0,0 UV-I 0 W/m² 2,3 °C 4,9 °C 6,4 km/h (2 Bft)
17.04.2019 00:41 5,0 °C 83 % 1018,9 hPa 0,0 mm 2,9 km/h (1 Bft) S 175 ° 0 min 0,000 mm 0,0 UV-I 0 W/m² 2,4 °C 5,0 °C 4,8 km/h (1 Bft)
17.04.2019 00:42 5,1 °C 84 % 1018,9 hPa 0,0 mm 1,9 km/h (1 Bft) S 175 ° 0 min 0,000 mm 0,0 UV-I 0 W/m² 2,6 °C 5,1 °C 3,2 km/h (1 Bft)
17.04.2019 00:43 5,1 °C 84 % 1018,9 hPa 0,0 mm 2,9 km/h (1 Bft) S 175 ° 0 min 0,000 mm 0,0 UV-I 0 W/m² 2,6 °C 5,1 °C 4,8 km/h (1 Bft)
17.04.2019 00:44 5,1 °C 83 % 1018,9 hPa 0,0 mm 4,1 km/h (1 Bft) S 173 ° 0 min 0,000 mm 0,0 UV-I 0 W/m² 2,5 °C 5,1 °C 6,4 km/h (2 Bft)
17.04.2019 00:45 5,2 °C 83 % 1019,0 hPa 0,0 mm 4,1 km/h (1 Bft) S 174 ° 0 min 0,000 mm 0,0 UV-I 0 W/m² 2,6 °C 5,2 °C 8,0 km/h (2 Bft)
17.04.2019 00:46 5,2 °C 83 % 1018,9 hPa 0,0 mm 2,0 km/h (1 Bft) S 174 ° 0 min 0,000 mm 0,0 UV-I 0 W/m² 2,6 °C 5,2 °C 4,8 km/h (1 Bft)
17.04.2019 00:47 5,2 °C 83 % 1018,9 hPa 0,0 mm 1,0 km/h (0 Bft) S 174 ° 0 min 0,000 mm 0,0 UV-I 0 W/m² 2,6 °C 5,2 °C 3,2 km/h (1 Bft)
17.04.2019 00:48 5,2 °C 83 % 1018,9 hPa 0,0 mm 1,1 km/h (1 Bft) S 174 ° 0 min 0,000 mm 0,0 UV-I 0 W/m² 2,6 °C 5,2 °C 4,8 km/h (1 Bft)
17.04.2019 00:49 5,2 °C 83 % 1018,9 hPa 0,0 mm 0,5 km/h (0 Bft) S 174 ° 0 min 0,000 mm 0,0 UV-I 0 W/m² 2,6 °C 5,2 °C 3,2 km/h (1 Bft)
17.04.2019 00:50 5,3 °C 83 % 1019,0 hPa 0,0 mm 0,1 km/h (0 Bft) S 174 ° 0 min 0,000 mm 0,0 UV-I 0 W/m² 2,7 °C 5,3 °C 1,6 km/h (1 Bft)
17.04.2019 00:51 5,2 °C 83 % 1019,0 hPa 0,0 mm 0,0 km/h (0 Bft) S 174 ° 0 min 0,000 mm 0,0 UV-I 0 W/m² 2,6 °C 5,2 °C 0,0 km/h (0 Bft)
17.04.2019 00:52 5,2 °C 83 % 1019,0 hPa 0,0 mm 0,0 km/h (0 Bft) S 174 ° 0 min 0,000 mm 0,0 UV-I 0 W/m² 2,6 °C 5,2 °C 0,0 km/h (0 Bft)
17.04.2019 00:53 5,2 °C 83 % 1019,0 hPa 0,0 mm 0,0 km/h (0 Bft) S 174 ° 0 min 0,000 mm 0,0 UV-I 0 W/m² 2,6 °C 5,2 °C 0,0 km/h (0 Bft)
17.04.2019 00:54 5,2 °C 83 % 1019,0 hPa 0,0 mm 0,0 km/h (0 Bft) S 174 ° 0 min 0,000 mm 0,0 UV-I 0 W/m² 2,6 °C 5,2 °C 0,0 km/h (0 Bft)
17.04.2019 00:55 5,2 °C 83 % 1019,0 hPa 0,0 mm 0,0 km/h (0 Bft) S 174 ° 0 min 0,000 mm 0,0 UV-I 0 W/m² 2,6 °C 5,2 °C 0,0 km/h (0 Bft)
17.04.2019 00:56 5,2 °C 83 % 1019,0 hPa 0,0 mm 0,0 km/h (0 Bft) S 174 ° 0 min 0,000 mm 0,0 UV-I 0 W/m² 2,6 °C 5,2 °C 0,0 km/h (0 Bft)
17.04.2019 00:57 5,2 °C 83 % 1019,0 hPa 0,0 mm 0,0 km/h (0 Bft) S 174 ° 0 min 0,000 mm 0,0 UV-I 0 W/m² 2,6 °C 5,2 °C 0,0 km/h (0 Bft)
17.04.2019 00:58 5,1 °C 83 % 1019,0 hPa 0,0 mm 0,0 km/h (0 Bft) S 174 ° 0 min 0,000 mm 0,0 UV-I 0 W/m² 2,5 °C 5,1 °C 0,0 km/h (0 Bft)
17.04.2019 00:59 5,1 °C 83 % 1019,1 hPa 0,0 mm 0,0 km/h (0 Bft) S 174 ° 0 min 0,000 mm 0,0 UV-I 0 W/m² 2,5 °C 5,1 °C 0,0 km/h (0 Bft)
17.04.2019 01:00 5,1 °C 83 % 1019,1 hPa 0,0 mm 0,0 km/h (0 Bft) S 174 ° 0 min 0,025 mm 0,0 UV-I 0 W/m² 2,5 °C 5,1 °C 0,0 km/h (0 Bft)
17.04.2019 01:01 5,0 °C 83 % 1019,1 hPa 0,0 mm 0,0 km/h (0 Bft) S 174 ° 0 min 0,000 mm 0,0 UV-I 0 W/m² 2,4 °C 5,0 °C 0,0 km/h (0 Bft)
17.04.2019 01:02 4,9 °C 84 % 1019,1 hPa 0,0 mm 0,0 km/h (0 Bft) S 174 ° 0 min 0,000 mm 0,0 UV-I 0 W/m² 2,4 °C 4,9 °C 0,0 km/h (0 Bft)
17.04.2019 01:03 4,9 °C 84 % 1019,1 hPa 0,0 mm 0,0 km/h (0 Bft) S 174 ° 0 min 0,000 mm 0,0 UV-I 0 W/m² 2,4 °C 4,9 °C 0,0 km/h (0 Bft)
17.04.2019 01:04 4,8 °C 83 % 1019,1 hPa 0,0 mm 0,0 km/h (0 Bft) S 174 ° 0 min 0,000 mm 0,0 UV-I 0 W/m² 2,2 °C 4,8 °C 0,0 km/h (0 Bft)
17.04.2019 01:05 4,8 °C 84 % 1019,1 hPa 0,0 mm 0,0 km/h (0 Bft) S 174 ° 0 min 0,000 mm 0,0 UV-I 0 W/m² 2,3 °C 4,8 °C 0,0 km/h (0 Bft)
17.04.2019 01:06 4,8 °C 84 % 1019,1 hPa 0,0 mm 0,0 km/h (0 Bft) S 174 ° 0 min 0,000 mm 0,0 UV-I 0 W/m² 2,3 °C 4,8 °C 0,0 km/h (0 Bft)
17.04.2019 01:07 4,8 °C 84 % 1019,1 hPa 0,0 mm 0,0 km/h (0 Bft) S 174 ° 0 min 0,000 mm 0,0 UV-I 0 W/m² 2,3 °C 4,8 °C 0,0 km/h (0 Bft)
17.04.2019 01:08 4,8 °C 84 % 1019,1 hPa 0,0 mm 0,0 km/h (0 Bft) S 174 ° 0 min 0,000 mm 0,0 UV-I 0 W/m² 2,3 °C 4,8 °C 0,0 km/h (0 Bft)
17.04.2019 01:09 4,8 °C 84 % 1019,1 hPa 0,0 mm 0,0 km/h (0 Bft) S 174 ° 0 min 0,000 mm 0,0 UV-I 0 W/m² 2,3 °C 4,8 °C 0,0 km/h (0 Bft)
17.04.2019 01:10 4,9 °C 85 % 1019,2 hPa 0,0 mm 0,0 km/h (0 Bft) S 174 ° 0 min 0,000 mm 0,0 UV-I 0 W/m² 2,6 °C 4,9 °C 0,0 km/h (0 Bft)
17.04.2019 01:11 4,9 °C 84 % 1019,2 hPa 0,0 mm 0,0 km/h (0 Bft) S 174 ° 0 min 0,000 mm 0,0 UV-I 0 W/m² 2,4 °C 4,9 °C 0,0 km/h (0 Bft)
17.04.2019 01:12 5,0 °C 84 % 1019,2 hPa 0,0 mm 0,0 km/h (0 Bft) S 174 ° 0 min 0,000 mm 0,0 UV-I 0 W/m² 2,5 °C 5,0 °C 0,0 km/h (0 Bft)
17.04.2019 01:13 5,1 °C 84 % 1019,1 hPa 0,0 mm 0,5 km/h (0 Bft) S 174 ° 0 min 0,000 mm 0,0 UV-I 0 W/m² 2,6 °C 5,1 °C 1,6 km/h (1 Bft)
17.04.2019 01:14 5,1 °C 84 % 1019,1 hPa 0,0 mm 0,1 km/h (0 Bft) S 174 ° 0 min 0,000 mm 0,0 UV-I 0 W/m² 2,6 °C 5,1 °C 1,6 km/h (1 Bft)
17.04.2019 01:15 5,2 °C 84 % 1019,1 hPa 0,0 mm 2,6 km/h (1 Bft) S 174 ° 0 min 0,000 mm 0,0 UV-I 0 W/m² 2,7 °C 5,2 °C 3,2 km/h (1 Bft)
17.04.2019 01:16 5,2 °C 84 % 1019,1 hPa 0,0 mm 2,2 km/h (1 Bft) S 174 ° 0 min 0,000 mm 0,0 UV-I 0 W/m² 2,7 °C 5,2 °C 3,2 km/h (1 Bft)
17.04.2019 01:17 5,3 °C 84 % 1019,1 hPa 0,0 mm 3,7 km/h (1 Bft) S 175 ° 0 min 0,000 mm 0,0 UV-I 0 W/m² 2,8 °C 5,3 °C 4,8 km/h (1 Bft)
17.04.2019 01:18 5,4 °C 84 % 1019,1 hPa 0,0 mm 2,5 km/h (1 Bft) S 176 ° 0 min 0,000 mm 0,0 UV-I 0 W/m² 2,9 °C 5,4 °C 6,4 km/h (2 Bft)
17.04.2019 01:19 5,4 °C 83 % 1019,1 hPa 0,0 mm 1,9 km/h (1 Bft) S 176 ° 0 min 0,000 mm 0,0 UV-I 0 W/m² 2,7 °C 5,4 °C 4,8 km/h (1 Bft)
17.04.2019 01:20 5,5 °C 83 % 1019,1 hPa 0,0 mm 3,4 km/h (1 Bft) S 184 ° 0 min 0,000 mm 0,0 UV-I 0 W/m² 2,8 °C 5,5 °C 8,0 km/h (2 Bft)
17.04.2019 01:21 5,5 °C 83 % 1019,1 hPa 0,0 mm 4,7 km/h (1 Bft) S 190 ° 0 min 0,000 mm 0,0 UV-I 0 W/m² 2,8 °C 4,8 °C 6,4 km/h (2 Bft)
17.04.2019 01:22 5,6 °C 83 % 1019,1 hPa 0,0 mm 3,1 km/h (1 Bft) S 190 ° 0 min 0,000 mm 0,0 UV-I 0 W/m² 2,9 °C 5,6 °C 4,8 km/h (1 Bft)
17.04.2019 01:23 5,7 °C 83 % 1019,1 hPa 0,0 mm 3,7 km/h (1 Bft) S-SW 206 ° 0 min 0,000 mm 0,0 UV-I 0 W/m² 3,0 °C 5,7 °C 4,8 km/h (1 Bft)
17.04.2019 01:24 5,7 °C 82 % 1019,1 hPa 0,0 mm 3,8 km/h (1 Bft) S-SW 213 ° 0 min 0,000 mm 0,0 UV-I 0 W/m² 2,9 °C 5,7 °C 6,4 km/h (2 Bft)
17.04.2019 01:25 5,7 °C 82 % 1019,1 hPa 0,0 mm 3,4 km/h (1 Bft) S-SW 200 ° 0 min 0,000 mm 0,0 UV-I 0 W/m² 2,9 °C 5,7 °C 9,7 km/h (2 Bft)
17.04.2019 01:26 5,8 °C 82 % 1019,1 hPa 0,0 mm 8,0 km/h (2 Bft) S 171 ° 0 min 0,000 mm 0,0 UV-I 0 W/m² 3,0 °C 4,1 °C 12,9 km/h (3 Bft)
17.04.2019 01:27 5,8 °C 82 % 1019,1 hPa 0,0 mm 8,7 km/h (2 Bft) S 180 ° 0 min 0,000 mm 0,0 UV-I 0 W/m² 3,0 °C 3,9 °C 12,9 km/h (3 Bft)
17.04.2019 01:28 5,9 °C 81 % 1019,1 hPa 0,0 mm 11,0 km/h (2 Bft) S 184 ° 0 min 0,000 mm 0,0 UV-I 0 W/m² 2,9 °C 3,5 °C 14,5 km/h (3 Bft)
17.04.2019 01:29 5,9 °C 81 % 1019,1 hPa 0,0 mm 5,2 km/h (1 Bft) S 182 ° 0 min 0,000 mm 0,0 UV-I 0 W/m² 2,9 °C 5,0 °C 9,7 km/h (2 Bft)
17.04.2019 01:30 6,1 °C 80 % 1019,1 hPa 0,0 mm 4,3 km/h (1 Bft) S 188 ° 0 min 0,000 mm 0,0 UV-I 0 W/m² 2,9 °C 6,1 °C 8,0 km/h (2 Bft)
17.04.2019 01:31 6,1 °C 80 % 1019,2 hPa 0,0 mm 9,7 km/h (2 Bft) S-SW 196 ° 0 min 0,000 mm 0,0 UV-I 0 W/m² 2,9 °C 4,0 °C 12,9 km/h (3 Bft)
17.04.2019 01:32 6,1 °C 80 % 1019,1 hPa 0,0 mm 8,9 km/h (2 Bft) S-SW 205 ° 0 min 0,000 mm 0,0 UV-I 0 W/m² 2,9 °C 4,2 °C 14,5 km/h (3 Bft)
17.04.2019 01:33 6,1 °C 80 % 1019,2 hPa 0,0 mm 10,7 km/h (2 Bft) S 173 ° 0 min 0,000 mm 0,0 UV-I 0 W/m² 2,9 °C 3,8 °C 14,5 km/h (3 Bft)
17.04.2019 01:34 6,3 °C 79 % 1019,2 hPa 0,0 mm 7,5 km/h (2 Bft) S-SW 210 ° 0 min 0,000 mm 0,0 UV-I 0 W/m² 2,9 °C 4,8 °C 12,9 km/h (3 Bft)
17.04.2019 01:35 6,4 °C 79 % 1019,2 hPa 0,0 mm 7,2 km/h (2 Bft) SW 214 ° 0 min 0,000 mm 0,0 UV-I 0 W/m² 3,0 °C 5,0 °C 12,9 km/h (3 Bft)
17.04.2019 01:36 6,4 °C 78 % 1019,2 hPa 0,0 mm 7,3 km/h (2 Bft) S-SW 205 ° 0 min 0,000 mm 0,0 UV-I 0 W/m² 2,8 °C 5,0 °C 11,3 km/h (2 Bft)
17.04.2019 01:37 6,4 °C 78 % 1019,2 hPa 0,0 mm 8,0 km/h (2 Bft) SW 221 ° 0 min 0,000 mm 0,0 UV-I 0 W/m² 2,8 °C 4,8 °C 12,9 km/h (3 Bft)
17.04.2019 01:38 6,4 °C 78 % 1019,2 hPa 0,0 mm 8,2 km/h (2 Bft) S-SW 193 ° 0 min 0,000 mm 0,0 UV-I 0 W/m² 2,8 °C 4,7 °C 14,5 km/h (3 Bft)
17.04.2019 01:39 6,4 °C 78 % 1019,2 hPa 0,0 mm 9,2 km/h (2 Bft) S 178 ° 0 min 0,000 mm 0,0 UV-I 0 W/m² 2,8 °C 4,5 °C 12,9 km/h (3 Bft)
17.04.2019 01:40 6,4 °C 78 % 1019,2 hPa 0,0 mm 11,5 km/h (2 Bft) S-SW 195 ° 0 min 0,000 mm 0,0 UV-I 0 W/m² 2,8 °C 4,0 °C 14,5 km/h (3 Bft)
17.04.2019 01:41 6,4 °C 78 % 1019,2 hPa 0,0 mm 8,6 km/h (2 Bft) S-SW 197 ° 0 min 0,000 mm 0,0 UV-I 0 W/m² 2,8 °C 4,6 °C 14,5 km/h (3 Bft)
17.04.2019 01:42 6,4 °C 78 % 1019,3 hPa 0,0 mm 13,6 km/h (3 Bft) S-SW 199 ° 0 min 0,000 mm 0,0 UV-I 0 W/m² 2,8 °C 3,7 °C 17,7 km/h (3 Bft)
17.04.2019 01:43 6,5 °C 78 % 1019,3 hPa 0,0 mm 12,3 km/h (3 Bft) S-SW 205 ° 0 min 0,000 mm 0,0 UV-I 0 W/m² 2,9 °C 4,0 °C 16,1 km/h (3 Bft)
17.04.2019 01:44 6,5 °C 78 % 1019,3 hPa 0,0 mm 10,9 km/h (2 Bft) SW 225 ° 0 min 0,000 mm 0,0 UV-I 0 W/m² 2,9 °C 4,3 °C 14,5 km/h (3 Bft)
17.04.2019 01:45 6,6 °C 77 % 1019,3 hPa 0,0 mm 10,4 km/h (2 Bft) S-SW 213 ° 0 min 0,000 mm 0,0 UV-I 0 W/m² 2,9 °C 4,5 °C 14,5 km/h (3 Bft)
17.04.2019 01:46 6,6 °C 77 % 1019,3 hPa 0,0 mm 12,3 km/h (3 Bft) S-SW 213 ° 0 min 0,000 mm 0,0 UV-I 0 W/m² 2,9 °C 4,1 °C 14,5 km/h (3 Bft)
17.04.2019 01:47 6,5 °C 77 % 1019,3 hPa 0,0 mm 10,1 km/h (2 Bft) SW 215 ° 0 min 0,000 mm 0,0 UV-I 0 W/m² 2,8 °C 4,4 °C 12,9 km/h (3 Bft)
17.04.2019 01:48 6,5 °C 77 % 1019,3 hPa 0,0 mm 11,9 km/h (2 Bft) S-SW 207 ° 0 min 0,000 mm 0,0 UV-I 0 W/m² 2,8 °C 4,1 °C 16,1 km/h (3 Bft)
17.04.2019 01:49 6,5 °C 77 % 1019,3 hPa 0,0 mm 9,7 km/h (2 Bft) S 188 ° 0 min 0,000 mm 0,0 UV-I 0 W/m² 2,8 °C 4,5 °C 16,1 km/h (3 Bft)
17.04.2019 01:50 6,5 °C 78 % 1019,3 hPa 0,0 mm 13,4 km/h (3 Bft) S-SW 199 ° 0 min 0,000 mm 0,0 UV-I 0 W/m² 2,9 °C 3,8 °C 16,1 km/h (3 Bft)
17.04.2019 01:51 6,5 °C 78 % 1019,2 hPa 0,0 mm 9,7 km/h (2 Bft) S-SW 196 ° 0 min 0,000 mm 0,0 UV-I 0 W/m² 2,9 °C 4,5 °C 14,5 km/h (3 Bft)
17.04.2019 01:52 6,6 °C 78 % 1019,2 hPa 0,0 mm 8,9 km/h (2 Bft) S 180 ° 0 min 0,000 mm 0,0 UV-I 0 W/m² 3,0 °C 4,8 °C 11,3 km/h (2 Bft)
17.04.2019 01:53 6,6 °C 78 % 1019,2 hPa 0,0 mm 10,7 km/h (2 Bft) S-SW 206 ° 0 min 0,000 mm 0,0 UV-I 0 W/m² 3,0 °C 4,4 °C 16,1 km/h (3 Bft)
17.04.2019 01:54 6,6 °C 78 % 1019,2 hPa 0,0 mm 9,0 km/h (2 Bft) S 185 ° 0 min 0,000 mm 0,0 UV-I 0 W/m² 3,0 °C 4,8 °C 12,9 km/h (3 Bft)
17.04.2019 01:55 6,6 °C 78 % 1019,2 hPa 0,0 mm 8,1 km/h (2 Bft) SW 222 ° 0 min 0,000 mm 0,0 UV-I 0 W/m² 3,0 °C 5,0 °C 11,3 km/h (2 Bft)
17.04.2019 01:56 6,6 °C 78 % 1019,2 hPa 0,0 mm 6,8 km/h (2 Bft) S 180 ° 0 min 0,000 mm 0,0 UV-I 0 W/m² 3,0 °C 5,3 °C 11,3 km/h (2 Bft)
17.04.2019 01:57 6,6 °C 78 % 1019,2 hPa 0,0 mm 8,6 km/h (2 Bft) S-SW 211 ° 0 min 0,000 mm 0,0 UV-I 0 W/m² 3,0 °C 4,9 °C 11,3 km/h (2 Bft)
17.04.2019 01:58 6,6 °C 78 % 1019,2 hPa 0,0 mm 7,0 km/h (2 Bft) S 190 ° 0 min 0,000 mm 0,0 UV-I 0 W/m² 3,0 °C 5,3 °C 11,3 km/h (2 Bft)
17.04.2019 01:59 6,6 °C 78 % 1019,2 hPa 0,0 mm 8,0 km/h (2 Bft) S 180 ° 0 min 0,000 mm 0,0 UV-I 0 W/m² 3,0 °C 5,0 °C 9,7 km/h (2 Bft)
17.04.2019 02:00 6,6 °C 78 % 1019,2 hPa 0,0 mm 9,9 km/h (2 Bft) S-SW 202 ° 0 min 0,026 mm 0,0 UV-I 0 W/m² 3,0 °C 4,6 °C 14,5 km/h (3 Bft)
17.04.2019 02:01 6,6 °C 78 % 1019,2 hPa 0,0 mm 7,8 km/h (2 Bft) S-SW 201 ° 0 min 0,000 mm 0,0 UV-I 0 W/m² 3,0 °C 5,1 °C 12,9 km/h (3 Bft)
17.04.2019 02:02 6,6 °C 78 % 1019,2 hPa 0,0 mm 6,5 km/h (2 Bft) S 191 ° 0 min 0,000 mm 0,0 UV-I 0 W/m² 3,0 °C 5,4 °C 9,7 km/h (2 Bft)
17.04.2019 02:03 6,6 °C 78 % 1019,2 hPa 0,0 mm 10,8 km/h (2 Bft) S-SW 201 ° 0 min 0,000 mm 0,0 UV-I 0 W/m² 3,0 °C 4,4 °C 14,5 km/h (3 Bft)
17.04.2019 02:04 6,6 °C 78 % 1019,2 hPa 0,0 mm 6,3 km/h (2 Bft) S-SW 200 ° 0 min 0,000 mm 0,0 UV-I 0 W/m² 3,0 °C 5,5 °C 9,7 km/h (2 Bft)
17.04.2019 02:05 6,6 °C 78 % 1019,2 hPa 0,0 mm 8,2 km/h (2 Bft) S-SW 207 ° 0 min 0,000 mm 0,0 UV-I 0 W/m² 3,0 °C 5,0 °C 9,7 km/h (2 Bft)
17.04.2019 02:06 6,6 °C 78 % 1019,2 hPa 0,0 mm 9,1 km/h (2 Bft) S-SW 206 ° 0 min 0,000 mm 0,0 UV-I 0 W/m² 3,0 °C 4,8 °C 14,5 km/h (3 Bft)
17.04.2019 02:07 6,6 °C 79 % 1019,2 hPa 0,0 mm 5,8 km/h (2 Bft) S-SW 198 ° 0 min 0,000 mm 0,0 UV-I 0 W/m² 3,2 °C 5,6 °C 8,0 km/h (2 Bft)
17.04.2019 02:08 6,6 °C 79 % 1019,2 hPa 0,0 mm 7,7 km/h (2 Bft) S-SW 197 ° 0 min 0,000 mm 0,0 UV-I 0 W/m² 3,2 °C 5,1 °C 11,3 km/h (2 Bft)
17.04.2019 02:09 6,7 °C 79 % 1019,2 hPa 0,0 mm 7,6 km/h (2 Bft) S 189 ° 0 min 0,000 mm 0,0 UV-I 0 W/m² 3,3 °C 5,2 °C 12,9 km/h (3 Bft)
17.04.2019 02:10 6,7 °C 79 % 1019,2 hPa 0,0 mm 8,0 km/h (2 Bft) S-SO 163 ° 0 min 0,000 mm 0,0 UV-I 0 W/m² 3,3 °C 5,1 °C 9,7 km/h (2 Bft)
17.04.2019 02:11 6,6 °C 78 % 1019,2 hPa 0,0 mm 4,8 km/h (1 Bft) S-SW 213 ° 0 min 0,000 mm 0,0 UV-I 0 W/m² 3,0 °C 6,0 °C 9,7 km/h (2 Bft)
17.04.2019 02:12 6,5 °C 79 % 1019,2 hPa 0,0 mm 5,0 km/h (1 Bft) S 173 ° 0 min 0,000 mm 0,0 UV-I 0 W/m² 3,1 °C 5,8 °C 8,0 km/h (2 Bft)
17.04.2019 02:13 6,4 °C 79 % 1019,2 hPa 0,0 mm 6,8 km/h (2 Bft) S 179 ° 0 min 0,000 mm 0,0 UV-I 0 W/m² 3,0 °C 5,1 °C 9,7 km/h (2 Bft)
17.04.2019 02:14 6,3 °C 79 % 1019,2 hPa 0,0 mm 5,1 km/h (1 Bft) S 188 ° 0 min 0,000 mm 0,0 UV-I 0 W/m² 2,9 °C 5,5 °C 8,0 km/h (2 Bft)
17.04.2019 02:15 6,3 °C 79 % 1019,2 hPa 0,0 mm 5,3 km/h (1 Bft) S 169 ° 0 min 0,000 mm 0,0 UV-I 0 W/m² 2,9 °C 5,5 °C 9,7 km/h (2 Bft)
17.04.2019 02:16 6,2 °C 80 % 1019,2 hPa 0,0 mm 5,4 km/h (1 Bft) S-SW 207 ° 0 min 0,000 mm 0,0 UV-I 0 W/m² 3,0 °C 5,3 °C 8,0 km/h (2 Bft)
17.04.2019 02:17 6,2 °C 80 % 1019,3 hPa 0,0 mm 6,1 km/h (2 Bft) S-SW 203 ° 0 min 0,000 mm 0,0 UV-I 0 W/m² 3,0 °C 5,1 °C 8,0 km/h (2 Bft)
17.04.2019 02:18 6,1 °C 80 % 1019,3 hPa 0,0 mm 3,6 km/h (1 Bft) S-SW 209 ° 0 min 0,000 mm 0,0 UV-I 0 W/m² 2,9 °C 6,1 °C 6,4 km/h (2 Bft)
17.04.2019 02:19 6,1 °C 80 % 1019,3 hPa 0,0 mm 0,2 km/h (0 Bft) S-SW 209 ° 0 min 0,000 mm 0,0 UV-I 0 W/m² 2,9 °C 6,1 °C 1,6 km/h (1 Bft)
17.04.2019 02:20 6,1 °C 80 % 1019,2 hPa 0,0 mm 2,9 km/h (1 Bft) SW 216 ° 0 min 0,000 mm 0,0 UV-I 0 W/m² 2,9 °C 6,1 °C 6,4 km/h (2 Bft)
17.04.2019 02:21 6,0 °C 80 % 1019,3 hPa 0,0 mm 3,5 km/h (1 Bft) S 190 ° 0 min 0,000 mm 0,0 UV-I 0 W/m² 2,8 °C 6,0 °C 8,0 km/h (2 Bft)
17.04.2019 02:22 6,0 °C 81 % 1019,3 hPa 0,0 mm 5,8 km/h (2 Bft) S 169 ° 0 min 0,000 mm 0,0 UV-I 0 W/m² 3,0 °C 4,9 °C 11,3 km/h (2 Bft)
17.04.2019 02:23 6,0 °C 81 % 1019,3 hPa 0,0 mm 5,8 km/h (2 Bft) SW 223 ° 0 min 0,000 mm 0,0 UV-I 0 W/m² 3,0 °C 4,9 °C 8,0 km/h (2 Bft)
17.04.2019 02:24 6,1 °C 81 % 1019,3 hPa 0,0 mm 2,8 km/h (1 Bft) S 175 ° 0 min 0,000 mm 0,0 UV-I 0 W/m² 3,1 °C 6,1 °C 8,0 km/h (2 Bft)
17.04.2019 02:25 6,0 °C 81 % 1019,3 hPa 0,0 mm 3,7 km/h (1 Bft) S-SW 198 ° 0 min 0,000 mm 0,0 UV-I 0 W/m² 3,0 °C 6,0 °C 8,0 km/h (2 Bft)
17.04.2019 02:26 5,9 °C 81 % 1019,3 hPa 0,0 mm 3,4 km/h (1 Bft) SW 223 ° 0 min 0,000 mm 0,0 UV-I 0 W/m² 2,9 °C 5,9 °C 6,4 km/h (2 Bft)
17.04.2019 02:27 5,9 °C 81 % 1019,3 hPa 0,0 mm 0,6 km/h (0 Bft) S-SW 194 ° 0 min 0,000 mm 0,0 UV-I 0 W/m² 2,9 °C 5,9 °C 4,8 km/h (1 Bft)
17.04.2019 02:28 5,9 °C 81 % 1019,3 hPa 0,0 mm 6,7 km/h (2 Bft) S-SW 198 ° 0 min 0,000 mm 0,0 UV-I 0 W/m² 2,9 °C 4,5 °C 9,7 km/h (2 Bft)
17.04.2019 02:29 5,9 °C 81 % 1019,3 hPa 0,0 mm 1,9 km/h (1 Bft) S-SW 194 ° 0 min 0,000 mm 0,0 UV-I 0 W/m² 2,9 °C 5,9 °C 4,8 km/h (1 Bft)
17.04.2019 02:30 5,9 °C 81 % 1019,3 hPa 0,0 mm 2,7 km/h (1 Bft) S 186 ° 0 min 0,000 mm 0,0 UV-I 0 W/m² 2,9 °C 5,9 °C 4,8 km/h (1 Bft)
17.04.2019 02:31 5,9 °C 81 % 1019,4 hPa 0,0 mm 0,3 km/h (0 Bft) S 186 ° 0 min 0,000 mm 0,0 UV-I 0 W/m² 2,9 °C 5,9 °C 1,6 km/h (1 Bft)
17.04.2019 02:32 5,9 °C 81 % 1019,4 hPa 0,0 mm 1,5 km/h (1 Bft) SW 227 ° 0 min 0,000 mm 0,0 UV-I 0 W/m² 2,9 °C 5,9 °C 4,8 km/h (1 Bft)
17.04.2019 02:33 5,9 °C 81 % 1019,4 hPa 0,0 mm 5,2 km/h (1 Bft) S 188 ° 0 min 0,000 mm 0,0 UV-I 0 W/m² 2,9 °C 5,0 °C 8,0 km/h (2 Bft)
17.04.2019 02:34 6,0 °C 81 % 1019,4 hPa 0,0 mm 4,7 km/h (1 Bft) SW 219 ° 0 min 0,000 mm 0,0 UV-I 0 W/m² 3,0 °C 5,3 °C 8,0 km/h (2 Bft)
17.04.2019 02:35 6,1 °C 81 % 1019,4 hPa 0,0 mm 5,7 km/h (1 Bft) S-SW 202 ° 0 min 0,000 mm 0,0 UV-I 0 W/m² 3,1 °C 5,1 °C 8,0 km/h (2 Bft)
17.04.2019 02:36 6,1 °C 81 % 1019,4 hPa 0,0 mm 4,0 km/h (1 Bft) S 184 ° 0 min 0,000 mm 0,0 UV-I 0 W/m² 3,1 °C 6,1 °C 6,4 km/h (2 Bft)
17.04.2019 02:37 6,1 °C 80 % 1019,4 hPa 0,0 mm 3,9 km/h (1 Bft) S-SW 196 ° 0 min 0,000 mm 0,0 UV-I 0 W/m² 2,9 °C 6,1 °C 4,8 km/h (1 Bft)
17.04.2019 02:38 6,0 °C 81 % 1019,4 hPa 0,0 mm 1,9 km/h (1 Bft) S-SW 206 ° 0 min 0,000 mm 0,0 UV-I 0 W/m² 3,0 °C 6,0 °C 4,8 km/h (1 Bft)
17.04.2019 02:39 6,0 °C 81 % 1019,4 hPa 0,0 mm 5,0 km/h (1 Bft) S-SW 196 ° 0 min 0,000 mm 0,0 UV-I 0 W/m² 3,0 °C 5,2 °C 8,0 km/h (2 Bft)
17.04.2019 02:40 6,0 °C 81 % 1019,4 hPa 0,0 mm 6,6 km/h (2 Bft) S-SW 205 ° 0 min 0,000 mm 0,0 UV-I 0 W/m² 3,0 °C 4,7 °C 8,0 km/h (2 Bft)
17.04.2019 02:41 6,1 °C 81 % 1019,4 hPa 0,0 mm 5,6 km/h (1 Bft) S-SW 209 ° 0 min 0,000 mm 0,0 UV-I 0 W/m² 3,1 °C 5,1 °C 8,0 km/h (2 Bft)
17.04.2019 02:42 6,1 °C 81 % 1019,4 hPa 0,0 mm 6,1 km/h (2 Bft) S-SW 206 ° 0 min 0,000 mm 0,0 UV-I 0 W/m² 3,1 °C 5,0 °C 8,0 km/h (2 Bft)
17.04.2019 02:43 6,0 °C 81 % 1019,4 hPa 0,0 mm 6,9 km/h (2 Bft) S-SW 211 ° 0 min 0,000 mm 0,0 UV-I 0 W/m² 3,0 °C 4,6 °C 8,0 km/h (2 Bft)
17.04.2019 02:44 5,9 °C 81 % 1019,4 hPa 0,0 mm 5,6 km/h (1 Bft) S-SW 210 ° 0 min 0,000 mm 0,0 UV-I 0 W/m² 2,9 °C 4,9 °C 6,4 km/h (2 Bft)
17.04.2019 02:45 5,9 °C 81 % 1019,3 hPa 0,0 mm 4,7 km/h (1 Bft) S-SW 194 ° 0 min 0,000 mm 0,0 UV-I 0 W/m² 2,9 °C 5,2 °C 6,4 km/h (2 Bft)
17.04.2019 02:46 5,8 °C 80 % 1019,3 hPa 0,0 mm 5,0 km/h (1 Bft) SW 215 ° 0 min 0,000 mm 0,0 UV-I 0 W/m² 2,6 °C 5,0 °C 6,4 km/h (2 Bft)
17.04.2019 02:47 5,8 °C 81 % 1019,3 hPa 0,0 mm 6,5 km/h (2 Bft) S-SW 195 ° 0 min 0,000 mm 0,0 UV-I 0 W/m² 2,8 °C 4,5 °C 9,7 km/h (2 Bft)
17.04.2019 02:48 5,8 °C 81 % 1019,3 hPa 0,0 mm 6,8 km/h (2 Bft) SW 219 ° 0 min 0,000 mm 0,0 UV-I 0 W/m² 2,8 °C 4,4 °C 9,7 km/h (2 Bft)
17.04.2019 02:49 5,8 °C 81 % 1019,4 hPa 0,0 mm 3,9 km/h (1 Bft) S 183 ° 0 min 0,000 mm 0,0 UV-I 0 W/m² 2,8 °C 5,8 °C 8,0 km/h (2 Bft)
17.04.2019 02:50 5,8 °C 81 % 1019,4 hPa 0,0 mm 4,4 km/h (1 Bft) SW 217 ° 0 min 0,000 mm 0,0 UV-I 0 W/m² 2,8 °C 5,8 °C 8,0 km/h (2 Bft)
17.04.2019 02:51 5,8 °C 81 % 1019,3 hPa 0,0 mm 2,7 km/h (1 Bft) S 183 ° 0 min 0,000 mm 0,0 UV-I 0 W/m² 2,8 °C 5,8 °C 6,4 km/h (2 Bft)
17.04.2019 02:52 5,8 °C 82 % 1019,3 hPa 0,0 mm 2,7 km/h (1 Bft) S 191 ° 0 min 0,000 mm 0,0 UV-I 0 W/m² 3,0 °C 5,8 °C 8,0 km/h (2 Bft)
17.04.2019 02:53 5,8 °C 82 % 1019,3 hPa 0,0 mm 5,1 km/h (1 Bft) S-SW 207 ° 0 min 0,000 mm 0,0 UV-I 0 W/m² 3,0 °C 5,0 °C 8,0 km/h (2 Bft)
17.04.2019 02:54 5,9 °C 82 % 1019,3 hPa 0,0 mm 2,8 km/h (1 Bft) S-SW 209 ° 0 min 0,000 mm 0,0 UV-I 0 W/m² 3,1 °C 5,9 °C 4,8 km/h (1 Bft)
17.04.2019 02:55 5,9 °C 82 % 1019,3 hPa 0,0 mm 4,7 km/h (1 Bft) SW 228 ° 0 min 0,000 mm 0,0 UV-I 0 W/m² 3,1 °C 5,2 °C 6,4 km/h (2 Bft)
17.04.2019 02:56 5,9 °C 82 % 1019,3 hPa 0,0 mm 3,2 km/h (1 Bft) W-SW 244 ° 0 min 0,000 mm 0,0 UV-I 0 W/m² 3,1 °C 5,9 °C 4,8 km/h (1 Bft)
17.04.2019 02:57 6,0 °C 82 % 1019,3 hPa 0,0 mm 3,1 km/h (1 Bft) SW 223 ° 0 min 0,000 mm 0,0 UV-I 0 W/m² 3,2 °C 6,0 °C 4,8 km/h (1 Bft)
17.04.2019 02:58 6,1 °C 81 % 1019,3 hPa 0,0 mm 2,5 km/h (1 Bft) SW 222 ° 0 min 0,000 mm 0,0 UV-I 0 W/m² 3,1 °C 6,1 °C 3,2 km/h (1 Bft)
17.04.2019 02:59 6,1 °C 82 % 1019,3 hPa 0,0 mm 0,8 km/h (0 Bft) SW 222 ° 0 min 0,000 mm 0,0 UV-I 0 W/m² 3,3 °C 6,1 °C 3,2 km/h (1 Bft)
17.04.2019 03:00 6,1 °C 82 % 1019,3 hPa 0,0 mm 0,3 km/h (0 Bft) SW 222 ° 0 min 0,025 mm 0,0 UV-I 0 W/m² 3,3 °C 6,1 °C 1,6 km/h (1 Bft)
17.04.2019 03:01 6,1 °C 82 % 1019,3 hPa 0,0 mm 0,1 km/h (0 Bft) S-SW 201 ° 0 min 0,000 mm 0,0 UV-I 0 W/m² 3,3 °C 6,1 °C 3,2 km/h (1 Bft)
17.04.2019 03:02 6,1 °C 82 % 1019,3 hPa 0,0 mm 0,4 km/h (0 Bft) S-SW 201 ° 0 min 0,000 mm 0,0 UV-I 0 W/m² 3,3 °C 6,1 °C 3,2 km/h (1 Bft)
17.04.2019 03:03 6,1 °C 82 % 1019,3 hPa 0,0 mm 1,7 km/h (1 Bft) S-SW 202 ° 0 min 0,000 mm 0,0 UV-I 0 W/m² 3,3 °C 6,1 °C 4,8 km/h (1 Bft)
17.04.2019 03:04 6,1 °C 81 % 1019,3 hPa 0,0 mm 2,0 km/h (1 Bft) SW 236 ° 0 min 0,000 mm 0,0 UV-I 0 W/m² 3,1 °C 6,1 °C 4,8 km/h (1 Bft)
17.04.2019 03:05 6,1 °C 82 % 1019,3 hPa 0,0 mm 2,2 km/h (1 Bft) S 185 ° 0 min 0,000 mm 0,0 UV-I 0 W/m² 3,3 °C 6,1 °C 4,8 km/h (1 Bft)
17.04.2019 03:06 6,1 °C 82 % 1019,3 hPa 0,0 mm 1,1 km/h (1 Bft) S 188 ° 0 min 0,000 mm 0,0 UV-I 0 W/m² 3,3 °C 6,1 °C 3,2 km/h (1 Bft)
17.04.2019 03:07 6,1 °C 82 % 1019,4 hPa 0,0 mm 0,2 km/h (0 Bft) S 188 ° 0 min 0,000 mm 0,0 UV-I 0 W/m² 3,3 °C 6,1 °C 1,6 km/h (1 Bft)
17.04.2019 03:08 6,1 °C 82 % 1019,4 hPa 0,0 mm 1,0 km/h (0 Bft) SW 219 ° 0 min 0,000 mm 0,0 UV-I 0 W/m² 3,3 °C 6,1 °C 3,2 km/h (1 Bft)
17.04.2019 03:09 6,1 °C 82 % 1019,3 hPa 0,0 mm 0,0 km/h (0 Bft) SW 219 ° 0 min 0,000 mm 0,0 UV-I 0 W/m² 3,3 °C 6,1 °C 0,0 km/h (0 Bft)
17.04.2019 03:10 6,1 °C 82 % 1019,3 hPa 0,0 mm 0,1 km/h (0 Bft) SW 219 ° 0 min 0,000 mm 0,0 UV-I 0 W/m² 3,3 °C 6,1 °C 1,6 km/h (1 Bft)
17.04.2019 03:11 6,1 °C 82 % 1019,3 hPa 0,0 mm 0,0 km/h (0 Bft) SW 219 ° 0 min 0,000 mm 0,0 UV-I 0 W/m² 3,3 °C 6,1 °C 0,0 km/h (0 Bft)
17.04.2019 03:12 6,2 °C 82 % 1019,3 hPa 0,0 mm 0,1 km/h (0 Bft) SW 219 ° 0 min 0,000 mm 0,0 UV-I 0 W/m² 3,4 °C 6,2 °C 1,6 km/h (1 Bft)
17.04.2019 03:13 6,2 °C 82 % 1019,3 hPa 0,0 mm 0,0 km/h (0 Bft) SW 217 ° 0 min 0,000 mm 0,0 UV-I 0 W/m² 3,4 °C 6,2 °C 0,0 km/h (0 Bft)
17.04.2019 03:14 6,2 °C 82 % 1019,3 hPa 0,0 mm 0,0 km/h (0 Bft) SW 217 ° 0 min 0,000 mm 0,0 UV-I 0 W/m² 3,4 °C 6,2 °C 0,0 km/h (0 Bft)
17.04.2019 03:15 6,2 °C 82 % 1019,3 hPa 0,0 mm 1,8 km/h (1 Bft) SW 222 ° 0 min 0,000 mm 0,0 UV-I 0 W/m² 3,4 °C 6,2 °C 4,8 km/h (1 Bft)
17.04.2019 03:16 6,2 °C 82 % 1019,3 hPa 0,0 mm 3,4 km/h (1 Bft) SW 220 ° 0 min 0,000 mm 0,0 UV-I 0 W/m² 3,4 °C 6,2 °C 4,8 km/h (1 Bft)
17.04.2019 03:17 6,3 °C 82 % 1019,3 hPa 0,0 mm 1,4 km/h (1 Bft) SW 221 ° 0 min 0,000 mm 0,0 UV-I 0 W/m² 3,5 °C 6,3 °C 4,8 km/h (1 Bft)
17.04.2019 03:18 6,3 °C 82 % 1019,3 hPa 0,0 mm 0,7 km/h (0 Bft) SW 221 ° 0 min 0,000 mm 0,0 UV-I 0 W/m² 3,5 °C 6,3 °C 3,2 km/h (1 Bft)
17.04.2019 03:19 6,3 °C 82 % 1019,3 hPa 0,0 mm 0,2 km/h (0 Bft) SW 221 ° 0 min 0,000 mm 0,0 UV-I 0 W/m² 3,5 °C 6,3 °C 1,6 km/h (1 Bft)
17.04.2019 03:20 6,3 °C 82 % 1019,2 hPa 0,0 mm 1,6 km/h (1 Bft) S-SW 207 ° 0 min 0,000 mm 0,0 UV-I 0 W/m² 3,5 °C 6,3 °C 3,2 km/h (1 Bft)
17.04.2019 03:21 6,3 °C 82 % 1019,2 hPa 0,0 mm 4,3 km/h (1 Bft) SW 217 ° 0 min 0,000 mm 0,0 UV-I 0 W/m² 3,5 °C 6,3 °C 6,4 km/h (2 Bft)
17.04.2019 03:22 6,3 °C 82 % 1019,2 hPa 0,0 mm 0,4 km/h (0 Bft) SW 217 ° 0 min 0,000 mm 0,0 UV-I 0 W/m² 3,5 °C 6,3 °C 3,2 km/h (1 Bft)
17.04.2019 03:23 6,3 °C 82 % 1019,3 hPa 0,0 mm 3,2 km/h (1 Bft) S-SW 203 ° 0 min 0,000 mm 0,0 UV-I 0 W/m² 3,5 °C 6,3 °C 4,8 km/h (1 Bft)
17.04.2019 03:24 6,3 °C 81 % 1019,3 hPa 0,0 mm 2,6 km/h (1 Bft) W-SW 246 ° 0 min 0,000 mm 0,0 UV-I 0 W/m² 3,3 °C 6,3 °C 4,8 km/h (1 Bft)
17.04.2019 03:25 6,3 °C 81 % 1019,3 hPa 0,0 mm 3,1 km/h (1 Bft) S 190 ° 0 min 0,000 mm 0,0 UV-I 0 W/m² 3,3 °C 6,3 °C 6,4 km/h (2 Bft)
17.04.2019 03:26 6,3 °C 81 % 1019,3 hPa 0,0 mm 4,3 km/h (1 Bft) SW 221 ° 0 min 0,000 mm 0,0 UV-I 0 W/m² 3,3 °C 6,3 °C 6,4 km/h (2 Bft)
17.04.2019 03:27 6,3 °C 81 % 1019,3 hPa 0,0 mm 1,4 km/h (1 Bft) S-SW 209 ° 0 min 0,000 mm 0,0 UV-I 0 W/m² 3,3 °C 6,3 °C 4,8 km/h (1 Bft)
17.04.2019 03:28 6,3 °C 81 % 1019,3 hPa 0,0 mm 2,1 km/h (1 Bft) SW 227 ° 0 min 0,000 mm 0,0 UV-I 0 W/m² 3,3 °C 6,3 °C 4,8 km/h (1 Bft)
17.04.2019 03:29 6,4 °C 81 % 1019,2 hPa 0,0 mm 6,6 km/h (2 Bft) SW 220 ° 0 min 0,000 mm 0,0 UV-I 0 W/m² 3,4 °C 5,2 °C 9,7 km/h (2 Bft)
17.04.2019 03:30 6,4 °C 81 % 1019,2 hPa 0,0 mm 3,6 km/h (1 Bft) S-SW 198 ° 0 min 0,000 mm 0,0 UV-I 0 W/m² 3,4 °C 6,4 °C 4,8 km/h (1 Bft)
17.04.2019 03:31 6,3 °C 81 % 1019,2 hPa 0,0 mm 1,3 km/h (1 Bft) S-SW 198 ° 0 min 0,000 mm 0,0 UV-I 0 W/m² 3,3 °C 6,3 °C 3,2 km/h (1 Bft)
17.04.2019 03:32 6,3 °C 81 % 1019,3 hPa 0,0 mm 0,7 km/h (0 Bft) S-SW 198 ° 0 min 0,000 mm 0,0 UV-I 0 W/m² 3,3 °C 6,3 °C 3,2 km/h (1 Bft)
17.04.2019 03:33 6,3 °C 81 % 1019,3 hPa 0,0 mm 3,0 km/h (1 Bft) S-SW 198 ° 0 min 0,000 mm 0,0 UV-I 0 W/m² 3,3 °C 6,3 °C 6,4 km/h (2 Bft)
17.04.2019 03:34 6,4 °C 81 % 1019,2 hPa 0,0 mm 0,7 km/h (0 Bft) S-SW 198 ° 0 min 0,000 mm 0,0 UV-I 0 W/m² 3,4 °C 6,4 °C 3,2 km/h (1 Bft)
17.04.2019 03:35 6,3 °C 81 % 1019,3 hPa 0,0 mm 1,4 km/h (1 Bft) S-SW 200 ° 0 min 0,000 mm 0,0 UV-I 0 W/m² 3,3 °C 6,3 °C 4,8 km/h (1 Bft)
17.04.2019 03:36 6,3 °C 81 % 1019,2 hPa 0,0 mm 2,0 km/h (1 Bft) S-SW 200 ° 0 min 0,000 mm 0,0 UV-I 0 W/m² 3,3 °C 6,3 °C 4,8 km/h (1 Bft)
17.04.2019 03:37 6,2 °C 81 % 1019,2 hPa 0,0 mm 2,2 km/h (1 Bft) S-SW 193 ° 0 min 0,000 mm 0,0 UV-I 0 W/m² 3,2 °C 6,2 °C 4,8 km/h (1 Bft)
17.04.2019 03:38 6,2 °C 81 % 1019,2 hPa 0,0 mm 0,0 km/h (0 Bft) S-SW 193 ° 0 min 0,000 mm 0,0 UV-I 0 W/m² 3,2 °C 6,2 °C 0,0 km/h (0 Bft)
17.04.2019 03:39 6,2 °C 81 % 1019,2 hPa 0,0 mm 0,0 km/h (0 Bft) S-SW 193 ° 0 min 0,000 mm 0,0 UV-I 0 W/m² 3,2 °C 6,2 °C 0,0 km/h (0 Bft)
17.04.2019 03:40 6,1 °C 81 % 1019,2 hPa 0,0 mm 0,0 km/h (0 Bft) S-SW 193 ° 0 min 0,000 mm 0,0 UV-I 0 W/m² 3,1 °C 6,1 °C 0,0 km/h (0 Bft)
17.04.2019 03:41 6,1 °C 81 % 1019,2 hPa 0,0 mm 0,0 km/h (0 Bft) S-SW 193 ° 0 min 0,000 mm 0,0 UV-I 0 W/m² 3,1 °C 6,1 °C 0,0 km/h (0 Bft)
17.04.2019 03:42 5,9 °C 81 % 1019,2 hPa 0,0 mm 0,0 km/h (0 Bft) S-SW 193 ° 0 min 0,000 mm 0,0 UV-I 0 W/m² 2,9 °C 5,9 °C 0,0 km/h (0 Bft)
17.04.2019 03:43 5,9 °C 82 % 1019,2 hPa 0,0 mm 0,0 km/h (0 Bft) S-SW 194 ° 0 min 0,000 mm 0,0 UV-I 0 W/m² 3,1 °C 5,9 °C 0,0 km/h (0 Bft)
17.04.2019 03:44 5,9 °C 82 % 1019,2 hPa 0,0 mm 0,0 km/h (0 Bft) S-SW 194 ° 0 min 0,000 mm 0,0 UV-I 0 W/m² 3,1 °C 5,9 °C 0,0 km/h (0 Bft)
17.04.2019 03:45 5,8 °C 82 % 1019,2 hPa 0,0 mm 0,0 km/h (0 Bft) S-SW 194 ° 0 min 0,000 mm 0,0 UV-I 0 W/m² 3,0 °C 5,8 °C 0,0 km/h (0 Bft)
17.04.2019 03:46 5,7 °C 83 % 1019,2 hPa 0,0 mm 0,0 km/h (0 Bft) S 189 ° 0 min 0,000 mm 0,0 UV-I 0 W/m² 3,0 °C 5,7 °C 0,0 km/h (0 Bft)
17.04.2019 03:47 5,6 °C 83 % 1019,2 hPa 0,0 mm 0,0 km/h (0 Bft) S 190 ° 0 min 0,000 mm 0,0 UV-I 0 W/m² 2,9 °C 5,6 °C 0,0 km/h (0 Bft)
17.04.2019 03:48 5,6 °C 83 % 1019,3 hPa 0,0 mm 0,0 km/h (0 Bft) S 190 ° 0 min 0,000 mm 0,0 UV-I 0 W/m² 2,9 °C 5,6 °C 0,0 km/h (0 Bft)
17.04.2019 03:49 5,5 °C 83 % 1019,3 hPa 0,0 mm 0,0 km/h (0 Bft) S 190 ° 0 min 0,000 mm 0,0 UV-I 0 W/m² 2,8 °C 5,5 °C 0,0 km/h (0 Bft)
17.04.2019 03:50 5,5 °C 83 % 1019,3 hPa 0,0 mm 0,0 km/h (0 Bft) S 190 ° 0 min 0,000 mm 0,0 UV-I 0 W/m² 2,8 °C 5,5 °C 0,0 km/h (0 Bft)
17.04.2019 03:51 5,5 °C 83 % 1019,3 hPa 0,0 mm 0,0 km/h (0 Bft) S 190 ° 0 min 0,000 mm 0,0 UV-I 0 W/m² 2,8 °C 5,5 °C 0,0 km/h (0 Bft)
17.04.2019 03:52 5,5 °C 84 % 1019,3 hPa 0,0 mm 0,0 km/h (0 Bft) S 190 ° 0 min 0,000 mm 0,0 UV-I 0 W/m² 3,0 °C 5,5 °C 0,0 km/h (0 Bft)
17.04.2019 03:53 5,4 °C 84 % 1019,3 hPa 0,0 mm 0,0 km/h (0 Bft) S 190 ° 0 min 0,000 mm 0,0 UV-I 0 W/m² 2,9 °C 5,4 °C 0,0 km/h (0 Bft)
17.04.2019 03:54 5,4 °C 84 % 1019,3 hPa 0,0 mm 0,0 km/h (0 Bft) S 190 ° 0 min 0,000 mm 0,0 UV-I 0 W/m² 2,9 °C 5,4 °C 0,0 km/h (0 Bft)
17.04.2019 03:55 5,4 °C 84 % 1019,3 hPa 0,0 mm 0,0 km/h (0 Bft) S 190 ° 0 min 0,000 mm 0,0 UV-I 0 W/m² 2,9 °C 5,4 °C 0,0 km/h (0 Bft)
17.04.2019 03:56 5,4 °C 84 % 1019,3 hPa 0,0 mm 0,0 km/h (0 Bft) S 190 ° 0 min 0,000 mm 0,0 UV-I 0 W/m² 2,9 °C 5,4 °C 0,0 km/h (0 Bft)
17.04.2019 03:57 5,4 °C 84 % 1019,3 hPa 0,0 mm 0,0 km/h (0 Bft) S 190 ° 0 min 0,000 mm 0,0 UV-I 0 W/m² 2,9 °C 5,4 °C 0,0 km/h (0 Bft)
17.04.2019 03:58 5,4 °C 84 % 1019,3 hPa 0,0 mm 0,0 km/h (0 Bft) S 190 ° 0 min 0,000 mm 0,0 UV-I 0 W/m² 2,9 °C 5,4 °C 0,0 km/h (0 Bft)
17.04.2019 03:59 5,4 °C 84 % 1019,3 hPa 0,0 mm 0,0 km/h (0 Bft) S 190 ° 0 min 0,000 mm 0,0 UV-I 0 W/m² 2,9 °C 5,4 °C 0,0 km/h (0 Bft)
17.04.2019 04:00 5,4 °C 84 % 1019,3 hPa 0,0 mm 0,0 km/h (0 Bft) S 190 ° 0 min 0,000 mm 0,0 UV-I 0 W/m² 2,9 °C 5,4 °C 0,0 km/h (0 Bft)
17.04.2019 04:01 5,4 °C 84 % 1019,3 hPa 0,0 mm 0,0 km/h (0 Bft) S 190 ° 0 min 0,000 mm 0,0 UV-I 0 W/m² 2,9 °C 5,4 °C 0,0 km/h (0 Bft)
17.04.2019 04:02 5,4 °C 84 % 1019,3 hPa 0,0 mm 0,0 km/h (0 Bft) S 190 ° 0 min 0,000 mm 0,0 UV-I 0 W/m² 2,9 °C 5,4 °C 0,0 km/h (0 Bft)
17.04.2019 04:03 5,4 °C 84 % 1019,3 hPa 0,0 mm 0,0 km/h (0 Bft) S 190 ° 0 min 0,000 mm 0,0 UV-I 0 W/m² 2,9 °C 5,4 °C 0,0 km/h (0 Bft)
17.04.2019 04:04 5,4 °C 84 % 1019,3 hPa 0,0 mm 0,0 km/h (0 Bft) S 190 ° 0 min 0,000 mm 0,0 UV-I 0 W/m² 2,9 °C 5,4 °C 0,0 km/h (0 Bft)
17.04.2019 04:05 5,4 °C 84 % 1019,3 hPa 0,0 mm 0,0 km/h (0 Bft) S 190 ° 0 min 0,000 mm 0,0 UV-I 0 W/m² 2,9 °C 5,4 °C 0,0 km/h (0 Bft)
17.04.2019 04:06 5,4 °C 84 % 1019,2 hPa 0,0 mm 0,0 km/h (0 Bft) S 190 ° 0 min 0,000 mm 0,0 UV-I 0 W/m² 2,9 °C 5,4 °C 0,0 km/h (0 Bft)
17.04.2019 04:07 5,4 °C 84 % 1019,2 hPa 0,0 mm 0,0 km/h (0 Bft) S 190 ° 0 min 0,000 mm 0,0 UV-I 0 W/m² 2,9 °C 5,4 °C 0,0 km/h (0 Bft)
17.04.2019 04:08 5,4 °C 84 % 1019,2 hPa 0,0 mm 0,0 km/h (0 Bft) S 190 ° 0 min 0,000 mm 0,0 UV-I 0 W/m² 2,9 °C 5,4 °C 0,0 km/h (0 Bft)
17.04.2019 04:09 5,4 °C 84 % 1019,2 hPa 0,0 mm 0,0 km/h (0 Bft) S 190 ° 0 min 0,000 mm 0,0 UV-I 0 W/m² 2,9 °C 5,4 °C 0,0 km/h (0 Bft)
17.04.2019 04:10 5,4 °C 84 % 1019,2 hPa 0,0 mm 0,0 km/h (0 Bft) S 190 ° 0 min 0,000 mm 0,0 UV-I 0 W/m² 2,9 °C 5,4 °C 0,0 km/h (0 Bft)
17.04.2019 04:11 5,4 °C 84 % 1019,2 hPa 0,0 mm 0,0 km/h (0 Bft) S 190 ° 0 min 0,000 mm 0,0 UV-I 0 W/m² 2,9 °C 5,4 °C 0,0 km/h (0 Bft)
17.04.2019 04:12 5,4 °C 84 % 1019,2 hPa 0,0 mm 0,0 km/h (0 Bft) S 190 ° 0 min 0,000 mm 0,0 UV-I 0 W/m² 2,9 °C 5,4 °C 0,0 km/h (0 Bft)
17.04.2019 04:13 5,4 °C 84 % 1019,2 hPa 0,0 mm 0,0 km/h (0 Bft) S 190 ° 0 min 0,000 mm 0,0 UV-I 0 W/m² 2,9 °C 5,4 °C 0,0 km/h (0 Bft)
17.04.2019 04:14 5,4 °C 84 % 1019,1 hPa 0,0 mm 0,0 km/h (0 Bft) S 190 ° 0 min 0,000 mm 0,0 UV-I 0 W/m² 2,9 °C 5,4 °C 0,0 km/h (0 Bft)
17.04.2019 04:15 5,4 °C 84 % 1019,1 hPa 0,0 mm 0,0 km/h (0 Bft) S 190 ° 0 min 0,000 mm 0,0 UV-I 0 W/m² 2,9 °C 5,4 °C 0,0 km/h (0 Bft)
17.04.2019 04:16 5,4 °C 84 % 1019,1 hPa 0,0 mm 0,0 km/h (0 Bft) S 190 ° 0 min 0,000 mm 0,0 UV-I 0 W/m² 2,9 °C 5,4 °C 0,0 km/h (0 Bft)
17.04.2019 04:17 5,4 °C 84 % 1019,2 hPa 0,0 mm 0,0 km/h (0 Bft) S 190 ° 0 min 0,000 mm 0,0 UV-I 0 W/m² 2,9 °C 5,4 °C 0,0 km/h (0 Bft)
17.04.2019 04:18 5,4 °C 84 % 1019,2 hPa 0,0 mm 0,0 km/h (0 Bft) S 190 ° 0 min 0,000 mm 0,0 UV-I 0 W/m² 2,9 °C 5,4 °C 0,0 km/h (0 Bft)
17.04.2019 04:19 5,4 °C 84 % 1019,2 hPa 0,0 mm 0,0 km/h (0 Bft) S 190 ° 0 min 0,000 mm 0,0 UV-I 0 W/m² 2,9 °C 5,4 °C 0,0 km/h (0 Bft)
17.04.2019 04:20 5,4 °C 84 % 1019,2 hPa 0,0 mm 0,0 km/h (0 Bft) S 190 ° 0 min 0,000 mm 0,0 UV-I 0 W/m² 2,9 °C 5,4 °C 0,0 km/h (0 Bft)
17.04.2019 04:21 5,4 °C 84 % 1019,2 hPa 0,0 mm 0,0 km/h (0 Bft) S 190 ° 0 min 0,000 mm 0,0 UV-I 0 W/m² 2,9 °C 5,4 °C 0,0 km/h (0 Bft)
17.04.2019 04:22 5,4 °C 84 % 1019,2 hPa 0,0 mm 0,0 km/h (0 Bft) S 190 ° 0 min 0,000 mm 0,0 UV-I 0 W/m² 2,9 °C 5,4 °C 0,0 km/h (0 Bft)
17.04.2019 04:23 5,4 °C 84 % 1019,2 hPa 0,0 mm 0,0 km/h (0 Bft) S 190 ° 0 min 0,000 mm 0,0 UV-I 0 W/m² 2,9 °C 5,4 °C 0,0 km/h (0 Bft)
17.04.2019 04:24 5,4 °C 84 % 1019,2 hPa 0,0 mm 0,0 km/h (0 Bft) S 190 ° 0 min 0,000 mm 0,0 UV-I 0 W/m² 2,9 °C 5,4 °C 0,0 km/h (0 Bft)
17.04.2019 04:25 5,4 °C 84 % 1019,2 hPa 0,0 mm 0,0 km/h (0 Bft) S 189 ° 0 min 0,000 mm 0,0 UV-I 0 W/m² 2,9 °C 5,4 °C 0,0 km/h (0 Bft)
17.04.2019 04:26 5,4 °C 85 % 1019,1 hPa 0,0 mm 0,0 km/h (0 Bft) S 189 ° 0 min 0,000 mm 0,0 UV-I 0 W/m² 3,1 °C 5,4 °C 0,0 km/h (0 Bft)
17.04.2019 04:27 5,4 °C 85 % 1019,2 hPa 0,0 mm 0,0 km/h (0 Bft) S 189 ° 0 min 0,000 mm 0,0 UV-I 0 W/m² 3,1 °C 5,4 °C 0,0 km/h (0 Bft)
17.04.2019 04:28 5,4 °C 85 % 1019,1 hPa 0,0 mm 0,0 km/h (0 Bft) S 189 ° 0 min 0,000 mm 0,0 UV-I 0 W/m² 3,1 °C 5,4 °C 0,0 km/h (0 Bft)
17.04.2019 04:29 5,4 °C 85 % 1019,1 hPa 0,0 mm 0,0 km/h (0 Bft) S 189 ° 0 min 0,000 mm 0,0 UV-I 0 W/m² 3,1 °C 5,4 °C 0,0 km/h (0 Bft)
17.04.2019 04:30 5,4 °C 85 % 1019,1 hPa 0,0 mm 0,0 km/h (0 Bft) S 189 ° 0 min 0,000 mm 0,0 UV-I 0 W/m² 3,1 °C 5,4 °C 0,0 km/h (0 Bft)
17.04.2019 04:31 5,4 °C 85 % 1019,1 hPa 0,0 mm 0,0 km/h (0 Bft) S 189 ° 0 min 0,000 mm 0,0 UV-I 0 W/m² 3,1 °C 5,4 °C 0,0 km/h (0 Bft)
17.04.2019 04:32 5,4 °C 85 % 1019,1 hPa 0,0 mm 0,0 km/h (0 Bft) S 189 ° 0 min 0,000 mm 0,0 UV-I 0 W/m² 3,1 °C 5,4 °C 0,0 km/h (0 Bft)
17.04.2019 04:33 5,4 °C 85 % 1019,1 hPa 0,0 mm 0,0 km/h (0 Bft) S 189 ° 0 min 0,000 mm 0,0 UV-I 0 W/m² 3,1 °C 5,4 °C 0,0 km/h (0 Bft)
17.04.2019 04:34 5,4 °C 85 % 1019,1 hPa 0,0 mm 0,0 km/h (0 Bft) S 189 ° 0 min 0,000 mm 0,0 UV-I 0 W/m² 3,1 °C 5,4 °C 0,0 km/h (0 Bft)
17.04.2019 04:35 5,4 °C 85 % 1019,1 hPa 0,0 mm 0,0 km/h (0 Bft) S 189 ° 0 min 0,000 mm 0,0 UV-I 0 W/m² 3,1 °C 5,4 °C 0,0 km/h (0 Bft)
17.04.2019 04:36 5,3 °C 85 % 1019,1 hPa 0,0 mm 0,0 km/h (0 Bft) S 189 ° 0 min 0,000 mm 0,0 UV-I 0 W/m² 3,0 °C 5,3 °C 0,0 km/h (0 Bft)
17.04.2019 04:37 5,3 °C 85 % 1019,1 hPa 0,0 mm 0,0 km/h (0 Bft) S 189 ° 0 min 0,000 mm 0,0 UV-I 0 W/m² 3,0 °C 5,3 °C 0,0 km/h (0 Bft)
17.04.2019 04:38 5,2 °C 86 % 1019,1 hPa 0,0 mm 0,0 km/h (0 Bft) S 189 ° 0 min 0,000 mm 0,0 UV-I 0 W/m² 3,1 °C 5,2 °C 0,0 km/h (0 Bft)
17.04.2019 04:39 5,2 °C 86 % 1019,2 hPa 0,0 mm 0,0 km/h (0 Bft) S 189 ° 0 min 0,000 mm 0,0 UV-I 0 W/m² 3,1 °C 5,2 °C 0,0 km/h (0 Bft)
17.04.2019 04:40 5,2 °C 86 % 1019,2 hPa 0,0 mm 0,0 km/h (0 Bft) S 189 ° 0 min 0,000 mm 0,0 UV-I 0 W/m² 3,1 °C 5,2 °C 0,0 km/h (0 Bft)
17.04.2019 04:41 5,2 °C 86 % 1019,1 hPa 0,0 mm 0,0 km/h (0 Bft) S 189 ° 0 min 0,000 mm 0,0 UV-I 0 W/m² 3,1 °C 5,2 °C 0,0 km/h (0 Bft)
17.04.2019 04:42 5,1 °C 86 % 1019,1 hPa 0,0 mm 0,0 km/h (0 Bft) S 189 ° 0 min 0,000 mm 0,0 UV-I 0 W/m² 3,0 °C 5,1 °C 0,0 km/h (0 Bft)
17.04.2019 04:43 5,1 °C 86 % 1019,2 hPa 0,0 mm 0,0 km/h (0 Bft) S 189 ° 0 min 0,000 mm 0,0 UV-I 0 W/m² 3,0 °C 5,1 °C 0,0 km/h (0 Bft)
17.04.2019 04:44 5,1 °C 86 % 1019,2 hPa 0,0 mm 0,0 km/h (0 Bft) S 189 ° 0 min 0,000 mm 0,0 UV-I 0 W/m² 3,0 °C 5,1 °C 0,0 km/h (0 Bft)
17.04.2019 04:45 5,1 °C 86 % 1019,1 hPa 0,0 mm 0,0 km/h (0 Bft) S 189 ° 0 min 0,000 mm 0,0 UV-I 0 W/m² 3,0 °C 5,1 °C 0,0 km/h (0 Bft)
17.04.2019 04:46 5,2 °C 86 % 1019,2 hPa 0,0 mm 0,0 km/h (0 Bft) S 189 ° 0 min 0,000 mm 0,0 UV-I 0 W/m² 3,1 °C 5,2 °C 0,0 km/h (0 Bft)
17.04.2019 04:47 5,2 °C 86 % 1019,2 hPa 0,0 mm 0,0 km/h (0 Bft) S 189 ° 0 min 0,000 mm 0,0 UV-I 0 W/m² 3,1 °C 5,2 °C 0,0 km/h (0 Bft)
17.04.2019 04:48 5,2 °C 86 % 1019,1 hPa 0,0 mm 0,0 km/h (0 Bft) S 190 ° 0 min 0,000 mm 0,0 UV-I 0 W/m² 3,1 °C 5,2 °C 0,0 km/h (0 Bft)
17.04.2019 04:49 5,2 °C 86 % 1019,2 hPa 0,0 mm 0,0 km/h (0 Bft) S 190 ° 0 min 0,000 mm 0,0 UV-I 0 W/m² 3,1 °C 5,2 °C 0,0 km/h (0 Bft)
17.04.2019 04:50 5,2 °C 86 % 1019,1 hPa 0,0 mm 0,0 km/h (0 Bft) S 190 ° 0 min 0,000 mm 0,0 UV-I 0 W/m² 3,1 °C 5,2 °C 0,0 km/h (0 Bft)
17.04.2019 04:51 5,2 °C 86 % 1019,2 hPa 0,0 mm 0,0 km/h (0 Bft) S 190 ° 0 min 0,000 mm 0,0 UV-I 0 W/m² 3,1 °C 5,2 °C 0,0 km/h (0 Bft)
17.04.2019 04:52 5,2 °C 86 % 1019,1 hPa 0,0 mm 0,0 km/h (0 Bft) S 190 ° 0 min 0,000 mm 0,0 UV-I 0 W/m² 3,1 °C 5,2 °C 0,0 km/h (0 Bft)
17.04.2019 04:53 5,2 °C 86 % 1019,2 hPa 0,0 mm 0,0 km/h (0 Bft) S 190 ° 0 min 0,000 mm 0,0 UV-I 0 W/m² 3,1 °C 5,2 °C 0,0 km/h (0 Bft)
17.04.2019 04:54 5,2 °C 86 % 1019,2 hPa 0,0 mm 0,0 km/h (0 Bft) S 190 ° 0 min 0,000 mm 0,0 UV-I 0 W/m² 3,1 °C 5,2 °C 0,0 km/h (0 Bft)
17.04.2019 04:55 5,2 °C 86 % 1019,2 hPa 0,0 mm 0,0 km/h (0 Bft) S 190 ° 0 min 0,000 mm 0,0 UV-I 0 W/m² 3,1 °C 5,2 °C 0,0 km/h (0 Bft)
17.04.2019 04:56 5,2 °C 86 % 1019,2 hPa 0,0 mm 0,0 km/h (0 Bft) S 190 ° 0 min 0,000 mm 0,0 UV-I 0 W/m² 3,1 °C 5,2 °C 0,0 km/h (0 Bft)
17.04.2019 04:57 5,2 °C 86 % 1019,2 hPa 0,0 mm 0,0 km/h (0 Bft) S 190 ° 0 min 0,000 mm 0,0 UV-I 0 W/m² 3,1 °C 5,2 °C 0,0 km/h (0 Bft)
17.04.2019 04:58 5,2 °C 86 % 1019,2 hPa 0,0 mm 0,0 km/h (0 Bft) S 190 ° 0 min 0,000 mm 0,0 UV-I 0 W/m² 3,1 °C 5,2 °C 0,0 km/h (0 Bft)
17.04.2019 04:59 5,2 °C 86 % 1019,2 hPa 0,0 mm 0,0 km/h (0 Bft) S 190 ° 0 min 0,000 mm 0,0 UV-I 0 W/m² 3,1 °C 5,2 °C 0,0 km/h (0 Bft)
17.04.2019 05:00 5,1 °C 86 % 1019,2 hPa 0,0 mm 0,0 km/h (0 Bft) S 190 ° 0 min 0,000 mm 0,0 UV-I 0 W/m² 3,0 °C 5,1 °C 0,0 km/h (0 Bft)
17.04.2019 05:01 5,1 °C 86 % 1019,2 hPa 0,0 mm 0,0 km/h (0 Bft) S 190 ° 0 min 0,000 mm 0,0 UV-I 0 W/m² 3,0 °C 5,1 °C 0,0 km/h (0 Bft)
17.04.2019 05:02 5,0 °C 86 % 1019,2 hPa 0,0 mm 0,0 km/h (0 Bft) S 190 ° 0 min 0,000 mm 0,0 UV-I 0 W/m² 2,9 °C 5,0 °C 0,0 km/h (0 Bft)
17.04.2019 05:03 4,9 °C 87 % 1019,2 hPa 0,0 mm 0,0 km/h (0 Bft) S 190 ° 0 min 0,000 mm 0,0 UV-I 0 W/m² 2,9 °C 4,9 °C 0,0 km/h (0 Bft)
17.04.2019 05:04 4,9 °C 87 % 1019,2 hPa 0,0 mm 0,0 km/h (0 Bft) S 190 ° 0 min 0,000 mm 0,0 UV-I 0 W/m² 2,9 °C 4,9 °C 0,0 km/h (0 Bft)
17.04.2019 05:05 4,9 °C 87 % 1019,1 hPa 0,0 mm 0,0 km/h (0 Bft) S 190 ° 0 min 0,000 mm 0,0 UV-I 0 W/m² 2,9 °C 4,9 °C 0,0 km/h (0 Bft)
17.04.2019 05:06 4,9 °C 87 % 1019,2 hPa 0,0 mm 0,0 km/h (0 Bft) S 190 ° 0 min 0,000 mm 0,0 UV-I 0 W/m² 2,9 °C 4,9 °C 0,0 km/h (0 Bft)
17.04.2019 05:07 4,9 °C 87 % 1019,2 hPa 0,0 mm 0,0 km/h (0 Bft) S 190 ° 0 min 0,000 mm 0,0 UV-I 0 W/m² 2,9 °C 4,9 °C 0,0 km/h (0 Bft)
17.04.2019 05:08 4,9 °C 87 % 1019,2 hPa 0,0 mm 0,0 km/h (0 Bft) S 190 ° 0 min 0,000 mm 0,0 UV-I 0 W/m² 2,9 °C 4,9 °C 0,0 km/h (0 Bft)
17.04.2019 05:09 5,0 °C 87 % 1019,2 hPa 0,0 mm 0,0 km/h (0 Bft) S 190 ° 0 min 0,000 mm 0,0 UV-I 0 W/m² 3,0 °C 5,0 °C 0,0 km/h (0 Bft)
17.04.2019 05:10 5,1 °C 87 % 1019,2 hPa 0,0 mm 0,0 km/h (0 Bft) S 190 ° 0 min 0,000 mm 0,0 UV-I 0 W/m² 3,1 °C 5,1 °C 0,0 km/h (0 Bft)
17.04.2019 05:11 5,2 °C 87 % 1019,2 hPa 0,0 mm 0,0 km/h (0 Bft) S 190 ° 0 min 0,000 mm 0,0 UV-I 0 W/m² 3,2 °C 5,2 °C 0,0 km/h (0 Bft)
17.04.2019 05:12 5,3 °C 87 % 1019,2 hPa 0,0 mm 0,0 km/h (0 Bft) S 190 ° 0 min 0,000 mm 0,0 UV-I 0 W/m² 3,3 °C 5,3 °C 0,0 km/h (0 Bft)
17.04.2019 05:13 5,3 °C 86 % 1019,2 hPa 0,0 mm 0,0 km/h (0 Bft) S 190 ° 0 min 0,000 mm 0,0 UV-I 0 W/m² 3,2 °C 5,3 °C 0,0 km/h (0 Bft)
17.04.2019 05:14 5,3 °C 86 % 1019,2 hPa 0,0 mm 0,0 km/h (0 Bft) S 190 ° 0 min 0,000 mm 0,0 UV-I 0 W/m² 3,2 °C 5,3 °C 0,0 km/h (0 Bft)
17.04.2019 05:15 5,4 °C 86 % 1019,2 hPa 0,0 mm 0,0 km/h (0 Bft) S 190 ° 0 min 0,000 mm 0,0 UV-I 0 W/m² 3,3 °C 5,4 °C 0,0 km/h (0 Bft)
17.04.2019 05:16 5,4 °C 86 % 1019,2 hPa 0,0 mm 0,0 km/h (0 Bft) S 190 ° 0 min 0,000 mm 0,0 UV-I 0 W/m² 3,3 °C 5,4 °C 0,0 km/h (0 Bft)
17.04.2019 05:17 5,5 °C 86 % 1019,2 hPa 0,0 mm 0,0 km/h (0 Bft) S 190 ° 0 min 0,000 mm 0,0 UV-I 0 W/m² 3,3 °C 5,5 °C 0,0 km/h (0 Bft)
17.04.2019 05:18 5,5 °C 85 % 1019,2 hPa 0,0 mm 0,0 km/h (0 Bft) S 190 ° 0 min 0,000 mm 0,0 UV-I 0 W/m² 3,2 °C 5,5 °C 0,0 km/h (0 Bft)
17.04.2019 05:19 5,4 °C 85 % 1019,2 hPa 0,0 mm 0,0 km/h (0 Bft) S 190 ° 0 min 0,000 mm 0,0 UV-I 0 W/m² 3,1 °C 5,4 °C 0,0 km/h (0 Bft)
17.04.2019 05:20 5,3 °C 85 % 1019,2 hPa 0,0 mm 0,0 km/h (0 Bft) S 190 ° 0 min 0,000 mm 0,0 UV-I 0 W/m² 3,0 °C 5,3 °C 0,0 km/h (0 Bft)
17.04.2019 05:21 5,2 °C 85 % 1019,2 hPa 0,0 mm 0,0 km/h (0 Bft) S 190 ° 0 min 0,000 mm 0,0 UV-I 0 W/m² 2,9 °C 5,2 °C 0,0 km/h (0 Bft)
17.04.2019 05:22 5,1 °C 85 % 1019,2 hPa 0,0 mm 0,0 km/h (0 Bft) S 190 ° 0 min 0,000 mm 0,0 UV-I 0 W/m² 2,8 °C 5,1 °C 0,0 km/h (0 Bft)
17.04.2019 05:23 4,9 °C 86 % 1019,2 hPa 0,0 mm 0,0 km/h (0 Bft) S 190 ° 0 min 0,000 mm 0,0 UV-I 0 W/m² 2,8 °C 4,9 °C 0,0 km/h (0 Bft)
17.04.2019 05:24 4,9 °C 86 % 1019,1 hPa 0,0 mm 0,0 km/h (0 Bft) S 190 ° 0 min 0,000 mm 0,0 UV-I 0 W/m² 2,8 °C 4,9 °C 0,0 km/h (0 Bft)
17.04.2019 05:25 4,8 °C 87 % 1019,1 hPa 0,0 mm 0,0 km/h (0 Bft) S 190 ° 0 min 0,000 mm 0,0 UV-I 0 W/m² 2,8 °C 4,8 °C 0,0 km/h (0 Bft)
17.04.2019 05:26 4,8 °C 87 % 1019,2 hPa 0,0 mm 0,0 km/h (0 Bft) S 190 ° 0 min 0,000 mm 0,0 UV-I 0 W/m² 2,8 °C 4,8 °C 0,0 km/h (0 Bft)
17.04.2019 05:27 4,8 °C 87 % 1019,2 hPa 0,0 mm 0,0 km/h (0 Bft) S 190 ° 0 min 0,000 mm 0,0 UV-I 0 W/m² 2,8 °C 4,8 °C 0,0 km/h (0 Bft)
17.04.2019 05:28 4,8 °C 87 % 1019,2 hPa 0,0 mm 0,0 km/h (0 Bft) S 190 ° 0 min 0,000 mm 0,0 UV-I 0 W/m² 2,8 °C 4,8 °C 0,0 km/h (0 Bft)
17.04.2019 05:29 4,8 °C 87 % 1019,1 hPa 0,0 mm 0,0 km/h (0 Bft) S 190 ° 0 min 0,000 mm 0,0 UV-I 0 W/m² 2,8 °C 4,8 °C 0,0 km/h (0 Bft)
17.04.2019 05:30 4,7 °C 87 % 1019,2 hPa 0,0 mm 0,0 km/h (0 Bft) S 190 ° 0 min 0,000 mm 0,0 UV-I 0 W/m² 2,7 °C 4,7 °C 0,0 km/h (0 Bft)
17.04.2019 05:31 4,7 °C 87 % 1019,2 hPa 0,0 mm 0,0 km/h (0 Bft) S 190 ° 0 min 0,000 mm 0,0 UV-I 0 W/m² 2,7 °C 4,7 °C 0,0 km/h (0 Bft)
17.04.2019 05:32 4,6 °C 87 % 1019,2 hPa 0,0 mm 0,0 km/h (0 Bft) S 190 ° 0 min 0,000 mm 0,0 UV-I 0 W/m² 2,6 °C 4,6 °C 0,0 km/h (0 Bft)
17.04.2019 05:33 4,7 °C 87 % 1019,2 hPa 0,0 mm 0,0 km/h (0 Bft) S 190 ° 0 min 0,000 mm 0,0 UV-I 0 W/m² 2,7 °C 4,7 °C 0,0 km/h (0 Bft)
17.04.2019 05:34 4,7 °C 87 % 1019,1 hPa 0,0 mm 0,0 km/h (0 Bft) S 190 ° 0 min 0,000 mm 0,0 UV-I 0 W/m² 2,7 °C 4,7 °C 0,0 km/h (0 Bft)
17.04.2019 05:35 4,7 °C 88 % 1019,1 hPa 0,0 mm 0,0 km/h (0 Bft) S 190 ° 0 min 0,000 mm 0,0 UV-I 0 W/m² 2,9 °C 4,7 °C 0,0 km/h (0 Bft)
17.04.2019 05:36 4,8 °C 88 % 1019,1 hPa 0,0 mm 0,0 km/h (0 Bft) S 190 ° 0 min 0,000 mm 0,0 UV-I 0 W/m² 3,0 °C 4,8 °C 0,0 km/h (0 Bft)
17.04.2019 05:37 4,8 °C 88 % 1019,1 hPa 0,0 mm 0,0 km/h (0 Bft) S 190 ° 0 min 0,000 mm 0,0 UV-I 0 W/m² 3,0 °C 4,8 °C 0,0 km/h (0 Bft)
17.04.2019 05:38 4,8 °C 88 % 1019,1 hPa 0,0 mm 0,0 km/h (0 Bft) S 190 ° 0 min 0,000 mm 0,0 UV-I 0 W/m² 3,0 °C 4,8 °C 0,0 km/h (0 Bft)
17.04.2019 05:39 4,9 °C 88 % 1019,1 hPa 0,0 mm 0,0 km/h (0 Bft) S 190 ° 0 min 0,000 mm 0,0 UV-I 0 W/m² 3,1 °C 4,9 °C 0,0 km/h (0 Bft)
17.04.2019 05:40 4,9 °C 88 % 1019,1 hPa 0,0 mm 0,0 km/h (0 Bft) S 190 ° 0 min 0,000 mm 0,0 UV-I 0 W/m² 3,1 °C 4,9 °C 0,0 km/h (0 Bft)
17.04.2019 05:41 4,9 °C 87 % 1019,1 hPa 0,0 mm 0,0 km/h (0 Bft) S 190 ° 0 min 0,000 mm 0,0 UV-I 0 W/m² 2,9 °C 4,9 °C 0,0 km/h (0 Bft)
17.04.2019 05:42 4,8 °C 87 % 1019,1 hPa 0,0 mm 0,0 km/h (0 Bft) S 190 ° 0 min 0,000 mm 0,0 UV-I 0 W/m² 2,8 °C 4,8 °C 0,0 km/h (0 Bft)
17.04.2019 05:43 4,8 °C 87 % 1019,1 hPa 0,0 mm 0,0 km/h (0 Bft) S 190 ° 0 min 0,000 mm 0,0 UV-I 0 W/m² 2,8 °C 4,8 °C 0,0 km/h (0 Bft)
17.04.2019 05:44 4,8 °C 88 % 1019,1 hPa 0,0 mm 0,0 km/h (0 Bft) S 190 ° 0 min 0,000 mm 0,0 UV-I 0 W/m² 3,0 °C 4,8 °C 0,0 km/h (0 Bft)
17.04.2019 05:45 4,7 °C 88 % 1019,1 hPa 0,0 mm 0,0 km/h (0 Bft) S 190 ° 0 min 0,000 mm 0,0 UV-I 0 W/m² 2,9 °C 4,7 °C 0,0 km/h (0 Bft)
17.04.2019 05:46 4,8 °C 88 % 1019,1 hPa 0,0 mm 0,0 km/h (0 Bft) S 190 ° 0 min 0,000 mm 0,0 UV-I 0 W/m² 3,0 °C 4,8 °C 0,0 km/h (0 Bft)
17.04.2019 05:47 4,9 °C 88 % 1019,1 hPa 0,0 mm 0,0 km/h (0 Bft) S 190 ° 0 min 0,000 mm 0,0 UV-I 0 W/m² 3,1 °C 4,9 °C 0,0 km/h (0 Bft)
17.04.2019 05:48 4,9 °C 88 % 1019,1 hPa 0,0 mm 0,0 km/h (0 Bft) S 190 ° 0 min 0,000 mm 0,0 UV-I 0 W/m² 3,1 °C 4,9 °C 0,0 km/h (0 Bft)
17.04.2019 05:49 5,0 °C 88 % 1019,1 hPa 0,0 mm 3,3 km/h (1 Bft) S-SW 204 ° 0 min 0,000 mm 0,0 UV-I 0 W/m² 3,2 °C 5,0 °C 4,8 km/h (1 Bft)
17.04.2019 05:50 5,1 °C 88 % 1019,1 hPa 0,0 mm 3,1 km/h (1 Bft) S-SW 213 ° 0 min 0,000 mm 0,0 UV-I 0 W/m² 3,3 °C 5,1 °C 8,0 km/h (2 Bft)
17.04.2019 05:51 5,1 °C 87 % 1019,2 hPa 0,0 mm 5,5 km/h (1 Bft) S-SW 192 ° 0 min 0,000 mm 0,0 UV-I 0 W/m² 3,1 °C 4,0 °C 8,0 km/h (2 Bft)
17.04.2019 05:52 5,2 °C 87 % 1019,2 hPa 0,0 mm 5,5 km/h (1 Bft) S-SW 194 ° 0 min 0,000 mm 0,0 UV-I 0 W/m² 3,2 °C 4,1 °C 11,3 km/h (2 Bft)
17.04.2019 05:53 5,2 °C 87 % 1019,2 hPa 0,0 mm 6,5 km/h (2 Bft) S 180 ° 0 min 0,000 mm 0,0 UV-I 0 W/m² 3,2 °C 3,8 °C 11,3 km/h (2 Bft)
17.04.2019 05:54 5,2 °C 87 % 1019,2 hPa 0,0 mm 3,3 km/h (1 Bft) S 180 ° 0 min 0,000 mm 0,0 UV-I 0 W/m² 3,2 °C 5,2 °C 8,0 km/h (2 Bft)
17.04.2019 05:55 5,2 °C 87 % 1019,2 hPa 0,0 mm 0,0 km/h (0 Bft) S-SW 195 ° 0 min 0,000 mm 0,0 UV-I 0 W/m² 3,2 °C 5,2 °C 0,0 km/h (0 Bft)
17.04.2019 05:56 5,3 °C 86 % 1019,3 hPa 0,0 mm 0,0 km/h (0 Bft) S-SW 195 ° 0 min 0,000 mm 0,0 UV-I 0 W/m² 3,2 °C 5,3 °C 0,0 km/h (0 Bft)
17.04.2019 05:57 5,3 °C 86 % 1019,3 hPa 0,0 mm 0,0 km/h (0 Bft) S-SW 192 ° 0 min 0,000 mm 0,0 UV-I 0 W/m² 3,2 °C 5,3 °C 0,0 km/h (0 Bft)
17.04.2019 05:58 5,2 °C 86 % 1019,3 hPa 0,0 mm 0,0 km/h (0 Bft) S-SW 192 ° 0 min 0,000 mm 0,0 UV-I 0 W/m² 3,1 °C 5,2 °C 0,0 km/h (0 Bft)
17.04.2019 05:59 5,2 °C 86 % 1019,2 hPa 0,0 mm 4,5 km/h (1 Bft) S 175 ° 0 min 0,000 mm 0,0 UV-I 0 W/m² 3,1 °C 5,2 °C 9,7 km/h (2 Bft)
17.04.2019 06:00 5,2 °C 86 % 1019,2 hPa 0,0 mm 3,5 km/h (1 Bft) SO 126 ° 0 min 0,000 mm 0,0 UV-I 0 W/m² 3,1 °C 5,2 °C 9,7 km/h (2 Bft)
17.04.2019 06:01 5,2 °C 86 % 1019,2 hPa 0,0 mm 2,5 km/h (1 Bft) SO 126 ° 0 min 0,000 mm 0,0 UV-I 0 W/m² 3,1 °C 5,2 °C 4,8 km/h (1 Bft)
17.04.2019 06:02 5,2 °C 86 % 1019,2 hPa 0,0 mm 3,5 km/h (1 Bft) S 185 ° 0 min 0,000 mm 0,0 UV-I 0 W/m² 3,1 °C 5,2 °C 4,8 km/h (1 Bft)
17.04.2019 06:03 5,2 °C 86 % 1019,2 hPa 0,0 mm 1,7 km/h (1 Bft) S 185 ° 0 min 0,000 mm 0,0 UV-I 0 W/m² 3,1 °C 5,2 °C 3,2 km/h (1 Bft)
17.04.2019 06:04 5,2 °C 86 % 1019,2 hPa 0,0 mm 0,0 km/h (0 Bft) S 185 ° 0 min 0,000 mm 0,0 UV-I 0 W/m² 3,1 °C 5,2 °C 0,0 km/h (0 Bft)
17.04.2019 06:05 5,2 °C 86 % 1019,2 hPa 0,0 mm 0,0 km/h (0 Bft) S 185 ° 0 min 0,000 mm 0,0 UV-I 0 W/m² 3,1 °C 5,2 °C 0,0 km/h (0 Bft)
17.04.2019 06:06 5,2 °C 86 % 1019,2 hPa 0,0 mm 0,0 km/h (0 Bft) S 185 ° 0 min 0,000 mm 0,0 UV-I 0 W/m² 3,1 °C 5,2 °C 0,0 km/h (0 Bft)
17.04.2019 06:07 5,2 °C 86 % 1019,3 hPa 0,0 mm 1,7 km/h (1 Bft) S-SW 210 ° 0 min 0,000 mm 0,0 UV-I 0 W/m² 3,1 °C 5,2 °C 4,8 km/h (1 Bft)
17.04.2019 06:08 5,2 °C 86 % 1019,3 hPa 0,0 mm 1,5 km/h (1 Bft) S-SW 210 ° 0 min 0,000 mm 0,0 UV-I 0 W/m² 3,1 °C 5,2 °C 4,8 km/h (1 Bft)
17.04.2019 06:09 5,2 °C 86 % 1019,2 hPa 0,0 mm 2,2 km/h (1 Bft) SO 144 ° 0 min 0,000 mm 0,0 UV-I 0 W/m² 3,1 °C 5,2 °C 4,8 km/h (1 Bft)
17.04.2019 06:10 5,3 °C 86 % 1019,2 hPa 0,0 mm 1,2 km/h (1 Bft) S-SW 194 ° 0 min 0,000 mm 0,0 UV-I 0 W/m² 3,2 °C 5,3 °C 4,8 km/h (1 Bft)
17.04.2019 06:11 5,2 °C 86 % 1019,2 hPa 0,0 mm 0,3 km/h (0 Bft) S-SW 194 ° 0 min 0,000 mm 0,0 UV-I 0 W/m² 3,1 °C 5,2 °C 1,6 km/h (1 Bft)
17.04.2019 06:12 5,2 °C 86 % 1019,2 hPa 0,0 mm 0,0 km/h (0 Bft) S-SW 194 ° 0 min 0,000 mm 0,0 UV-I 0 W/m² 3,1 °C 5,2 °C 0,0 km/h (0 Bft)
17.04.2019 06:13 5,2 °C 86 % 1019,2 hPa 0,0 mm 0,0 km/h (0 Bft) S-SW 194 ° 0 min 0,000 mm 0,0 UV-I 0 W/m² 3,1 °C 5,2 °C 0,0 km/h (0 Bft)
17.04.2019 06:14 5,3 °C 86 % 1019,2 hPa 0,0 mm 1,7 km/h (1 Bft) S-SW 201 ° 0 min 0,000 mm 0,0 UV-I 0 W/m² 3,2 °C 5,3 °C 3,2 km/h (1 Bft)
17.04.2019 06:15 5,3 °C 86 % 1019,3 hPa 0,0 mm 0,1 km/h (0 Bft) S-SW 201 ° 0 min 0,000 mm 0,0 UV-I 0 W/m² 3,2 °C 5,3 °C 1,6 km/h (1 Bft)
17.04.2019 06:16 5,3 °C 86 % 1019,3 hPa 0,0 mm 0,0 km/h (0 Bft) S-SW 201 ° 0 min 0,000 mm 0,0 UV-I 0 W/m² 3,2 °C 5,3 °C 0,0 km/h (0 Bft)
17.04.2019 06:17 5,3 °C 86 % 1019,3 hPa 0,0 mm 0,0 km/h (0 Bft) S-SW 201 ° 0 min 0,000 mm 0,0 UV-I 0 W/m² 3,2 °C 5,3 °C 0,0 km/h (0 Bft)
17.04.2019 06:18 5,3 °C 86 % 1019,3 hPa 0,0 mm 0,0 km/h (0 Bft) S-SW 201 ° 0 min 0,000 mm 0,0 UV-I 0 W/m² 3,2 °C 5,3 °C 0,0 km/h (0 Bft)
17.04.2019 06:19 5,3 °C 86 % 1019,3 hPa 0,0 mm 0,0 km/h (0 Bft) S-SW 201 ° 0 min 0,000 mm 0,0 UV-I 5 W/m² 3,2 °C 5,3 °C 0,0 km/h (0 Bft)
17.04.2019 06:20 5,3 °C 87 % 1019,3 hPa 0,0 mm 0,0 km/h (0 Bft) S-SW 200 ° 0 min 0,000 mm 0,0 UV-I 5 W/m² 3,3 °C 5,3 °C 0,0 km/h (0 Bft)
17.04.2019 06:21 5,3 °C 87 % 1019,3 hPa 0,0 mm 0,0 km/h (0 Bft) S-SW 200 ° 0 min 0,000 mm 0,0 UV-I 5 W/m² 3,3 °C 5,3 °C 0,0 km/h (0 Bft)
17.04.2019 06:22 5,3 °C 87 % 1019,3 hPa 0,0 mm 0,0 km/h (0 Bft) S-SW 200 ° 0 min 0,000 mm 0,0 UV-I 5 W/m² 3,3 °C 5,3 °C 0,0 km/h (0 Bft)
17.04.2019 06:23 5,3 °C 87 % 1019,3 hPa 0,0 mm 0,0 km/h (0 Bft) S-SW 200 ° 0 min 0,000 mm 0,0 UV-I 7 W/m² 3,3 °C 5,3 °C 0,0 km/h (0 Bft)
17.04.2019 06:24 5,3 °C 87 % 1019,4 hPa 0,0 mm 0,0 km/h (0 Bft) S-SW 200 ° 0 min 0,000 mm 0,0 UV-I 7 W/m² 3,3 °C 5,3 °C 0,0 km/h (0 Bft)
17.04.2019 06:25 5,3 °C 87 % 1019,4 hPa 0,0 mm 0,0 km/h (0 Bft) S-SW 200 ° 0 min 0,000 mm 0,0 UV-I 7 W/m² 3,3 °C 5,3 °C 0,0 km/h (0 Bft)
17.04.2019 06:26 5,2 °C 87 % 1019,4 hPa 0,0 mm 0,0 km/h (0 Bft) S-SW 200 ° 0 min 0,000 mm 0,0 UV-I 7 W/m² 3,2 °C 5,2 °C 0,0 km/h (0 Bft)
17.04.2019 06:27 5,2 °C 87 % 1019,4 hPa 0,0 mm 0,0 km/h (0 Bft) S-SW 200 ° 0 min 0,000 mm 0,0 UV-I 7 W/m² 3,2 °C 5,2 °C 0,0 km/h (0 Bft)
17.04.2019 06:28 5,2 °C 87 % 1019,4 hPa 0,0 mm 0,0 km/h (0 Bft) S-SW 200 ° 0 min 0,000 mm 0,0 UV-I 7 W/m² 3,2 °C 5,2 °C 0,0 km/h (0 Bft)
17.04.2019 06:29 5,2 °C 87 % 1019,4 hPa 0,0 mm 0,0 km/h (0 Bft) S-SW 200 ° 0 min 0,000 mm 0,0 UV-I 7 W/m² 3,2 °C 5,2 °C 0,0 km/h (0 Bft)
17.04.2019 06:30 5,2 °C 87 % 1019,4 hPa 0,0 mm 0,9 km/h (0 Bft) S 190 ° 0 min 0,000 mm 0,0 UV-I 9 W/m² 3,2 °C 5,2 °C 3,2 km/h (1 Bft)
17.04.2019 06:31 5,2 °C 87 % 1019,4 hPa 0,0 mm 0,1 km/h (0 Bft) S 190 ° 0 min 0,000 mm 0,0 UV-I 9 W/m² 3,2 °C 5,2 °C 1,6 km/h (1 Bft)
17.04.2019 06:32 5,2 °C 87 % 1019,4 hPa 0,0 mm 0,0 km/h (0 Bft) S 190 ° 0 min 0,000 mm 0,0 UV-I 11 W/m² 3,2 °C 5,2 °C 0,0 km/h (0 Bft)
17.04.2019 06:33 5,2 °C 87 % 1019,5 hPa 0,0 mm 0,0 km/h (0 Bft) S 190 ° 0 min 0,000 mm 0,0 UV-I 11 W/m² 3,2 °C 5,2 °C 0,0 km/h (0 Bft)
17.04.2019 06:34 5,2 °C 87 % 1019,5 hPa 0,0 mm 0,0 km/h (0 Bft) S-SW 192 ° 0 min 0,000 mm 0,0 UV-I 12 W/m² 3,2 °C 5,2 °C 0,0 km/h (0 Bft)
17.04.2019 06:35 5,2 °C 87 % 1019,5 hPa 0,0 mm 0,0 km/h (0 Bft) S-SW 192 ° 0 min 0,000 mm 0,0 UV-I 12 W/m² 3,2 °C 5,2 °C 0,0 km/h (0 Bft)
17.04.2019 06:36 5,2 °C 87 % 1019,5 hPa 0,0 mm 0,0 km/h (0 Bft) S-SW 192 ° 0 min 0,000 mm 0,0 UV-I 14 W/m² 3,2 °C 5,2 °C 0,0 km/h (0 Bft)
17.04.2019 06:37 5,1 °C 87 % 1019,5 hPa 0,0 mm 0,0 km/h (0 Bft) S-SW 192 ° 0 min 0,000 mm 0,0 UV-I 14 W/m² 3,1 °C 5,1 °C 0,0 km/h (0 Bft)
17.04.2019 06:38 5,0 °C 87 % 1019,4 hPa 0,0 mm 0,0 km/h (0 Bft) S-SW 192 ° 0 min 0,000 mm 0,0 UV-I 16 W/m² 3,0 °C 5,0 °C 0,0 km/h (0 Bft)
17.04.2019 06:39 4,9 °C 87 % 1019,5 hPa 0,0 mm 0,0 km/h (0 Bft) S-SW 192 ° 0 min 0,000 mm 0,0 UV-I 16 W/m² 2,9 °C 4,9 °C 0,0 km/h (0 Bft)
17.04.2019 06:40 4,8 °C 87 % 1019,5 hPa 0,0 mm 0,0 km/h (0 Bft) S-SW 192 ° 0 min 0,000 mm 0,0 UV-I 18 W/m² 2,8 °C 4,8 °C 0,0 km/h (0 Bft)
17.04.2019 06:41 4,8 °C 87 % 1019,5 hPa 0,0 mm 0,0 km/h (0 Bft) S-SW 192 ° 0 min 0,000 mm 0,0 UV-I 18 W/m² 2,8 °C 4,8 °C 0,0 km/h (0 Bft)
17.04.2019 06:42 4,7 °C 88 % 1019,5 hPa 0,0 mm 0,0 km/h (0 Bft) S-SW 192 ° 0 min 0,000 mm 0,0 UV-I 18 W/m² 2,9 °C 4,7 °C 0,0 km/h (0 Bft)
17.04.2019 06:43 4,7 °C 88 % 1019,5 hPa 0,0 mm 0,0 km/h (0 Bft) S-SW 192 ° 0 min 0,000 mm 0,0 UV-I 19 W/m² 2,9 °C 4,7 °C 0,0 km/h (0 Bft)
17.04.2019 06:44 4,7 °C 88 % 1019,5 hPa 0,0 mm 0,0 km/h (0 Bft) S-SW 192 ° 0 min 0,000 mm 0,0 UV-I 19 W/m² 2,9 °C 4,7 °C 0,0 km/h (0 Bft)
17.04.2019 06:45 4,7 °C 88 % 1019,5 hPa 0,0 mm 0,0 km/h (0 Bft) S-SW 192 ° 0 min 0,000 mm 0,0 UV-I 21 W/m² 2,9 °C 4,7 °C 0,0 km/h (0 Bft)
17.04.2019 06:46 4,6 °C 88 % 1019,5 hPa 0,0 mm 0,0 km/h (0 Bft) S-SW 192 ° 0 min 0,000 mm 0,0 UV-I 21 W/m² 2,8 °C 4,6 °C 0,0 km/h (0 Bft)
17.04.2019 06:47 4,6 °C 88 % 1019,5 hPa 0,0 mm 0,0 km/h (0 Bft) S-SW 192 ° 0 min 0,000 mm 0,0 UV-I 23 W/m² 2,8 °C 4,6 °C 0,0 km/h (0 Bft)
17.04.2019 06:48 4,6 °C 88 % 1019,5 hPa 0,0 mm 0,0 km/h (0 Bft) S-SW 192 ° 0 min 0,000 mm 0,0 UV-I 25 W/m² 2,8 °C 4,6 °C 0,0 km/h (0 Bft)
17.04.2019 06:49 4,7 °C 88 % 1019,5 hPa 0,0 mm 0,0 km/h (0 Bft) S-SW 192 ° 0 min 0,000 mm 0,0 UV-I 25 W/m² 2,9 °C 4,7 °C 0,0 km/h (0 Bft)
17.04.2019 06:50 4,7 °C 89 % 1019,5 hPa 0,0 mm 0,0 km/h (0 Bft) S-SW 192 ° 0 min 0,000 mm 0,0 UV-I 26 W/m² 3,0 °C 4,7 °C 0,0 km/h (0 Bft)
17.04.2019 06:51 4,8 °C 89 % 1019,5 hPa 0,0 mm 0,0 km/h (0 Bft) S-SW 192 ° 0 min 0,000 mm 0,0 UV-I 26 W/m² 3,1 °C 4,8 °C 0,0 km/h (0 Bft)
17.04.2019 06:52 4,8 °C 89 % 1019,4 hPa 0,0 mm 0,0 km/h (0 Bft) S-SW 193 ° 0 min 0,000 mm 0,0 UV-I 26 W/m² 3,1 °C 4,8 °C 0,0 km/h (0 Bft)
17.04.2019 06:53 4,8 °C 88 % 1019,5 hPa 0,0 mm 1,2 km/h (1 Bft) S-SW 194 ° 0 min 0,000 mm 0,0 UV-I 26 W/m² 3,0 °C 4,8 °C 3,2 km/h (1 Bft)
17.04.2019 06:54 4,8 °C 88 % 1019,5 hPa 0,0 mm 2,7 km/h (1 Bft) S-SW 205 ° 0 min 0,000 mm 0,0 UV-I 26 W/m² 3,0 °C 4,8 °C 6,4 km/h (2 Bft)
17.04.2019 06:55 4,9 °C 88 % 1019,5 hPa 0,0 mm 4,2 km/h (1 Bft) S-SW 197 ° 0 min 0,000 mm 0,0 UV-I 28 W/m² 3,1 °C 4,9 °C 8,0 km/h (2 Bft)
17.04.2019 06:56 4,9 °C 88 % 1019,5 hPa 0,0 mm 5,5 km/h (1 Bft) S-SW 201 ° 0 min 0,000 mm 0,0 UV-I 28 W/m² 3,1 °C 3,8 °C 8,0 km/h (2 Bft)
17.04.2019 06:57 5,0 °C 88 % 1019,4 hPa 0,0 mm 7,1 km/h (2 Bft) SW 232 ° 0 min 0,000 mm 0,0 UV-I 30 W/m² 3,2 °C 3,4 °C 8,0 km/h (2 Bft)
17.04.2019 06:58 5,1 °C 88 % 1019,5 hPa 0,0 mm 3,6 km/h (1 Bft) S-SW 206 ° 0 min 0,000 mm 0,0 UV-I 32 W/m² 3,3 °C 5,1 °C 6,4 km/h (2 Bft)
17.04.2019 06:59 5,1 °C 88 % 1019,4 hPa 0,0 mm 3,4 km/h (1 Bft) S-SW 199 ° 0 min 0,000 mm 0,0 UV-I 32 W/m² 3,3 °C 5,1 °C 6,4 km/h (2 Bft)
17.04.2019 07:00 5,2 °C 88 % 1019,5 hPa 0,0 mm 3,6 km/h (1 Bft) S-SW 207 ° 0 min 0,000 mm 0,0 UV-I 33 W/m² 3,4 °C 5,2 °C 6,4 km/h (2 Bft)
17.04.2019 07:01 5,3 °C 88 % 1019,4 hPa 0,0 mm 6,2 km/h (2 Bft) S-SW 205 ° 0 min 0,000 mm 0,0 UV-I 35 W/m² 3,5 °C 4,0 °C 9,7 km/h (2 Bft)
17.04.2019 07:02 5,4 °C 87 % 1019,4 hPa 0,0 mm 6,7 km/h (2 Bft) S-SW 201 ° 0 min 0,000 mm 0,0 UV-I 37 W/m² 3,4 °C 4,0 °C 9,7 km/h (2 Bft)
17.04.2019 07:03 5,5 °C 87 % 1019,5 hPa 0,0 mm 6,7 km/h (2 Bft) S-SW 212 ° 0 min 0,000 mm 0,0 UV-I 37 W/m² 3,5 °C 4,1 °C 9,7 km/h (2 Bft)
17.04.2019 07:04 5,6 °C 86 % 1019,5 hPa 0,0 mm 8,5 km/h (2 Bft) S-SW 203 ° 0 min 0,000 mm 0,0 UV-I 39 W/m² 3,4 °C 3,7 °C 9,7 km/h (2 Bft)
17.04.2019 07:05 5,6 °C 86 % 1019,5 hPa 0,0 mm 5,6 km/h (1 Bft) S-SW 192 ° 0 min 0,000 mm 0,0 UV-I 40 W/m² 3,4 °C 4,5 °C 9,7 km/h (2 Bft)
17.04.2019 07:06 5,6 °C 86 % 1019,5 hPa 0,0 mm 1,4 km/h (1 Bft) S 169 ° 0 min 0,000 mm 0,0 UV-I 42 W/m² 3,4 °C 5,6 °C 3,2 km/h (1 Bft)
17.04.2019 07:07 5,6 °C 86 % 1019,6 hPa 0,0 mm 0,7 km/h (0 Bft) S-SO 165 ° 0 min 0,000 mm 0,0 UV-I 44 W/m² 3,4 °C 5,6 °C 3,2 km/h (1 Bft)
17.04.2019 07:08 5,6 °C 86 % 1019,6 hPa 0,0 mm 0,0 km/h (0 Bft) S-SO 165 ° 0 min 0,000 mm 0,0 UV-I 44 W/m² 3,4 °C 5,6 °C 0,0 km/h (0 Bft)
17.04.2019 07:09 5,6 °C 86 % 1019,6 hPa 0,0 mm 1,3 km/h (1 Bft) S 191 ° 0 min 0,000 mm 0,0 UV-I 44 W/m² 3,4 °C 5,6 °C 3,2 km/h (1 Bft)
17.04.2019 07:10 5,6 °C 86 % 1019,6 hPa 0,0 mm 0,0 km/h (0 Bft) S-SW 192 ° 0 min 0,000 mm 0,0 UV-I 46 W/m² 3,4 °C 5,6 °C 0,0 km/h (0 Bft)
17.04.2019 07:11 5,6 °C 86 % 1019,7 hPa 0,0 mm 0,0 km/h (0 Bft) S-SW 192 ° 0 min 0,000 mm 0,0 UV-I 46 W/m² 3,4 °C 5,6 °C 0,0 km/h (0 Bft)
17.04.2019 07:12 5,6 °C 85 % 1019,6 hPa 0,0 mm 3,4 km/h (1 Bft) S 188 ° 0 min 0,000 mm 0,0 UV-I 47 W/m² 3,3 °C 5,6 °C 6,4 km/h (2 Bft)
17.04.2019 07:13 5,7 °C 85 % 1019,6 hPa 0,0 mm 6,8 km/h (2 Bft) S 184 ° 0 min 0,000 mm 0,0 UV-I 47 W/m² 3,4 °C 4,3 °C 8,0 km/h (2 Bft)
17.04.2019 07:14 5,7 °C 86 % 1019,6 hPa 0,0 mm 4,8 km/h (1 Bft) S-SW 202 ° 0 min 0,000 mm 0,0 UV-I 47 W/m² 3,5 °C 5,0 °C 6,4 km/h (2 Bft)
17.04.2019 07:15 5,7 °C 85 % 1019,6 hPa 0,0 mm 5,6 km/h (1 Bft) S-SW 199 ° 0 min 0,000 mm 0,0 UV-I 49 W/m² 3,4 °C 4,7 °C 8,0 km/h (2 Bft)
17.04.2019 07:16 5,7 °C 85 % 1019,6 hPa 0,0 mm 4,2 km/h (1 Bft) S-SW 203 ° 0 min 0,000 mm 0,0 UV-I 49 W/m² 3,4 °C 5,7 °C 6,4 km/h (2 Bft)
17.04.2019 07:17 5,7 °C 85 % 1019,5 hPa 0,0 mm 4,8 km/h (1 Bft) S-SW 209 ° 0 min 0,000 mm 0,0 UV-I 49 W/m² 3,4 °C 5,0 °C 8,0 km/h (2 Bft)
17.04.2019 07:18 5,7 °C 85 % 1019,5 hPa 0,0 mm 3,8 km/h (1 Bft) S-SW 196 ° 0 min 0,000 mm 0,0 UV-I 49 W/m² 3,4 °C 5,7 °C 6,4 km/h (2 Bft)
17.04.2019 07:19 5,7 °C 85 % 1019,6 hPa 0,0 mm 0,1 km/h (0 Bft) S-SW 196 ° 0 min 0,000 mm 0,0 UV-I 49 W/m² 3,4 °C 5,7 °C 1,6 km/h (1 Bft)
17.04.2019 07:20 5,7 °C 86 % 1019,6 hPa 0,0 mm 1,4 km/h (1 Bft) S-SW 198 ° 0 min 0,000 mm 0,0 UV-I 49 W/m² 3,5 °C 5,7 °C 4,8 km/h (1 Bft)
17.04.2019 07:21 5,7 °C 86 % 1019,6 hPa 0,0 mm 3,1 km/h (1 Bft) S-SW 192 ° 0 min 0,000 mm 0,0 UV-I 51 W/m² 3,5 °C 5,7 °C 6,4 km/h (2 Bft)
17.04.2019 07:22 5,7 °C 85 % 1019,5 hPa 0,0 mm 3,7 km/h (1 Bft) S-SW 212 ° 0 min 0,000 mm 0,0 UV-I 51 W/m² 3,4 °C 5,7 °C 4,8 km/h (1 Bft)
17.04.2019 07:23 5,7 °C 86 % 1019,6 hPa 0,0 mm 5,2 km/h (1 Bft) SW 214 ° 0 min 0,000 mm 0,0 UV-I 53 W/m² 3,5 °C 4,8 °C 6,4 km/h (2 Bft)
17.04.2019 07:24 5,7 °C 86 % 1019,6 hPa 0,0 mm 4,0 km/h (1 Bft) S-SW 207 ° 0 min 0,000 mm 0,0 UV-I 54 W/m² 3,5 °C 5,7 °C 6,4 km/h (2 Bft)
17.04.2019 07:25 5,7 °C 86 % 1019,6 hPa 0,0 mm 1,1 km/h (1 Bft) S-SW 207 ° 0 min 0,000 mm 0,0 UV-I 54 W/m² 3,5 °C 5,7 °C 3,2 km/h (1 Bft)
17.04.2019 07:26 5,7 °C 86 % 1019,6 hPa 0,0 mm 0,0 km/h (0 Bft) S-SW 207 ° 0 min 0,000 mm 0,0 UV-I 56 W/m² 3,5 °C 5,7 °C 0,0 km/h (0 Bft)
17.04.2019 07:27 5,7 °C 86 % 1019,6 hPa 0,0 mm 0,0 km/h (0 Bft) S-SW 207 ° 0 min 0,000 mm 0,0 UV-I 56 W/m² 3,5 °C 5,7 °C 0,0 km/h (0 Bft)
17.04.2019 07:28 5,7 °C 86 % 1019,6 hPa 0,0 mm 0,0 km/h (0 Bft) S-SW 207 ° 0 min 0,000 mm 0,0 UV-I 56 W/m² 3,5 °C 5,7 °C 0,0 km/h (0 Bft)
17.04.2019 07:29 5,8 °C 86 % 1019,6 hPa 0,0 mm 0,0 km/h (0 Bft) S-SW 207 ° 0 min 0,000 mm 0,0 UV-I 56 W/m² 3,6 °C 5,8 °C 0,0 km/h (0 Bft)
17.04.2019 07:30 5,7 °C 86 % 1019,7 hPa 0,0 mm 0,0 km/h (0 Bft) S-SW 208 ° 0 min 0,000 mm 0,0 UV-I 56 W/m² 3,5 °C 5,7 °C 0,0 km/h (0 Bft)
17.04.2019 07:31 5,7 °C 86 % 1019,6 hPa 0,0 mm 0,0 km/h (0 Bft) S-SW 208 ° 0 min 0,000 mm 0,0 UV-I 56 W/m² 3,5 °C 5,7 °C 0,0 km/h (0 Bft)
17.04.2019 07:32 5,8 °C 86 % 1019,6 hPa 0,0 mm 0,0 km/h (0 Bft) S-SW 208 ° 0 min 0,000 mm 0,0 UV-I 58 W/m² 3,6 °C 5,8 °C 0,0 km/h (0 Bft)
17.04.2019 07:33 5,8 °C 86 % 1019,7 hPa 0,0 mm 0,0 km/h (0 Bft) S-SW 208 ° 0 min 0,000 mm 0,0 UV-I 60 W/m² 3,6 °C 5,8 °C 0,0 km/h (0 Bft)
17.04.2019 07:34 5,8 °C 86 % 1019,7 hPa 0,0 mm 0,0 km/h (0 Bft) S-SW 208 ° 0 min 0,000 mm 0,0 UV-I 62 W/m² 3,6 °C 5,8 °C 0,0 km/h (0 Bft)
17.04.2019 07:35 5,9 °C 86 % 1019,6 hPa 0,0 mm 0,0 km/h (0 Bft) S-SW 208 ° 0 min 0,000 mm 0,0 UV-I 62 W/m² 3,7 °C 5,9 °C 0,0 km/h (0 Bft)
17.04.2019 07:36 5,9 °C 85 % 1019,7 hPa 0,0 mm 0,0 km/h (0 Bft) S-SW 208 ° 0 min 0,000 mm 0,0 UV-I 62 W/m² 3,6 °C 5,9 °C 0,0 km/h (0 Bft)
17.04.2019 07:37 5,9 °C 85 % 1019,7 hPa 0,0 mm 0,0 km/h (0 Bft) S-SW 208 ° 0 min 0,000 mm 0,0 UV-I 63 W/m² 3,6 °C 5,9 °C 0,0 km/h (0 Bft)
17.04.2019 07:38 6,0 °C 85 % 1019,6 hPa 0,0 mm 0,0 km/h (0 Bft) S-SW 208 ° 0 min 0,000 mm 0,0 UV-I 65 W/m² 3,7 °C 6,0 °C 0,0 km/h (0 Bft)
17.04.2019 07:39 6,0 °C 85 % 1019,6 hPa 0,0 mm 0,0 km/h (0 Bft) S-SW 208 ° 0 min 0,000 mm 0,5 UV-I 69 W/m² 3,7 °C 6,0 °C 0,0 km/h (0 Bft)
17.04.2019 07:40 6,0 °C 85 % 1019,6 hPa 0,0 mm 0,0 km/h (0 Bft) S-SW 207 ° 0 min 0,000 mm 0,5 UV-I 77 W/m² 3,7 °C 6,0 °C 0,0 km/h (0 Bft)
17.04.2019 07:41 6,0 °C 85 % 1019,7 hPa 0,0 mm 0,0 km/h (0 Bft) S-SW 206 ° 0 min 0,000 mm 0,5 UV-I 60 W/m² 3,7 °C 6,0 °C 0,0 km/h (0 Bft)
17.04.2019 07:42 6,0 °C 85 % 1019,7 hPa 0,0 mm 1,0 km/h (0 Bft) S-SW 206 ° 0 min 0,000 mm 0,5 UV-I 70 W/m² 3,7 °C 6,0 °C 3,2 km/h (1 Bft)
17.04.2019 07:43 6,0 °C 85 % 1019,7 hPa 0,0 mm 0,0 km/h (0 Bft) S-SW 205 ° 0 min 0,000 mm 0,5 UV-I 83 W/m² 3,7 °C 6,0 °C 0,0 km/h (0 Bft)
17.04.2019 07:44 6,0 °C 85 % 1019,6 hPa 0,0 mm 0,0 km/h (0 Bft) S-SW 206 ° 0 min 0,000 mm 0,5 UV-I 93 W/m² 3,7 °C 6,0 °C 0,0 km/h (0 Bft)
17.04.2019 07:45 6,0 °C 85 % 1019,7 hPa 0,0 mm 0,0 km/h (0 Bft) S-SW 206 ° 0 min 0,000 mm 0,5 UV-I 95 W/m² 3,7 °C 6,0 °C 0,0 km/h (0 Bft)
17.04.2019 07:46 5,9 °C 85 % 1019,7 hPa 0,0 mm 0,0 km/h (0 Bft) S-SW 206 ° 0 min 0,000 mm 0,5 UV-I 98 W/m² 3,6 °C 5,9 °C 0,0 km/h (0 Bft)
17.04.2019 07:47 5,9 °C 85 % 1019,7 hPa 0,0 mm 0,0 km/h (0 Bft) S-SW 206 ° 0 min 0,000 mm 0,5 UV-I 88 W/m² 3,6 °C 5,9 °C 0,0 km/h (0 Bft)
17.04.2019 07:48 5,9 °C 85 % 1019,7 hPa 0,0 mm 0,0 km/h (0 Bft) S-SW 206 ° 0 min 0,000 mm 0,5 UV-I 90 W/m² 3,6 °C 5,9 °C 0,0 km/h (0 Bft)
17.04.2019 07:49 6,0 °C 85 % 1019,7 hPa 0,0 mm 0,0 km/h (0 Bft) S-SW 206 ° 0 min 0,000 mm 0,5 UV-I 74 W/m² 3,7 °C 6,0 °C 0,0 km/h (0 Bft)
17.04.2019 07:50 6,1 °C 85 % 1019,7 hPa 0,0 mm 0,0 km/h (0 Bft) S-SW 206 ° 0 min 0,000 mm 0,6 UV-I 70 W/m² 3,8 °C 6,1 °C 0,0 km/h (0 Bft)
17.04.2019 07:51 6,1 °C 85 % 1019,7 hPa 0,0 mm 0,0 km/h (0 Bft) S-SW 206 ° 0 min 0,000 mm 0,6 UV-I 67 W/m² 3,8 °C 6,1 °C 0,0 km/h (0 Bft)
17.04.2019 07:52 6,1 °C 86 % 1019,7 hPa 0,0 mm 0,0 km/h (0 Bft) S-SW 206 ° 0 min 0,000 mm 0,6 UV-I 69 W/m² 3,9 °C 6,1 °C 0,0 km/h (0 Bft)
17.04.2019 07:53 6,1 °C 86 % 1019,7 hPa 0,0 mm 0,0 km/h (0 Bft) S-SW 206 ° 0 min 0,000 mm 0,6 UV-I 97 W/m² 3,9 °C 6,1 °C 0,0 km/h (0 Bft)
17.04.2019 07:54 6,1 °C 86 % 1019,7 hPa 0,0 mm 0,0 km/h (0 Bft) S-SW 206 ° 0 min 0,000 mm 0,6 UV-I 97 W/m² 3,9 °C 6,1 °C 0,0 km/h (0 Bft)
17.04.2019 07:55 6,1 °C 86 % 1019,6 hPa 0,0 mm 0,0 km/h (0 Bft) S-SW 206 ° 0 min 0,000 mm 0,6 UV-I 107 W/m² 3,9 °C 6,1 °C 0,0 km/h (0 Bft)
17.04.2019 07:56 6,1 °C 86 % 1019,7 hPa 0,0 mm 0,0 km/h (0 Bft) S-SW 206 ° 0 min 0,000 mm 0,6 UV-I 118 W/m² 3,9 °C 6,1 °C 0,0 km/h (0 Bft)
17.04.2019 07:57 6,1 °C 86 % 1019,7 hPa 0,0 mm 0,0 km/h (0 Bft) S-SW 206 ° 0 min 0,000 mm 0,6 UV-I 151 W/m² 3,9 °C 6,1 °C 0,0 km/h (0 Bft)
17.04.2019 07:58 6,0 °C 86 % 1019,7 hPa 0,0 mm 2,2 km/h (1 Bft) S-SW 213 ° 0 min 0,000 mm 0,7 UV-I 151 W/m² 3,8 °C 6,0 °C 4,8 km/h (1 Bft)
17.04.2019 07:59 6,1 °C 86 % 1019,7 hPa 0,0 mm 0,1 km/h (0 Bft) S-SW 213 ° 0 min 0,000 mm 0,7 UV-I 158 W/m² 3,9 °C 6,1 °C 1,6 km/h (1 Bft)
17.04.2019 08:00 6,1 °C 86 % 1019,7 hPa 0,0 mm 0,0 km/h (0 Bft) S-SW 213 ° 0 min 0,000 mm 0,7 UV-I 137 W/m² 3,9 °C 6,1 °C 0,0 km/h (0 Bft)
17.04.2019 08:01 6,1 °C 86 % 1019,8 hPa 0,0 mm 0,0 km/h (0 Bft) S-SW 213 ° 0 min 0,026 mm 0,7 UV-I 148 W/m² 3,9 °C 6,1 °C 0,0 km/h (0 Bft)
17.04.2019 08:02 6,1 °C 86 % 1019,7 hPa 0,0 mm 0,0 km/h (0 Bft) S-SW 213 ° 0 min 0,000 mm 0,7 UV-I 137 W/m² 3,9 °C 6,1 °C 0,0 km/h (0 Bft)
17.04.2019 08:03 6,1 °C 86 % 1019,7 hPa 0,0 mm 0,0 km/h (0 Bft) S-SW 213 ° 0 min 0,000 mm 0,7 UV-I 107 W/m² 3,9 °C 6,1 °C 0,0 km/h (0 Bft)
17.04.2019 08:04 6,1 °C 85 % 1019,7 hPa 0,0 mm 0,0 km/h (0 Bft) S-SW 213 ° 0 min 0,000 mm 0,7 UV-I 107 W/m² 3,8 °C 6,1 °C 0,0 km/h (0 Bft)
17.04.2019 08:05 6,2 °C 85 % 1019,8 hPa 0,0 mm 0,0 km/h (0 Bft) S-SW 213 ° 0 min 0,000 mm 0,7 UV-I 153 W/m² 3,9 °C 6,2 °C 0,0 km/h (0 Bft)
17.04.2019 08:06 6,2 °C 85 % 1019,8 hPa 0,0 mm 0,0 km/h (0 Bft) S-SW 213 ° 0 min 0,000 mm 0,8 UV-I 158 W/m² 3,9 °C 6,2 °C 0,0 km/h (0 Bft)
17.04.2019 08:07 6,2 °C 85 % 1019,8 hPa 0,0 mm 0,0 km/h (0 Bft) S-SW 213 ° 0 min 0,000 mm 0,8 UV-I 165 W/m² 3,9 °C 6,2 °C 0,0 km/h (0 Bft)
17.04.2019 08:08 6,3 °C 85 % 1019,8 hPa 0,0 mm 0,0 km/h (0 Bft) S-SW 213 ° 0 min 0,000 mm 0,8 UV-I 137 W/m² 4,0 °C 6,3 °C 0,0 km/h (0 Bft)
17.04.2019 08:09 6,4 °C 86 % 1019,8 hPa 0,0 mm 0,0 km/h (0 Bft) S-SW 213 ° 0 min 0,000 mm 0,8 UV-I 111 W/m² 4,2 °C 6,4 °C 0,0 km/h (0 Bft)
17.04.2019 08:10 6,4 °C 85 % 1019,8 hPa 0,0 mm 0,0 km/h (0 Bft) S-SW 213 ° 0 min 0,000 mm 0,8 UV-I 116 W/m² 4,1 °C 6,4 °C 0,0 km/h (0 Bft)
17.04.2019 08:11 6,4 °C 85 % 1019,8 hPa 0,0 mm 0,0 km/h (0 Bft) S-SW 213 ° 0 min 0,000 mm 0,8 UV-I 102 W/m² 4,1 °C 6,4 °C 0,0 km/h (0 Bft)
17.04.2019 08:12 6,4 °C 85 % 1019,8 hPa 0,0 mm 0,0 km/h (0 Bft) S-SW 213 ° 0 min 0,000 mm 0,8 UV-I 97 W/m² 4,1 °C 6,4 °C 0,0 km/h (0 Bft)
17.04.2019 08:13 6,5 °C 85 % 1019,8 hPa 0,0 mm 0,0 km/h (0 Bft) S-SW 213 ° 0 min 0,000 mm 0,8 UV-I 98 W/m² 4,2 °C 6,5 °C 0,0 km/h (0 Bft)
17.04.2019 08:14 6,6 °C 85 % 1019,8 hPa 0,0 mm 0,0 km/h (0 Bft) S-SW 213 ° 0 min 0,000 mm 0,8 UV-I 102 W/m² 4,3 °C 6,6 °C 0,0 km/h (0 Bft)
17.04.2019 08:15 6,7 °C 86 % 1019,8 hPa 0,0 mm 0,0 km/h (0 Bft) S-SW 213 ° 0 min 0,000 mm 0,8 UV-I 102 W/m² 4,5 °C 6,7 °C 0,0 km/h (0 Bft)
17.04.2019 08:16 6,8 °C 86 % 1019,8 hPa 0,0 mm 0,0 km/h (0 Bft) S-SW 213 ° 0 min 0,000 mm 0,8 UV-I 114 W/m² 4,6 °C 6,8 °C 0,0 km/h (0 Bft)
17.04.2019 08:17 6,7 °C 85 % 1019,8 hPa 0,0 mm 0,0 km/h (0 Bft) S-SW 213 ° 0 min 0,000 mm 0,8 UV-I 104 W/m² 4,4 °C 6,7 °C 0,0 km/h (0 Bft)
17.04.2019 08:18 6,7 °C 85 % 1019,8 hPa 0,0 mm 0,0 km/h (0 Bft) S-SW 213 ° 0 min 0,000 mm 0,9 UV-I 127 W/m² 4,4 °C 6,7 °C 0,0 km/h (0 Bft)
17.04.2019 08:19 6,7 °C 85 % 1019,8 hPa 0,0 mm 0,0 km/h (0 Bft) S-SW 213 ° 0 min 0,000 mm 0,9 UV-I 165 W/m² 4,4 °C 6,7 °C 0,0 km/h (0 Bft)
17.04.2019 08:20 6,7 °C 85 % 1019,8 hPa 0,0 mm 0,0 km/h (0 Bft) S-SW 213 ° 0 min 0,000 mm 0,9 UV-I 223 W/m² 4,4 °C 6,7 °C 0,0 km/h (0 Bft)
17.04.2019 08:21 6,8 °C 86 % 1019,8 hPa 0,0 mm 0,0 km/h (0 Bft) S-SW 213 ° 0 min 0,000 mm 1,0 UV-I 223 W/m² 4,6 °C 6,8 °C 0,0 km/h (0 Bft)
17.04.2019 08:22 6,8 °C 85 % 1019,8 hPa 0,0 mm 0,0 km/h (0 Bft) S-SW 213 ° 0 min 0,000 mm 1,0 UV-I 236 W/m² 4,5 °C 6,8 °C 0,0 km/h (0 Bft)
17.04.2019 08:23 6,9 °C 85 % 1019,8 hPa 0,0 mm 0,0 km/h (0 Bft) SW 232 ° 0 min 0,000 mm 1,0 UV-I 239 W/m² 4,6 °C 6,9 °C 0,0 km/h (0 Bft)
17.04.2019 08:24 7,1 °C 85 % 1019,8 hPa 0,0 mm 0,3 km/h (0 Bft) SW 227 ° 0 min 0,000 mm 1,0 UV-I 253 W/m² 4,8 °C 7,1 °C 1,6 km/h (1 Bft)
17.04.2019 08:25 7,2 °C 85 % 1019,8 hPa 0,0 mm 3,5 km/h (1 Bft) S-SW 210 ° 0 min 0,000 mm 1,0 UV-I 253 W/m² 4,9 °C 7,2 °C 4,8 km/h (1 Bft)
17.04.2019 08:26 7,4 °C 83 % 1019,8 hPa 0,0 mm 0,1 km/h (0 Bft) S-SW 210 ° 0 min 0,000 mm 1,1 UV-I 253 W/m² 4,7 °C 7,4 °C 1,6 km/h (1 Bft)
17.04.2019 08:27 7,6 °C 83 % 1019,8 hPa 0,0 mm 1,9 km/h (1 Bft) S-SW 210 ° 0 min 0,000 mm 1,1 UV-I 257 W/m² 4,9 °C 7,6 °C 3,2 km/h (1 Bft)
17.04.2019 08:28 7,7 °C 83 % 1019,8 hPa 0,0 mm 0,7 km/h (0 Bft) S-SW 210 ° 0 min 0,000 mm 1,1 UV-I 257 W/m² 5,0 °C 7,7 °C 1,6 km/h (1 Bft)
17.04.2019 08:29 7,8 °C 82 % 1019,8 hPa 0,0 mm 0,3 km/h (0 Bft) S-SW 210 ° 0 min 0,000 mm 1,1 UV-I 257 W/m² 4,9 °C 7,8 °C 3,2 km/h (1 Bft)
17.04.2019 08:30 7,9 °C 83 % 1019,8 hPa 0,0 mm 1,4 km/h (1 Bft) S-SW 210 ° 0 min 0,000 mm 1,1 UV-I 251 W/m² 5,2 °C 7,9 °C 3,2 km/h (1 Bft)
17.04.2019 08:31 7,9 °C 83 % 1019,8 hPa 0,0 mm 0,6 km/h (0 Bft) S-SW 210 ° 0 min 0,000 mm 1,1 UV-I 265 W/m² 5,2 °C 7,9 °C 1,6 km/h (1 Bft)
17.04.2019 08:32 8,1 °C 82 % 1019,7 hPa 0,0 mm 0,7 km/h (0 Bft) S-SW 210 ° 0 min 0,000 mm 1,1 UV-I 269 W/m² 5,2 °C 8,1 °C 3,2 km/h (1 Bft)
17.04.2019 08:33 8,0 °C 82 % 1019,8 hPa 0,0 mm 0,0 km/h (0 Bft) S-SW 210 ° 0 min 0,000 mm 1,2 UV-I 269 W/m² 5,1 °C 8,0 °C 0,0 km/h (0 Bft)
17.04.2019 08:34 7,9 °C 81 % 1019,7 hPa 0,0 mm 0,0 km/h (0 Bft) S-SW 210 ° 0 min 0,000 mm 1,2 UV-I 278 W/m² 4,8 °C 7,9 °C 0,0 km/h (0 Bft)
17.04.2019 08:35 7,8 °C 81 % 1019,7 hPa 0,0 mm 0,0 km/h (0 Bft) S-SW 210 ° 0 min 0,000 mm 1,2 UV-I 281 W/m² 4,7 °C 7,8 °C 0,0 km/h (0 Bft)
17.04.2019 08:36 7,8 °C 81 % 1019,8 hPa 0,0 mm 0,0 km/h (0 Bft) S-SW 210 ° 0 min 0,000 mm 1,2 UV-I 288 W/m² 4,7 °C 7,8 °C 0,0 km/h (0 Bft)
17.04.2019 08:37 7,9 °C 85 % 1019,8 hPa 0,0 mm 0,1 km/h (0 Bft) S-SW 209 ° 0 min 0,000 mm 1,2 UV-I 297 W/m² 5,5 °C 7,9 °C 1,6 km/h (1 Bft)
17.04.2019 08:38 8,1 °C 83 % 1019,8 hPa 0,0 mm 0,0 km/h (0 Bft) S-SW 209 ° 0 min 0,000 mm 1,3 UV-I 304 W/m² 5,4 °C 8,1 °C 0,0 km/h (0 Bft)
17.04.2019 08:39 8,1 °C 81 % 1019,8 hPa 0,0 mm 0,0 km/h (0 Bft) S-SW 209 ° 0 min 0,000 mm 1,3 UV-I 311 W/m² 5,0 °C 8,1 °C 0,0 km/h (0 Bft)
17.04.2019 08:40 8,3 °C 82 % 1019,8 hPa 0,0 mm 0,0 km/h (0 Bft) S-SW 209 ° 0 min 0,000 mm 1,3 UV-I 325 W/m² 5,4 °C 8,3 °C 0,0 km/h (0 Bft)
17.04.2019 08:41 8,4 °C 81 % 1019,8 hPa 0,0 mm 0,0 km/h (0 Bft) S-SW 209 ° 0 min 0,000 mm 1,3 UV-I 330 W/m² 5,3 °C 8,4 °C 0,0 km/h (0 Bft)
17.04.2019 08:42 8,6 °C 79 % 1019,8 hPa 0,0 mm 0,0 km/h (0 Bft) S-SW 209 ° 0 min 0,000 mm 1,4 UV-I 338 W/m² 5,2 °C 8,6 °C 0,0 km/h (0 Bft)
17.04.2019 08:43 8,6 °C 79 % 1019,8 hPa 0,0 mm 0,0 km/h (0 Bft) S-SW 209 ° 0 min 0,000 mm 1,4 UV-I 343 W/m² 5,2 °C 8,6 °C 0,0 km/h (0 Bft)
17.04.2019 08:44 8,7 °C 79 % 1019,8 hPa 0,0 mm 0,0 km/h (0 Bft) S-SW 209 ° 0 min 0,000 mm 1,4 UV-I 341 W/m² 5,3 °C 8,7 °C 0,0 km/h (0 Bft)
17.04.2019 08:45 8,8 °C 80 % 1019,8 hPa 0,0 mm 0,0 km/h (0 Bft) S-SW 209 ° 0 min 0,000 mm 1,4 UV-I 336 W/m² 5,5 °C 8,8 °C 0,0 km/h (0 Bft)
17.04.2019 08:46 8,9 °C 81 % 1019,8 hPa 0,0 mm 0,0 km/h (0 Bft) W-SW 240 ° 0 min 0,000 mm 1,5 UV-I 373 W/m² 5,8 °C 8,9 °C 0,0 km/h (0 Bft)
17.04.2019 08:47 9,0 °C 79 % 1019,8 hPa 0,0 mm 0,5 km/h (0 Bft) W-SW 240 ° 0 min 0,000 mm 1,5 UV-I 380 W/m² 5,6 °C 9,0 °C 3,2 km/h (1 Bft)
17.04.2019 08:48 9,1 °C 80 % 1019,8 hPa 0,0 mm 0,0 km/h (0 Bft) W-SW 240 ° 0 min 0,000 mm 1,5 UV-I 380 W/m² 5,8 °C 9,1 °C 0,0 km/h (0 Bft)
17.04.2019 08:49 9,1 °C 79 % 1019,8 hPa 0,0 mm 0,0 km/h (0 Bft) W-SW 240 ° 0 min 0,000 mm 1,5 UV-I 390 W/m² 5,7 °C 9,1 °C 0,0 km/h (0 Bft)
17.04.2019 08:50 9,1 °C 79 % 1019,8 hPa 0,0 mm 0,0 km/h (0 Bft) W-SW 240 ° 0 min 0,000 mm 1,6 UV-I 385 W/m² 5,7 °C 9,1 °C 0,0 km/h (0 Bft)
17.04.2019 08:51 9,2 °C 79 % 1019,8 hPa 0,0 mm 0,0 km/h (0 Bft) W-SW 240 ° 0 min 0,000 mm 1,6 UV-I 378 W/m² 5,8 °C 9,2 °C 0,0 km/h (0 Bft)
17.04.2019 08:52 9,3 °C 79 % 1019,8 hPa 0,0 mm 0,0 km/h (0 Bft) W-SW 240 ° 0 min 0,000 mm 1,6 UV-I 406 W/m² 5,8 °C 9,3 °C 0,0 km/h (0 Bft)
17.04.2019 08:53 9,3 °C 78 % 1019,8 hPa 0,0 mm 0,0 km/h (0 Bft) W-SW 240 ° 0 min 0,000 mm 1,7 UV-I 413 W/m² 5,7 °C 9,3 °C 0,0 km/h (0 Bft)
17.04.2019 08:54 9,3 °C 77 % 1019,8 hPa 0,0 mm 0,6 km/h (0 Bft) W-SW 241 ° 0 min 0,000 mm 1,7 UV-I 413 W/m² 5,5 °C 9,3 °C 1,6 km/h (1 Bft)
17.04.2019 08:55 9,4 °C 79 % 1019,8 hPa 0,0 mm 0,2 km/h (0 Bft) W-SW 241 ° 0 min 0,000 mm 1,7 UV-I 413 W/m² 5,9 °C 9,4 °C 1,6 km/h (1 Bft)
17.04.2019 08:56 9,4 °C 77 % 1019,9 hPa 0,0 mm 1,2 km/h (1 Bft) W 262 ° 0 min 0,000 mm 1,7 UV-I 413 W/m² 5,6 °C 9,4 °C 3,2 km/h (1 Bft)
17.04.2019 08:57 9,4 °C 77 % 1019,9 hPa 0,0 mm 0,2 km/h (0 Bft) W 262 ° 0 min 0,000 mm 1,7 UV-I 410 W/m² 5,6 °C 9,4 °C 1,6 km/h (1 Bft)
17.04.2019 08:58 9,3 °C 77 % 1019,9 hPa 0,0 mm 2,3 km/h (1 Bft) N 9 ° 0 min 0,000 mm 1,8 UV-I 403 W/m² 5,5 °C 9,3 °C 4,8 km/h (1 Bft)
17.04.2019 08:59 9,4 °C 78 % 1019,8 hPa 0,0 mm 3,0 km/h (1 Bft) NW 313 ° 0 min 0,000 mm 1,8 UV-I 417 W/m² 5,8 °C 9,4 °C 6,4 km/h (2 Bft)
17.04.2019 09:00 9,5 °C 78 % 1019,9 hPa 0,0 mm 0,1 km/h (0 Bft) NW 313 ° 0 min 0,000 mm 1,8 UV-I 425 W/m² 5,9 °C 9,5 °C 1,6 km/h (1 Bft)
17.04.2019 09:01 9,6 °C 78 % 1019,9 hPa 0,0 mm 0,1 km/h (0 Bft) NW 313 ° 0 min 0,101 mm 1,8 UV-I 432 W/m² 6,0 °C 9,6 °C 3,2 km/h (1 Bft)
17.04.2019 09:02 9,7 °C 77 % 1019,9 hPa 0,0 mm 0,0 km/h (0 Bft) NW 313 ° 0 min 0,000 mm 1,9 UV-I 455 W/m² 5,9 °C 9,7 °C 0,0 km/h (0 Bft)
17.04.2019 09:03 9,7 °C 78 % 1019,9 hPa 0,0 mm 1,3 km/h (1 Bft) NW 313 ° 0 min 0,000 mm 1,9 UV-I 436 W/m² 6,1 °C 9,7 °C 3,2 km/h (1 Bft)
17.04.2019 09:04 9,9 °C 79 % 1019,9 hPa 0,0 mm 0,1 km/h (0 Bft) NW 313 ° 0 min 0,000 mm 1,9 UV-I 448 W/m² 6,4 °C 9,9 °C 1,6 km/h (1 Bft)
17.04.2019 09:05 9,9 °C 78 % 1019,9 hPa 0,0 mm 0,0 km/h (0 Bft) NW 313 ° 0 min 0,000 mm 1,8 UV-I 359 W/m² 6,2 °C 9,9 °C 0,0 km/h (0 Bft)
17.04.2019 09:06 9,9 °C 77 % 1019,9 hPa 0,0 mm 0,0 km/h (0 Bft) NW 313 ° 0 min 0,000 mm 1,9 UV-I 348 W/m² 6,1 °C 9,9 °C 0,0 km/h (0 Bft)
17.04.2019 09:07 9,9 °C 77 % 1019,9 hPa 0,0 mm 0,0 km/h (0 Bft) NW 312 ° 0 min 0,000 mm 1,9 UV-I 376 W/m² 6,1 °C 9,9 °C 0,0 km/h (0 Bft)
17.04.2019 09:08 9,8 °C 77 % 1019,8 hPa 0,0 mm 2,6 km/h (1 Bft) W-SW 254 ° 0 min 0,000 mm 1,8 UV-I 323 W/m² 6,0 °C 9,8 °C 8,0 km/h (2 Bft)
17.04.2019 09:09 9,9 °C 78 % 1019,9 hPa 0,0 mm 3,7 km/h (1 Bft) W-SW 254 ° 0 min 0,000 mm 1,9 UV-I 357 W/m² 6,2 °C 9,9 °C 4,8 km/h (1 Bft)
17.04.2019 09:10 9,9 °C 78 % 1019,8 hPa 0,0 mm 3,6 km/h (1 Bft) W 267 ° 0 min 0,000 mm 1,9 UV-I 357 W/m² 6,2 °C 9,9 °C 6,4 km/h (2 Bft)
17.04.2019 09:11 9,9 °C 78 % 1019,8 hPa 0,0 mm 0,7 km/h (0 Bft) W 267 ° 0 min 0,000 mm 1,9 UV-I 390 W/m² 6,2 °C 9,9 °C 3,2 km/h (1 Bft)
17.04.2019 09:12 9,9 °C 78 % 1019,8 hPa 0,0 mm 1,9 km/h (1 Bft) W 267 ° 0 min 0,000 mm 1,8 UV-I 329 W/m² 6,2 °C 9,9 °C 4,8 km/h (1 Bft)
17.04.2019 09:13 9,9 °C 79 % 1019,9 hPa 0,0 mm 1,3 km/h (1 Bft) W-NW 292 ° 0 min 0,000 mm 1,8 UV-I 329 W/m² 6,4 °C 9,9 °C 3,2 km/h (1 Bft)
17.04.2019 09:14 10,2 °C 80 % 1019,8 hPa 0,0 mm 1,4 km/h (1 Bft) W-NW 292 ° 0 min 0,000 mm 1,9 UV-I 373 W/m² 6,9 °C 10,2 °C 3,2 km/h (1 Bft)
17.04.2019 09:15 10,2 °C 78 % 1019,8 hPa 0,0 mm 0,4 km/h (0 Bft) W-NW 292 ° 0 min 0,000 mm 1,9 UV-I 383 W/m² 6,5 °C 10,2 °C 1,6 km/h (1 Bft)
17.04.2019 09:16 10,2 °C 77 % 1019,9 hPa 0,0 mm 1,5 km/h (1 Bft) W-NW 292 ° 0 min 0,000 mm 1,9 UV-I 399 W/m² 6,4 °C 10,2 °C 3,2 km/h (1 Bft)
17.04.2019 09:17 10,2 °C 76 % 1019,9 hPa 0,0 mm 1,5 km/h (1 Bft) W-NW 292 ° 0 min 0,000 mm 1,9 UV-I 345 W/m² 6,2 °C 10,2 °C 3,2 km/h (1 Bft)
17.04.2019 09:18 10,3 °C 77 % 1019,9 hPa 0,0 mm 5,2 km/h (1 Bft) W-NW 288 ° 0 min 0,000 mm 1,9 UV-I 353 W/m² 6,4 °C 10,3 °C 6,4 km/h (2 Bft)
17.04.2019 09:19 10,3 °C 76 % 1019,9 hPa 0,0 mm 3,4 km/h (1 Bft) NW 305 ° 0 min 0,000 mm 1,9 UV-I 332 W/m² 6,3 °C 10,3 °C 4,8 km/h (1 Bft)
17.04.2019 09:20 10,3 °C 76 % 1019,9 hPa 0,0 mm 1,2 km/h (1 Bft) NW 304 ° 0 min 0,000 mm 1,9 UV-I 339 W/m² 6,3 °C 10,3 °C 3,2 km/h (1 Bft)
17.04.2019 09:21 10,3 °C 76 % 1019,9 hPa 0,0 mm 0,0 km/h (0 Bft) NW 304 ° 0 min 0,000 mm 1,8 UV-I 325 W/m² 6,3 °C 10,3 °C 0,0 km/h (0 Bft)
17.04.2019 09:22 10,2 °C 75 % 1019,8 hPa 0,0 mm 0,1 km/h (0 Bft) NW 304 ° 0 min 0,000 mm 1,9 UV-I 330 W/m² 6,0 °C 10,2 °C 1,6 km/h (1 Bft)
17.04.2019 09:23 10,2 °C 76 % 1019,9 hPa 0,0 mm 2,4 km/h (1 Bft) N-NW 339 ° 0 min 0,000 mm 1,9 UV-I 320 W/m² 6,2 °C 10,2 °C 4,8 km/h (1 Bft)
17.04.2019 09:24 10,2 °C 76 % 1019,8 hPa 0,0 mm 2,6 km/h (1 Bft) N-NW 339 ° 0 min 0,000 mm 2,0 UV-I 357 W/m² 6,2 °C 10,2 °C 4,8 km/h (1 Bft)
17.04.2019 09:25 10,2 °C 77 % 1019,8 hPa 0,0 mm 1,3 km/h (1 Bft) N-NW 339 ° 0 min 0,000 mm 2,0 UV-I 334 W/m² 6,4 °C 10,2 °C 3,2 km/h (1 Bft)
17.04.2019 09:26 10,3 °C 79 % 1019,9 hPa 0,0 mm 0,5 km/h (0 Bft) N-NW 338 ° 0 min 0,000 mm 2,0 UV-I 383 W/m² 6,8 °C 10,3 °C 3,2 km/h (1 Bft)
17.04.2019 09:27 10,4 °C 77 % 1019,8 hPa 0,0 mm 1,9 km/h (1 Bft) N 350 ° 0 min 0,000 mm 2,0 UV-I 362 W/m² 6,5 °C 10,4 °C 3,2 km/h (1 Bft)
17.04.2019 09:28 10,4 °C 78 % 1019,8 hPa 0,0 mm 4,3 km/h (1 Bft) N 5 ° 0 min 0,000 mm 2,1 UV-I 404 W/m² 6,7 °C 10,4 °C 4,8 km/h (1 Bft)
17.04.2019 09:29 10,6 °C 77 % 1019,9 hPa 0,0 mm 3,0 km/h (1 Bft) N 351 ° 0 min 0,000 mm 2,1 UV-I 417 W/m² 6,7 °C 10,6 °C 4,8 km/h (1 Bft)
17.04.2019 09:30 10,6 °C 74 % 1019,8 hPa 0,0 mm 0,1 km/h (0 Bft) N 351 ° 0 min 0,000 mm 2,2 UV-I 425 W/m² 6,2 °C 10,6 °C 1,6 km/h (1 Bft)
17.04.2019 09:31 10,6 °C 77 % 1019,9 hPa 0,0 mm 2,7 km/h (1 Bft) N-NO 33 ° 0 min 0,000 mm 2,3 UV-I 441 W/m² 6,7 °C 10,6 °C 6,4 km/h (2 Bft)
17.04.2019 09:32 10,6 °C 75 % 1019,8 hPa 0,0 mm 1,7 km/h (1 Bft) NW 319 ° 0 min 0,000 mm 2,3 UV-I 536 W/m² 6,4 °C 10,6 °C 4,8 km/h (1 Bft)
17.04.2019 09:33 10,7 °C 77 % 1019,8 hPa 0,0 mm 5,7 km/h (1 Bft) N-NW 331 ° 0 min 0,000 mm 2,4 UV-I 476 W/m² 6,8 °C 10,7 °C 8,0 km/h (2 Bft)
17.04.2019 09:34 10,7 °C 74 % 1019,9 hPa 0,0 mm 2,3 km/h (1 Bft) N-NW 329 ° 0 min 0,000 mm 2,3 UV-I 446 W/m² 6,3 °C 10,7 °C 3,2 km/h (1 Bft)
17.04.2019 09:35 10,7 °C 74 % 1019,9 hPa 0,0 mm 2,7 km/h (1 Bft) N-NO 24 ° 0 min 0,000 mm 2,3 UV-I 501 W/m² 6,3 °C 10,7 °C 6,4 km/h (2 Bft)
17.04.2019 09:36 10,7 °C 74 % 1019,9 hPa 0,0 mm 0,2 km/h (0 Bft) N-NO 24 ° 0 min 0,000 mm 2,3 UV-I 431 W/m² 6,3 °C 10,7 °C 1,6 km/h (1 Bft)
17.04.2019 09:37 10,7 °C 73 % 1019,9 hPa 0,0 mm 0,1 km/h (0 Bft) N-NO 24 ° 0 min 0,000 mm 2,3 UV-I 441 W/m² 6,1 °C 10,7 °C 1,6 km/h (1 Bft)
17.04.2019 09:38 10,7 °C 75 % 1019,9 hPa 0,0 mm 0,1 km/h (0 Bft) N-NO 24 ° 0 min 0,000 mm 2,5 UV-I 543 W/m² 6,5 °C 10,7 °C 1,6 km/h (1 Bft)
17.04.2019 09:39 10,7 °C 75 % 1019,9 hPa 0,0 mm 1,5 km/h (1 Bft) N-NW 331 ° 0 min 0,000 mm 2,5 UV-I 541 W/m² 6,5 °C 10,7 °C 4,8 km/h (1 Bft)
17.04.2019 09:40 10,7 °C 73 % 1019,9 hPa 0,0 mm 2,7 km/h (1 Bft) N-NW 331 ° 0 min 0,000 mm 2,4 UV-I 485 W/m² 6,1 °C 10,7 °C 3,2 km/h (1 Bft)
17.04.2019 09:41 10,9 °C 74 % 1019,9 hPa 0,0 mm 3,1 km/h (1 Bft) NW 311 ° 0 min 0,000 mm 2,5 UV-I 492 W/m² 6,5 °C 10,9 °C 4,8 km/h (1 Bft)
17.04.2019 09:42 10,9 °C 75 % 1019,9 hPa 0,0 mm 0,8 km/h (0 Bft) NW 311 ° 0 min 0,000 mm 2,4 UV-I 492 W/m² 6,6 °C 10,9 °C 3,2 km/h (1 Bft)
17.04.2019 09:43 10,9 °C 73 % 1019,9 hPa 0,0 mm 1,6 km/h (1 Bft) NW 311 ° 0 min 0,000 mm 2,5 UV-I 462 W/m² 6,3 °C 10,9 °C 3,2 km/h (1 Bft)
17.04.2019 09:44 10,9 °C 73 % 1019,9 hPa 0,0 mm 2,3 km/h (1 Bft) NW 311 ° 0 min 0,000 mm 2,4 UV-I 461 W/m² 6,3 °C 10,9 °C 4,8 km/h (1 Bft)
17.04.2019 09:45 10,9 °C 75 % 1019,9 hPa 0,0 mm 2,1 km/h (1 Bft) NW 311 ° 0 min 0,000 mm 2,3 UV-I 406 W/m² 6,6 °C 10,9 °C 3,2 km/h (1 Bft)
17.04.2019 09:46 10,9 °C 73 % 1019,9 hPa 0,0 mm 1,3 km/h (1 Bft) NW 311 ° 0 min 0,000 mm 2,3 UV-I 394 W/m² 6,3 °C 10,9 °C 3,2 km/h (1 Bft)
17.04.2019 09:47 10,8 °C 73 % 1020,0 hPa 0,0 mm 0,0 km/h (0 Bft) NW 311 ° 0 min 0,000 mm 2,3 UV-I 436 W/m² 6,2 °C 10,8 °C 0,0 km/h (0 Bft)
17.04.2019 09:48 10,8 °C 74 % 1020,0 hPa 0,0 mm 2,0 km/h (1 Bft) O-NO 65 ° 0 min 0,000 mm 2,2 UV-I 362 W/m² 6,4 °C 10,8 °C 4,8 km/h (1 Bft)
17.04.2019 09:49 10,8 °C 75 % 1019,9 hPa 0,0 mm 4,0 km/h (1 Bft) O-NO 66 ° 0 min 0,000 mm 2,2 UV-I 334 W/m² 6,5 °C 10,8 °C 6,4 km/h (2 Bft)
17.04.2019 09:50 10,7 °C 73 % 1020,0 hPa 0,0 mm 2,6 km/h (1 Bft) O-NO 66 ° 0 min 0,000 mm 2,3 UV-I 352 W/m² 6,1 °C 10,7 °C 4,8 km/h (1 Bft)
17.04.2019 09:51 10,7 °C 73 % 1019,9 hPa 0,0 mm 2,5 km/h (1 Bft) O-NO 66 ° 0 min 0,000 mm 2,4 UV-I 352 W/m² 6,1 °C 10,7 °C 4,8 km/h (1 Bft)
17.04.2019 09:52 10,6 °C 73 % 1019,9 hPa 0,0 mm 2,7 km/h (1 Bft) O 80 ° 0 min 0,000 mm 2,3 UV-I 380 W/m² 6,0 °C 10,6 °C 6,4 km/h (2 Bft)
17.04.2019 09:53 10,6 °C 73 % 1020,0 hPa 0,0 mm 4,4 km/h (1 Bft) O 94 ° 0 min 0,000 mm 2,3 UV-I 360 W/m² 6,0 °C 10,6 °C 6,4 km/h (2 Bft)
17.04.2019 09:54 10,5 °C 72 % 1020,0 hPa 0,0 mm 1,0 km/h (0 Bft) O 94 ° 0 min 0,000 mm 2,3 UV-I 353 W/m² 5,7 °C 10,5 °C 1,6 km/h (1 Bft)
17.04.2019 09:55 10,4 °C 72 % 1020,0 hPa 0,0 mm 0,2 km/h (0 Bft) O 94 ° 0 min 0,000 mm 2,3 UV-I 357 W/m² 5,6 °C 10,4 °C 1,6 km/h (1 Bft)
17.04.2019 09:56 10,4 °C 72 % 1020,0 hPa 0,0 mm 0,9 km/h (0 Bft) O 94 ° 0 min 0,000 mm 2,4 UV-I 371 W/m² 5,6 °C 10,4 °C 1,6 km/h (1 Bft)
17.04.2019 09:57 10,6 °C 74 % 1020,0 hPa 0,0 mm 3,7 km/h (1 Bft) O-SO 109 ° 0 min 0,000 mm 2,4 UV-I 420 W/m² 6,2 °C 10,6 °C 9,7 km/h (2 Bft)
17.04.2019 09:58 10,5 °C 73 % 1020,0 hPa 0,0 mm 2,7 km/h (1 Bft) O-SO 109 ° 0 min 0,000 mm 2,5 UV-I 436 W/m² 5,9 °C 10,5 °C 6,4 km/h (2 Bft)
17.04.2019 09:59 10,4 °C 73 % 1020,0 hPa 0,0 mm 2,1 km/h (1 Bft) O-SO 113 ° 0 min 0,000 mm 2,5 UV-I 425 W/m² 5,8 °C 10,4 °C 3,2 km/h (1 Bft)
17.04.2019 10:00 10,3 °C 73 % 1020,1 hPa 0,0 mm 0,1 km/h (0 Bft) O-SO 113 ° 0 min 0,000 mm 2,6 UV-I 432 W/m² 5,7 °C 10,3 °C 1,6 km/h (1 Bft)
17.04.2019 10:01 10,4 °C 74 % 1020,1 hPa 0,0 mm 0,0 km/h (0 Bft) O-SO 113 ° 0 min 0,203 mm 2,6 UV-I 439 W/m² 6,0 °C 10,4 °C 0,0 km/h (0 Bft)
17.04.2019 10:02 10,5 °C 73 % 1020,1 hPa 0,0 mm 0,1 km/h (0 Bft) O-SO 113 ° 0 min 0,000 mm 2,9 UV-I 482 W/m² 5,9 °C 10,5 °C 1,6 km/h (1 Bft)
17.04.2019 10:03 10,6 °C 73 % 1020,1 hPa 0,0 mm 0,3 km/h (0 Bft) O-SO 112 ° 0 min 0,000 mm 3,0 UV-I 538 W/m² 6,0 °C 10,6 °C 3,2 km/h (1 Bft)
17.04.2019 10:04 10,7 °C 72 % 1020,0 hPa 0,0 mm 0,5 km/h (0 Bft) N 349 ° 0 min 0,000 mm 3,0 UV-I 519 W/m² 5,9 °C 10,7 °C 3,2 km/h (1 Bft)
17.04.2019 10:05 10,9 °C 73 % 1020,1 hPa 0,0 mm 0,0 km/h (0 Bft) N 349 ° 0 min 0,000 mm 3,0 UV-I 566 W/m² 6,3 °C 10,9 °C 0,0 km/h (0 Bft)
17.04.2019 10:06 10,9 °C 72 % 1020,0 hPa 0,0 mm 1,6 km/h (1 Bft) O 92 ° 1 min 0,000 mm 3,0 UV-I 652 W/m² 6,1 °C 10,9 °C 3,2 km/h (1 Bft)
17.04.2019 10:07 11,0 °C 72 % 1020,0 hPa 0,0 mm 2,1 km/h (1 Bft) O 97 ° 0 min 0,000 mm 2,9 UV-I 568 W/m² 6,2 °C 11,0 °C 4,8 km/h (1 Bft)
17.04.2019 10:08 11,0 °C 72 % 1020,0 hPa 0,0 mm 1,1 km/h (1 Bft) O 97 ° 0 min 0,000 mm 2,8 UV-I 568 W/m² 6,2 °C 11,0 °C 3,2 km/h (1 Bft)
17.04.2019 10:09 11,0 °C 72 % 1020,0 hPa 0,0 mm 0,0 km/h (0 Bft) O 97 ° 0 min 0,000 mm 2,6 UV-I 413 W/m² 6,2 °C 11,0 °C 0,0 km/h (0 Bft)
17.04.2019 10:10 11,0 °C 72 % 1020,0 hPa 0,0 mm 0,0 km/h (0 Bft) O 97 ° 0 min 0,000 mm 2,6 UV-I 397 W/m² 6,2 °C 11,0 °C 0,0 km/h (0 Bft)
17.04.2019 10:11 11,0 °C 72 % 1020,0 hPa 0,0 mm 0,4 km/h (0 Bft) W-NW 287 ° 0 min 0,000 mm 2,6 UV-I 418 W/m² 6,2 °C 11,0 °C 3,2 km/h (1 Bft)
17.04.2019 10:12 11,1 °C 72 % 1020,0 hPa 0,0 mm 2,9 km/h (1 Bft) W-NW 289 ° 0 min 0,000 mm 2,6 UV-I 450 W/m² 6,2 °C 11,1 °C 4,8 km/h (1 Bft)
17.04.2019 10:13 11,1 °C 73 % 1020,1 hPa 0,0 mm 0,5 km/h (0 Bft) W-NW 289 ° 0 min 0,000 mm 2,6 UV-I 410 W/m² 6,4 °C 11,1 °C 1,6 km/h (1 Bft)
17.04.2019 10:14 11,1 °C 73 % 1020,0 hPa 0,0 mm 0,1 km/h (0 Bft) W-NW 289 ° 0 min 0,000 mm 2,7 UV-I 366 W/m² 6,4 °C 11,1 °C 1,6 km/h (1 Bft)
17.04.2019 10:15 11,2 °C 75 % 1020,0 hPa 0,0 mm 0,0 km/h (0 Bft) W-NW 289 ° 0 min 0,000 mm 2,7 UV-I 446 W/m² 6,9 °C 11,2 °C 0,0 km/h (0 Bft)
17.04.2019 10:16 11,2 °C 72 % 1020,0 hPa 0,0 mm 0,0 km/h (0 Bft) W-NW 289 ° 0 min 0,000 mm 2,7 UV-I 457 W/m² 6,3 °C 11,2 °C 0,0 km/h (0 Bft)
17.04.2019 10:17 11,3 °C 77 % 1019,9 hPa 0,0 mm 2,3 km/h (1 Bft) W-NW 291 ° 0 min 0,000 mm 2,7 UV-I 501 W/m² 7,4 °C 11,3 °C 4,8 km/h (1 Bft)
17.04.2019 10:18 11,5 °C 74 % 1020,0 hPa 0,0 mm 1,5 km/h (1 Bft) W-NW 291 ° 0 min 0,000 mm 2,7 UV-I 478 W/m² 7,0 °C 11,5 °C 3,2 km/h (1 Bft)
17.04.2019 10:19 11,6 °C 73 % 1020,0 hPa 0,0 mm 0,7 km/h (0 Bft) W-NW 292 ° 0 min 0,000 mm 2,9 UV-I 494 W/m² 6,9 °C 11,6 °C 3,2 km/h (1 Bft)
17.04.2019 10:20 11,7 °C 74 % 1020,1 hPa 0,0 mm 1,4 km/h (1 Bft) W-NW 292 ° 0 min 0,000 mm 3,0 UV-I 519 W/m² 7,2 °C 11,7 °C 3,2 km/h (1 Bft)
17.04.2019 10:21 11,7 °C 72 % 1020,0 hPa 0,0 mm 3,1 km/h (1 Bft) NO 55 ° 0 min 0,000 mm 2,9 UV-I 475 W/m² 6,8 °C 11,7 °C 4,8 km/h (1 Bft)
17.04.2019 10:22 11,6 °C 70 % 1020,0 hPa 0,0 mm 3,2 km/h (1 Bft) NO 56 ° 0 min 0,000 mm 2,8 UV-I 475 W/m² 6,3 °C 11,6 °C 4,8 km/h (1 Bft)
17.04.2019 10:23 11,4 °C 71 % 1020,0 hPa 0,0 mm 1,4 km/h (1 Bft) NO 56 ° 0 min 0,000 mm 2,6 UV-I 336 W/m² 6,3 °C 11,4 °C 3,2 km/h (1 Bft)
17.04.2019 10:24 11,3 °C 70 % 1020,0 hPa 0,0 mm 0,0 km/h (0 Bft) NO 56 ° 0 min 0,000 mm 3,0 UV-I 408 W/m² 6,0 °C 11,3 °C 0,0 km/h (0 Bft)
17.04.2019 10:25 11,3 °C 71 % 1020,0 hPa 0,0 mm 0,0 km/h (0 Bft) NO 56 ° 0 min 0,000 mm 3,1 UV-I 563 W/m² 6,2 °C 11,3 °C 0,0 km/h (0 Bft)
17.04.2019 10:26 11,3 °C 70 % 1020,0 hPa 0,0 mm 0,0 km/h (0 Bft) NO 56 ° 0 min 0,000 mm 3,1 UV-I 534 W/m² 6,0 °C 11,3 °C 0,0 km/h (0 Bft)
17.04.2019 10:27 11,3 °C 71 % 1020,0 hPa 0,0 mm 1,9 km/h (1 Bft) NO 56 ° 0 min 0,000 mm 3,1 UV-I 501 W/m² 6,2 °C 11,3 °C 4,8 km/h (1 Bft)
17.04.2019 10:28 11,2 °C 70 % 1020,0 hPa 0,0 mm 2,4 km/h (1 Bft) N 360 ° 0 min 0,000 mm 3,1 UV-I 517 W/m² 5,9 °C 11,2 °C 4,8 km/h (1 Bft)
17.04.2019 10:29 11,3 °C 73 % 1020,0 hPa 0,0 mm 1,5 km/h (1 Bft) O-NO 74 ° 0 min 0,000 mm 2,9 UV-I 517 W/m² 6,6 °C 11,3 °C 3,2 km/h (1 Bft)
17.04.2019 10:30 11,3 °C 72 % 1020,0 hPa 0,0 mm 3,1 km/h (1 Bft) W-SW 246 ° 0 min 0,000 mm 2,7 UV-I 517 W/m² 6,4 °C 11,3 °C 4,8 km/h (1 Bft)
17.04.2019 10:31 11,4 °C 73 % 1020,0 hPa 0,0 mm 4,4 km/h (1 Bft) N-NW 327 ° 0 min 0,000 mm 2,7 UV-I 455 W/m² 6,7 °C 11,4 °C 6,4 km/h (2 Bft)
17.04.2019 10:32 11,5 °C 73 % 1020,0 hPa 0,0 mm 6,3 km/h (2 Bft) N-NW 335 ° 0 min 0,000 mm 2,3 UV-I 248 W/m² 6,8 °C 11,5 °C 8,0 km/h (2 Bft)
17.04.2019 10:33 11,6 °C 74 % 1020,0 hPa 0,0 mm 4,5 km/h (1 Bft) NW 308 ° 0 min 0,000 mm 2,2 UV-I 248 W/m² 7,1 °C 11,6 °C 6,4 km/h (2 Bft)
17.04.2019 10:34 11,5 °C 72 % 1020,0 hPa 0,0 mm 3,8 km/h (1 Bft) NW 308 ° 0 min 0,000 mm 2,2 UV-I 253 W/m² 6,6 °C 11,5 °C 6,4 km/h (2 Bft)
17.04.2019 10:35 11,4 °C 71 % 1020,0 hPa 0,0 mm 0,9 km/h (0 Bft) NW 308 ° 0 min 0,000 mm 2,2 UV-I 258 W/m² 6,3 °C 11,4 °C 3,2 km/h (1 Bft)
17.04.2019 10:36 11,4 °C 72 % 1020,0 hPa 0,0 mm 1,6 km/h (1 Bft) N 10 ° 0 min 0,000 mm 2,2 UV-I 258 W/m² 6,5 °C 11,4 °C 3,2 km/h (1 Bft)
17.04.2019 10:37 11,4 °C 73 % 1020,0 hPa 0,0 mm 3,8 km/h (1 Bft) NW 322 ° 0 min 0,000 mm 2,2 UV-I 258 W/m² 6,7 °C 11,4 °C 9,7 km/h (2 Bft)
17.04.2019 10:38 11,4 °C 73 % 1020,0 hPa 0,0 mm 3,0 km/h (1 Bft) NW 326 ° 0 min 0,000 mm 2,1 UV-I 244 W/m² 6,7 °C 11,4 °C 4,8 km/h (1 Bft)
17.04.2019 10:39 11,3 °C 73 % 1020,0 hPa 0,0 mm 1,7 km/h (1 Bft) NW 317 ° 0 min 0,000 mm 2,0 UV-I 221 W/m² 6,6 °C 11,3 °C 3,2 km/h (1 Bft)
17.04.2019 10:40 11,3 °C 72 % 1020,0 hPa 0,0 mm 1,5 km/h (1 Bft) W-NW 300 ° 0 min 0,000 mm 2,0 UV-I 206 W/m² 6,4 °C 11,3 °C 3,2 km/h (1 Bft)
17.04.2019 10:41 11,3 °C 74 % 1020,0 hPa 0,0 mm 1,3 km/h (1 Bft) W-NW 301 ° 0 min 0,000 mm 2,0 UV-I 204 W/m² 6,8 °C 11,3 °C 3,2 km/h (1 Bft)
17.04.2019 10:42 11,3 °C 72 % 1020,0 hPa 0,0 mm 1,4 km/h (1 Bft) NW 311 ° 0 min 0,000 mm 2,1 UV-I 204 W/m² 6,4 °C 11,3 °C 4,8 km/h (1 Bft)
17.04.2019 10:43 11,3 °C 73 % 1020,0 hPa 0,0 mm 3,4 km/h (1 Bft) N-NW 331 ° 0 min 0,000 mm 2,2 UV-I 221 W/m² 6,6 °C 11,3 °C 6,4 km/h (2 Bft)
17.04.2019 10:44 11,3 °C 73 % 1020,0 hPa 0,0 mm 3,9 km/h (1 Bft) N-NW 331 ° 0 min 0,000 mm 2,2 UV-I 225 W/m² 6,6 °C 11,3 °C 4,8 km/h (1 Bft)
17.04.2019 10:45 11,4 °C 73 % 1020,0 hPa 0,0 mm 1,3 km/h (1 Bft) N-NW 331 ° 0 min 0,000 mm 2,3 UV-I 221 W/m² 6,7 °C 11,4 °C 3,2 km/h (1 Bft)
17.04.2019 10:46 11,4 °C 73 % 1019,9 hPa 0,0 mm 5,4 km/h (1 Bft) W-NW 300 ° 0 min 0,000 mm 2,2 UV-I 225 W/m² 6,7 °C 11,4 °C 8,0 km/h (2 Bft)
17.04.2019 10:47 11,4 °C 73 % 1020,0 hPa 0,0 mm 3,9 km/h (1 Bft) W-NW 297 ° 0 min 0,000 mm 2,2 UV-I 221 W/m² 6,7 °C 11,4 °C 6,4 km/h (2 Bft)
17.04.2019 10:48 11,4 °C 73 % 1019,9 hPa 0,0 mm 4,6 km/h (1 Bft) NW 314 ° 0 min 0,000 mm 2,2 UV-I 213 W/m² 6,7 °C 11,4 °C 6,4 km/h (2 Bft)
17.04.2019 10:49 11,4 °C 73 % 1019,9 hPa 0,0 mm 4,2 km/h (1 Bft) W-NW 288 ° 0 min 0,000 mm 2,2 UV-I 207 W/m² 6,7 °C 11,4 °C 6,4 km/h (2 Bft)
17.04.2019 10:50 11,4 °C 73 % 1020,0 hPa 0,0 mm 3,1 km/h (1 Bft) NW 308 ° 0 min 0,000 mm 2,2 UV-I 202 W/m² 6,7 °C 11,4 °C 4,8 km/h (1 Bft)
17.04.2019 10:51 11,3 °C 72 % 1020,0 hPa 0,0 mm 5,4 km/h (1 Bft) NW 319 ° 0 min 0,000 mm 2,2 UV-I 209 W/m² 6,4 °C 11,3 °C 9,7 km/h (2 Bft)
17.04.2019 10:52 11,3 °C 72 % 1019,9 hPa 0,0 mm 7,4 km/h (2 Bft) NW 318 ° 0 min 0,000 mm 2,2 UV-I 218 W/m² 6,4 °C 11,3 °C 12,9 km/h (3 Bft)
17.04.2019 10:53 11,2 °C 72 % 1019,9 hPa 0,0 mm 3,6 km/h (1 Bft) NW 311 ° 0 min 0,000 mm 2,2 UV-I 230 W/m² 6,3 °C 11,2 °C 4,8 km/h (1 Bft)
17.04.2019 10:54 11,2 °C 72 % 1019,9 hPa 0,0 mm 3,9 km/h (1 Bft) W-NW 288 ° 0 min 0,000 mm 2,2 UV-I 236 W/m² 6,3 °C 11,2 °C 4,8 km/h (1 Bft)
17.04.2019 10:55 11,2 °C 72 % 1020,0 hPa 0,0 mm 1,7 km/h (1 Bft) W-NW 289 ° 0 min 0,000 mm 2,2 UV-I 236 W/m² 6,3 °C 11,2 °C 3,2 km/h (1 Bft)
17.04.2019 10:56 11,2 °C 72 % 1020,0 hPa 0,0 mm 1,3 km/h (1 Bft) W-NW 302 ° 0 min 0,000 mm 2,2 UV-I 236 W/m² 6,3 °C 11,2 °C 4,8 km/h (1 Bft)
17.04.2019 10:57 11,1 °C 72 % 1020,0 hPa 0,0 mm 2,3 km/h (1 Bft) W-NW 302 ° 0 min 0,000 mm 2,1 UV-I 209 W/m² 6,2 °C 11,1 °C 3,2 km/h (1 Bft)
17.04.2019 10:58 11,1 °C 72 % 1020,0 hPa 0,0 mm 3,0 km/h (1 Bft) W-NW 296 ° 0 min 0,000 mm 2,1 UV-I 207 W/m² 6,2 °C 11,1 °C 4,8 km/h (1 Bft)
17.04.2019 10:59 11,1 °C 73 % 1020,0 hPa 0,0 mm 2,6 km/h (1 Bft) W-NW 296 ° 0 min 0,000 mm 2,1 UV-I 207 W/m² 6,4 °C 11,1 °C 3,2 km/h (1 Bft)
17.04.2019 11:00 11,1 °C 72 % 1020,0 hPa 0,0 mm 1,3 km/h (1 Bft) W-NW 298 ° 0 min 0,000 mm 2,0 UV-I 206 W/m² 6,2 °C 11,1 °C 3,2 km/h (1 Bft)
17.04.2019 11:01 11,2 °C 72 % 1020,0 hPa 0,0 mm 0,1 km/h (0 Bft) W-NW 298 ° 0 min 0,178 mm 2,0 UV-I 218 W/m² 6,3 °C 11,2 °C 1,6 km/h (1 Bft)
17.04.2019 11:02 11,2 °C 71 % 1020,0 hPa 0,0 mm 1,0 km/h (0 Bft) O-SO 113 ° 0 min 0,000 mm 2,2 UV-I 267 W/m² 6,1 °C 11,2 °C 3,2 km/h (1 Bft)
17.04.2019 11:03 11,3 °C 72 % 1020,0 hPa 0,0 mm 2,2 km/h (1 Bft) O-SO 109 ° 0 min 0,000 mm 2,3 UV-I 292 W/m² 6,4 °C 11,3 °C 3,2 km/h (1 Bft)
17.04.2019 11:04 11,3 °C 72 % 1020,0 hPa 0,0 mm 0,7 km/h (0 Bft) O-SO 109 ° 0 min 0,000 mm 2,4 UV-I 302 W/m² 6,4 °C 11,3 °C 1,6 km/h (1 Bft)
17.04.2019 11:05 11,3 °C 72 % 1020,0 hPa 0,0 mm 0,3 km/h (0 Bft) O-SO 109 ° 0 min 0,000 mm 2,5 UV-I 323 W/m² 6,4 °C 11,3 °C 1,6 km/h (1 Bft)
17.04.2019 11:06 11,3 °C 73 % 1020,0 hPa 0,0 mm 0,2 km/h (0 Bft) O-SO 109 ° 0 min 0,000 mm 3,7 UV-I 323 W/m² 6,6 °C 11,3 °C 1,6 km/h (1 Bft)
17.04.2019 11:07 11,6 °C 76 % 1020,0 hPa 0,0 mm 0,3 km/h (0 Bft) O-SO 109 ° 1 min 0,000 mm 4,1 UV-I 882 W/m² 7,5 °C 11,6 °C 1,6 km/h (1 Bft)
17.04.2019 11:08 11,9 °C 74 % 1020,0 hPa 0,0 mm 2,4 km/h (1 Bft) O 96 ° 1 min 0,000 mm 4,2 UV-I 879 W/m² 7,4 °C 11,9 °C 4,8 km/h (1 Bft)
17.04.2019 11:09 12,1 °C 73 % 1020,0 hPa 0,0 mm 1,4 km/h (1 Bft) N-NO 29 ° 1 min 0,000 mm 2,9 UV-I 879 W/m² 7,4 °C 12,1 °C 4,8 km/h (1 Bft)
17.04.2019 11:10 12,2 °C 72 % 1020,0 hPa 0,0 mm 3,5 km/h (1 Bft) N-NO 24 ° 0 min 0,000 mm 2,8 UV-I 325 W/m² 7,3 °C 12,2 °C 8,0 km/h (2 Bft)
17.04.2019 11:11 12,2 °C 71 % 1020,0 hPa 0,0 mm 3,8 km/h (1 Bft) N 355 ° 0 min 0,000 mm 2,8 UV-I 315 W/m² 7,1 °C 12,2 °C 4,8 km/h (1 Bft)
17.04.2019 11:12 12,3 °C 69 % 1020,0 hPa 0,0 mm 3,6 km/h (1 Bft) N 355 ° 0 min 0,000 mm 3,0 UV-I 343 W/m² 6,8 °C 12,3 °C 6,4 km/h (2 Bft)
17.04.2019 11:13 12,3 °C 69 % 1020,0 hPa 0,0 mm 3,1 km/h (1 Bft) NO 37 ° 0 min 0,000 mm 3,0 UV-I 343 W/m² 6,8 °C 12,3 °C 4,8 km/h (1 Bft)
17.04.2019 11:14 12,2 °C 69 % 1020,0 hPa 0,0 mm 0,1 km/h (0 Bft) NO 37 ° 0 min 0,000 mm 2,9 UV-I 348 W/m² 6,7 °C 12,2 °C 1,6 km/h (1 Bft)
17.04.2019 11:15 12,2 °C 70 % 1020,0 hPa 0,0 mm 1,0 km/h (0 Bft) O 82 ° 0 min 0,000 mm 2,9 UV-I 359 W/m² 6,9 °C 12,2 °C 4,8 km/h (1 Bft)
17.04.2019 11:16 12,3 °C 69 % 1020,0 hPa 0,0 mm 9,5 km/h (2 Bft) O 98 ° 0 min 0,000 mm 3,7 UV-I 359 W/m² 6,8 °C 12,3 °C 12,9 km/h (3 Bft)
17.04.2019 11:17 12,3 °C 68 % 1020,0 hPa 0,0 mm 2,3 km/h (1 Bft) O-NO 76 ° 0 min 0,000 mm 4,0 UV-I 359 W/m² 6,6 °C 12,3 °C 6,4 km/h (2 Bft)
17.04.2019 11:18 12,4 °C 71 % 1019,9 hPa 0,0 mm 4,2 km/h (1 Bft) O 80 ° 1 min 0,000 mm 4,2 UV-I 788 W/m² 7,3 °C 12,4 °C 8,0 km/h (2 Bft)
17.04.2019 11:19 12,4 °C 68 % 1020,0 hPa 0,0 mm 7,7 km/h (2 Bft) O-NO 75 ° 1 min 0,000 mm 4,1 UV-I 733 W/m² 6,7 °C 12,4 °C 11,3 km/h (2 Bft)
17.04.2019 11:20 12,4 °C 68 % 1020,0 hPa 0,0 mm 3,0 km/h (1 Bft) O-SO 105 ° 1 min 0,000 mm 4,1 UV-I 772 W/m² 6,7 °C 12,4 °C 6,4 km/h (2 Bft)
17.04.2019 11:21 12,3 °C 68 % 1019,9 hPa 0,0 mm 0,0 km/h (0 Bft) O-SO 105 ° 1 min 0,000 mm 4,2 UV-I 770 W/m² 6,6 °C 12,3 °C 0,0 km/h (0 Bft)
17.04.2019 11:22 12,5 °C 71 % 1020,0 hPa 0,0 mm 2,0 km/h (1 Bft) O-NO 71 ° 1 min 0,000 mm 3,8 UV-I 693 W/m² 7,4 °C 12,5 °C 6,4 km/h (2 Bft)
17.04.2019 11:23 12,7 °C 68 % 1019,9 hPa 0,0 mm 3,3 km/h (1 Bft) O-NO 62 ° 1 min 0,000 mm 3,7 UV-I 615 W/m² 6,9 °C 12,7 °C 4,8 km/h (1 Bft)
17.04.2019 11:24 12,7 °C 68 % 1019,9 hPa 0,0 mm 1,4 km/h (1 Bft) NO 44 ° 1 min 0,000 mm 3,6 UV-I 645 W/m² 6,9 °C 12,7 °C 3,2 km/h (1 Bft)
17.04.2019 11:25 12,8 °C 69 % 1020,0 hPa 0,0 mm 6,5 km/h (2 Bft) O-NO 68 ° 1 min 0,000 mm 4,2 UV-I 714 W/m² 7,3 °C 12,8 °C 9,7 km/h (2 Bft)
17.04.2019 11:26 12,7 °C 67 % 1020,0 hPa 0,0 mm 7,2 km/h (2 Bft) NO 39 ° 1 min 0,000 mm 4,0 UV-I 733 W/m² 6,7 °C 12,7 °C 12,9 km/h (3 Bft)
17.04.2019 11:27 12,6 °C 69 % 1019,9 hPa 0,0 mm 5,0 km/h (1 Bft) NO 35 ° 1 min 0,000 mm 4,0 UV-I 689 W/m² 7,1 °C 12,6 °C 6,4 km/h (2 Bft)
17.04.2019 11:28 12,7 °C 68 % 1020,0 hPa 0,0 mm 6,9 km/h (2 Bft) O 91 ° 1 min 0,000 mm 4,2 UV-I 668 W/m² 6,9 °C 12,7 °C 11,3 km/h (2 Bft)
17.04.2019 11:29 12,7 °C 68 % 1020,0 hPa 0,0 mm 8,0 km/h (2 Bft) O-NO 68 ° 1 min 0,000 mm 4,2 UV-I 657 W/m² 6,9 °C 12,7 °C 12,9 km/h (3 Bft)
17.04.2019 11:30 12,8 °C 67 % 1019,9 hPa 0,0 mm 7,1 km/h (2 Bft) NO 38 ° 1 min 0,000 mm 4,2 UV-I 629 W/m² 6,8 °C 12,8 °C 9,7 km/h (2 Bft)
17.04.2019 11:31 12,8 °C 67 % 1020,0 hPa 0,0 mm 8,3 km/h (2 Bft) O 90 ° 1 min 0,000 mm 4,4 UV-I 773 W/m² 6,8 °C 12,8 °C 12,9 km/h (3 Bft)
17.04.2019 11:32 12,8 °C 66 % 1019,9 hPa 0,0 mm 7,1 km/h (2 Bft) O 97 ° 1 min 0,000 mm 4,3 UV-I 689 W/m² 6,6 °C 12,8 °C 9,7 km/h (2 Bft)
17.04.2019 11:33 12,8 °C 68 % 1020,0 hPa 0,0 mm 8,7 km/h (2 Bft) N-NO 18 ° 1 min 0,000 mm 4,4 UV-I 775 W/m² 7,0 °C 12,8 °C 14,5 km/h (3 Bft)
17.04.2019 11:34 12,8 °C 66 % 1020,0 hPa 0,0 mm 5,6 km/h (1 Bft) O-SO 103 ° 1 min 0,000 mm 4,7 UV-I 780 W/m² 6,6 °C 12,8 °C 9,7 km/h (2 Bft)
17.04.2019 11:35 12,8 °C 65 % 1020,0 hPa 0,0 mm 3,0 km/h (1 Bft) NO 46 ° 1 min 0,000 mm 4,6 UV-I 784 W/m² 6,4 °C 12,8 °C 6,4 km/h (2 Bft)
17.04.2019 11:36 12,8 °C 67 % 1020,0 hPa 0,0 mm 7,3 km/h (2 Bft) N-NO 22 ° 1 min 0,000 mm 4,5 UV-I 812 W/m² 6,8 °C 12,8 °C 14,5 km/h (3 Bft)
17.04.2019 11:37 12,8 °C 67 % 1019,9 hPa 0,0 mm 12,5 km/h (3 Bft) O 88 ° 1 min 0,000 mm 4,5 UV-I 812 W/m² 6,8 °C 12,8 °C 16,1 km/h (3 Bft)
17.04.2019 11:38 12,9 °C 65 % 1019,9 hPa 0,0 mm 9,4 km/h (2 Bft) O 80 ° 1 min 0,000 mm 4,3 UV-I 714 W/m² 6,5 °C 12,9 °C 14,5 km/h (3 Bft)
17.04.2019 11:39 12,8 °C 65 % 1019,9 hPa 0,0 mm 2,4 km/h (1 Bft) S-SW 197 ° 1 min 0,000 mm 4,2 UV-I 682 W/m² 6,4 °C 12,8 °C 6,4 km/h (2 Bft)
17.04.2019 11:40 12,8 °C 65 % 1019,9 hPa 0,0 mm 3,2 km/h (1 Bft) NO 34 ° 1 min 0,000 mm 4,0 UV-I 689 W/m² 6,4 °C 12,8 °C 8,0 km/h (2 Bft)
17.04.2019 11:41 12,8 °C 64 % 1019,9 hPa 0,0 mm 5,7 km/h (1 Bft) NO 38 ° 1 min 0,000 mm 3,9 UV-I 621 W/m² 6,2 °C 12,8 °C 8,0 km/h (2 Bft)
17.04.2019 11:42 12,7 °C 62 % 1019,9 hPa 0,0 mm 1,4 km/h (1 Bft) NO 53 ° 1 min 0,000 mm 3,9 UV-I 619 W/m² 5,6 °C 12,7 °C 3,2 km/h (1 Bft)
17.04.2019 11:43 12,8 °C 65 % 1019,9 hPa 0,0 mm 5,2 km/h (1 Bft) N-NO 13 ° 0 min 0,000 mm 3,8 UV-I 570 W/m² 6,4 °C 12,8 °C 9,7 km/h (2 Bft)
17.04.2019 11:44 12,9 °C 67 % 1019,9 hPa 0,0 mm 7,0 km/h (2 Bft) N-NO 15 ° 0 min 0,000 mm 3,8 UV-I 561 W/m² 6,9 °C 12,9 °C 9,7 km/h (2 Bft)
17.04.2019 11:45 13,1 °C 67 % 1019,9 hPa 0,0 mm 12,0 km/h (2 Bft) N 11 ° 0 min 0,000 mm 3,9 UV-I 585 W/m² 7,1 °C 13,1 °C 19,3 km/h (3 Bft)
17.04.2019 11:46 13,1 °C 65 % 1019,9 hPa 0,0 mm 9,9 km/h (2 Bft) O-NO 74 ° 0 min 0,000 mm 3,8 UV-I 564 W/m² 6,7 °C 13,1 °C 14,5 km/h (3 Bft)
17.04.2019 11:47 12,9 °C 61 % 1019,9 hPa 0,0 mm 5,7 km/h (1 Bft) NO 55 ° 0 min 0,000 mm 4,0 UV-I 596 W/m² 5,6 °C 12,9 °C 8,0 km/h (2 Bft)
17.04.2019 11:48 13,0 °C 61 % 1019,9 hPa 0,0 mm 6,0 km/h (2 Bft) O 80 ° 1 min 0,000 mm 4,1 UV-I 613 W/m² 5,7 °C 13,0 °C 12,9 km/h (3 Bft)
17.04.2019 11:49 12,9 °C 60 % 1019,9 hPa 0,0 mm 6,2 km/h (2 Bft) O 80 ° 1 min 0,000 mm 4,1 UV-I 652 W/m² 5,3 °C 12,9 °C 8,0 km/h (2 Bft)
17.04.2019 11:50 12,8 °C 61 % 1020,0 hPa 0,0 mm 10,2 km/h (2 Bft) O-NO 77 ° 1 min 0,000 mm 4,0 UV-I 615 W/m² 5,5 °C 12,8 °C 14,5 km/h (3 Bft)
17.04.2019 11:51 12,7 °C 61 % 1019,9 hPa 0,0 mm 7,3 km/h (2 Bft) O-NO 61 ° 1 min 0,000 mm 4,0 UV-I 615 W/m² 5,4 °C 12,7 °C 9,7 km/h (2 Bft)
17.04.2019 11:52 12,7 °C 62 % 1020,0 hPa 0,0 mm 7,6 km/h (2 Bft) O-NO 75 ° 0 min 0,000 mm 4,0 UV-I 594 W/m² 5,6 °C 12,7 °C 12,9 km/h (3 Bft)
17.04.2019 11:53 12,7 °C 63 % 1019,9 hPa 0,0 mm 6,6 km/h (2 Bft) O 84 ° 0 min 0,000 mm 3,9 UV-I 563 W/m² 5,8 °C 12,7 °C 11,3 km/h (2 Bft)
17.04.2019 11:54 12,7 °C 63 % 1019,9 hPa 0,0 mm 6,1 km/h (2 Bft) O-NO 59 ° 1 min 0,000 mm 3,9 UV-I 601 W/m² 5,8 °C 12,7 °C 9,7 km/h (2 Bft)
17.04.2019 11:55 12,7 °C 64 % 1019,9 hPa 0,0 mm 5,0 km/h (1 Bft) O-NO 67 ° 0 min 0,000 mm 3,8 UV-I 555 W/m² 6,1 °C 12,7 °C 9,7 km/h (2 Bft)
17.04.2019 11:56 12,7 °C 63 % 1020,0 hPa 0,0 mm 5,9 km/h (2 Bft) O 92 ° 0 min 0,000 mm 4,3 UV-I 555 W/m² 5,8 °C 12,7 °C 12,9 km/h (3 Bft)
17.04.2019 11:57 12,7 °C 64 % 1019,9 hPa 0,0 mm 5,2 km/h (1 Bft) N-NO 32 ° 0 min 0,000 mm 3,9 UV-I 575 W/m² 6,1 °C 12,7 °C 12,9 km/h (3 Bft)
17.04.2019 11:58 12,8 °C 63 % 1019,9 hPa 0,0 mm 10,0 km/h (2 Bft) NO 45 ° 1 min 0,000 mm 3,9 UV-I 615 W/m² 5,9 °C 12,8 °C 17,7 km/h (3 Bft)
17.04.2019 11:59 12,8 °C 62 % 1019,9 hPa 0,0 mm 9,1 km/h (2 Bft) O-NO 63 ° 1 min 0,000 mm 3,9 UV-I 619 W/m² 5,7 °C 12,8 °C 17,7 km/h (3 Bft)
17.04.2019 12:00 12,8 °C 62 % 1020,0 hPa 0,0 mm 7,8 km/h (2 Bft) NO 43 ° 1 min 0,000 mm 4,0 UV-I 640 W/m² 5,7 °C 12,8 °C 11,3 km/h (2 Bft)
17.04.2019 12:01 12,8 °C 63 % 1019,9 hPa 0,0 mm 5,2 km/h (1 Bft) NO 41 ° 1 min 0,305 mm 4,1 UV-I 649 W/m² 5,9 °C 12,8 °C 9,7 km/h (2 Bft)
17.04.2019 12:02 12,8 °C 62 % 1019,9 hPa 0,0 mm 3,3 km/h (1 Bft) NO 50 ° 0 min 0,000 mm 3,9 UV-I 599 W/m² 5,7 °C 12,8 °C 6,4 km/h (2 Bft)
17.04.2019 12:03 12,9 °C 62 % 1019,9 hPa 0,0 mm 6,8 km/h (2 Bft) NO 35 ° 0 min 0,000 mm 3,8 UV-I 545 W/m² 5,8 °C 12,9 °C 9,7 km/h (2 Bft)
17.04.2019 12:04 12,9 °C 62 % 1019,9 hPa 0,0 mm 8,6 km/h (2 Bft) NO 40 ° 0 min 0,000 mm 3,8 UV-I 534 W/m² 5,8 °C 12,9 °C 12,9 km/h (3 Bft)
17.04.2019 12:05 12,9 °C 61 % 1019,9 hPa 0,0 mm 6,6 km/h (2 Bft) N-NO 19 ° 0 min 0,000 mm 3,9 UV-I 577 W/m² 5,6 °C 12,9 °C 9,7 km/h (2 Bft)
17.04.2019 12:06 12,9 °C 63 % 1019,9 hPa 0,0 mm 1,5 km/h (1 Bft) O-SO 115 ° 0 min 0,000 mm 3,9 UV-I 573 W/m² 6,0 °C 12,9 °C 3,2 km/h (1 Bft)
17.04.2019 12:07 12,9 °C 62 % 1019,8 hPa 0,0 mm 1,3 km/h (1 Bft) O-NO 65 ° 0 min 0,000 mm 4,1 UV-I 570 W/m² 5,8 °C 12,9 °C 6,4 km/h (2 Bft)
17.04.2019 12:08 12,8 °C 64 % 1019,8 hPa 0,0 mm 4,7 km/h (1 Bft) N-NO 18 ° 0 min 0,000 mm 4,0 UV-I 564 W/m² 6,2 °C 12,8 °C 6,4 km/h (2 Bft)
17.04.2019 12:09 12,8 °C 64 % 1019,9 hPa 0,0 mm 8,1 km/h (2 Bft) N-NO 31 ° 0 min 0,000 mm 3,9 UV-I 547 W/m² 6,2 °C 12,8 °C 9,7 km/h (2 Bft)
17.04.2019 12:10 12,9 °C 64 % 1019,9 hPa 0,0 mm 10,8 km/h (2 Bft) N 10 ° 0 min 0,000 mm 4,0 UV-I 582 W/m² 6,3 °C 12,9 °C 14,5 km/h (3 Bft)
17.04.2019 12:11 13,0 °C 63 % 1019,9 hPa 0,0 mm 11,3 km/h (2 Bft) N 5 ° 0 min 0,000 mm 4,0 UV-I 596 W/m² 6,1 °C 13,0 °C 14,5 km/h (3 Bft)
17.04.2019 12:12 13,2 °C 63 % 1019,9 hPa 0,0 mm 11,8 km/h (2 Bft) N-NO 19 ° 0 min 0,000 mm 4,1 UV-I 596 W/m² 6,3 °C 13,2 °C 17,7 km/h (3 Bft)
17.04.2019 12:13 13,3 °C 62 % 1019,9 hPa 0,0 mm 12,7 km/h (3 Bft) O-NO 61 ° 0 min 0,000 mm 4,0 UV-I 571 W/m² 6,2 °C 13,3 °C 17,7 km/h (3 Bft)
17.04.2019 12:14 13,2 °C 61 % 1019,9 hPa 0,0 mm 9,1 km/h (2 Bft) O-NO 76 ° 1 min 0,000 mm 4,0 UV-I 603 W/m² 5,8 °C 13,2 °C 12,9 km/h (3 Bft)
17.04.2019 12:15 13,1 °C 60 % 1019,9 hPa 0,0 mm 9,2 km/h (2 Bft) O-NO 71 ° 0 min 0,000 mm 4,0 UV-I 573 W/m² 5,5 °C 13,1 °C 12,9 km/h (3 Bft)
17.04.2019 12:16 13,0 °C 63 % 1019,9 hPa 0,0 mm 8,3 km/h (2 Bft) NO 34 ° 1 min 0,000 mm 4,1 UV-I 643 W/m² 6,1 °C 13,0 °C 14,5 km/h (3 Bft)
17.04.2019 12:17 13,1 °C 63 % 1019,9 hPa 0,0 mm 13,0 km/h (3 Bft) O-NO 69 ° 0 min 0,000 mm 4,0 UV-I 548 W/m² 6,2 °C 13,1 °C 20,9 km/h (4 Bft)
17.04.2019 12:18 13,1 °C 61 % 1019,9 hPa 0,0 mm 11,1 km/h (2 Bft) O-NO 71 ° 0 min 0,000 mm 3,9 UV-I 591 W/m² 5,8 °C 13,1 °C 14,5 km/h (3 Bft)
17.04.2019 12:19 13,1 °C 60 % 1019,9 hPa 0,0 mm 10,9 km/h (2 Bft) N 355 ° 1 min 0,000 mm 4,1 UV-I 638 W/m² 5,5 °C 13,1 °C 16,1 km/h (3 Bft)
17.04.2019 12:20 13,1 °C 60 % 1019,9 hPa 0,0 mm 7,6 km/h (2 Bft) O-NO 68 ° 0 min 0,000 mm 4,0 UV-I 575 W/m² 5,5 °C 13,1 °C 11,3 km/h (2 Bft)
17.04.2019 12:21 13,0 °C 61 % 1019,8 hPa 0,0 mm 5,9 km/h (2 Bft) N-NO 30 ° 1 min 0,000 mm 4,5 UV-I 622 W/m² 5,7 °C 13,0 °C 8,0 km/h (2 Bft)
17.04.2019 12:22 13,1 °C 61 % 1019,8 hPa 0,0 mm 7,2 km/h (2 Bft) NO 54 ° 1 min 0,000 mm 4,3 UV-I 605 W/m² 5,8 °C 13,1 °C 9,7 km/h (2 Bft)
17.04.2019 12:23 13,4 °C 62 % 1019,8 hPa 0,0 mm 7,9 km/h (2 Bft) N-NO 15 ° 1 min 0,000 mm 4,5 UV-I 715 W/m² 6,3 °C 13,4 °C 12,9 km/h (3 Bft)
17.04.2019 12:24 13,4 °C 61 % 1019,8 hPa 0,0 mm 12,9 km/h (3 Bft) O-NO 73 ° 1 min 0,000 mm 4,6 UV-I 687 W/m² 6,0 °C 13,4 °C 17,7 km/h (3 Bft)
17.04.2019 12:25 13,3 °C 59 % 1019,8 hPa 0,0 mm 9,6 km/h (2 Bft) NO 54 ° 1 min 0,000 mm 4,3 UV-I 610 W/m² 5,5 °C 13,3 °C 16,1 km/h (3 Bft)
17.04.2019 12:26 13,3 °C 59 % 1019,9 hPa 0,0 mm 7,9 km/h (2 Bft) NO 48 ° 1 min 0,000 mm 4,7 UV-I 603 W/m² 5,5 °C 13,3 °C 14,5 km/h (3 Bft)
17.04.2019 12:27 13,2 °C 60 % 1019,9 hPa 0,0 mm 6,2 km/h (2 Bft) O 82 ° 0 min 0,000 mm 4,1 UV-I 589 W/m² 5,6 °C 13,2 °C 19,3 km/h (3 Bft)
17.04.2019 12:28 13,2 °C 61 % 1019,9 hPa 0,0 mm 11,8 km/h (2 Bft) NO 52 ° 0 min 0,000 mm 4,2 UV-I 561 W/m² 5,8 °C 13,2 °C 16,1 km/h (3 Bft)
17.04.2019 12:29 13,1 °C 62 % 1019,9 hPa 0,0 mm 6,9 km/h (2 Bft) N-NO 28 ° 0 min 0,000 mm 3,9 UV-I 550 W/m² 6,0 °C 13,1 °C 14,5 km/h (3 Bft)
17.04.2019 12:30 13,0 °C 60 % 1019,8 hPa 0,0 mm 8,4 km/h (2 Bft) NO 40 ° 0 min 0,000 mm 4,0 UV-I 568 W/m² 5,4 °C 13,0 °C 11,3 km/h (2 Bft)
17.04.2019 12:31 12,9 °C 61 % 1019,8 hPa 0,0 mm 11,6 km/h (2 Bft) NO 36 ° 1 min 0,000 mm 4,2 UV-I 615 W/m² 5,6 °C 12,9 °C 16,1 km/h (3 Bft)
17.04.2019 12:32 13,1 °C 63 % 1019,8 hPa 0,0 mm 11,0 km/h (2 Bft) O-NO 63 ° 0 min 0,000 mm 4,2 UV-I 578 W/m² 6,2 °C 13,1 °C 16,1 km/h (3 Bft)
17.04.2019 12:33 13,2 °C 61 % 1019,8 hPa 0,0 mm 9,1 km/h (2 Bft) O-NO 67 ° 0 min 0,000 mm 4,4 UV-I 552 W/m² 5,8 °C 13,2 °C 14,5 km/h (3 Bft)
17.04.2019 12:34 13,1 °C 61 % 1019,8 hPa 0,0 mm 5,6 km/h (1 Bft) N 355 ° 1 min 0,000 mm 4,2 UV-I 610 W/m² 5,8 °C 13,1 °C 11,3 km/h (2 Bft)
17.04.2019 12:35 13,2 °C 64 % 1019,8 hPa 0,0 mm 6,6 km/h (2 Bft) O-NO 63 ° 0 min 0,000 mm 4,1 UV-I 545 W/m² 6,5 °C 13,2 °C 16,1 km/h (3 Bft)
17.04.2019 12:36 13,3 °C 63 % 1019,8 hPa 0,0 mm 13,0 km/h (3 Bft) NO 47 ° 0 min 0,000 mm 4,2 UV-I 580 W/m² 6,4 °C 13,3 °C 17,7 km/h (3 Bft)
17.04.2019 12:37 13,2 °C 62 % 1019,8 hPa 0,0 mm 9,3 km/h (2 Bft) O-NO 78 ° 0 min 0,000 mm 4,1 UV-I 570 W/m² 6,1 °C 13,2 °C 16,1 km/h (3 Bft)
17.04.2019 12:38 13,2 °C 63 % 1019,8 hPa 0,0 mm 7,7 km/h (2 Bft) NO 54 ° 0 min 0,000 mm 4,1 UV-I 578 W/m² 6,3 °C 13,2 °C 16,1 km/h (3 Bft)
17.04.2019 12:39 13,2 °C 63 % 1019,8 hPa 0,0 mm 7,2 km/h (2 Bft) O-NO 78 ° 1 min 0,000 mm 4,4 UV-I 663 W/m² 6,3 °C 13,2 °C 12,9 km/h (3 Bft)
17.04.2019 12:40 13,1 °C 63 % 1019,8 hPa 0,0 mm 13,2 km/h (3 Bft) O 83 ° 0 min 0,000 mm 4,2 UV-I 587 W/m² 6,2 °C 13,1 °C 17,7 km/h (3 Bft)
17.04.2019 12:41 13,1 °C 62 % 1019,8 hPa 0,0 mm 12,3 km/h (3 Bft) O-SO 105 ° 0 min 0,000 mm 4,0 UV-I 587 W/m² 6,0 °C 13,1 °C 14,5 km/h (3 Bft)
17.04.2019 12:42 13,1 °C 63 % 1019,8 hPa 0,0 mm 12,9 km/h (3 Bft) O-SO 104 ° 0 min 0,000 mm 4,4 UV-I 587 W/m² 6,2 °C 13,1 °C 14,5 km/h (3 Bft)
17.04.2019 12:43 13,1 °C 65 % 1019,8 hPa 0,0 mm 12,0 km/h (2 Bft) O 88 ° 0 min 0,000 mm 4,4 UV-I 587 W/m² 6,7 °C 13,1 °C 17,7 km/h (3 Bft)
17.04.2019 12:44 13,1 °C 64 % 1019,8 hPa 0,0 mm 6,8 km/h (2 Bft) NO 42 ° 1 min 0,000 mm 4,6 UV-I 677 W/m² 6,4 °C 13,1 °C 9,7 km/h (2 Bft)
17.04.2019 12:45 13,1 °C 63 % 1019,8 hPa 0,0 mm 2,4 km/h (1 Bft) NO 44 ° 1 min 0,000 mm 4,3 UV-I 617 W/m² 6,2 °C 13,1 °C 3,2 km/h (1 Bft)
17.04.2019 12:46 13,1 °C 66 % 1019,8 hPa 0,0 mm 5,0 km/h (1 Bft) O 96 ° 1 min 0,000 mm 5,1 UV-I 617 W/m² 6,9 °C 13,1 °C 11,3 km/h (2 Bft)
17.04.2019 12:47 13,2 °C 64 % 1019,8 hPa 0,0 mm 8,4 km/h (2 Bft) NO 55 ° 1 min 0,000 mm 4,9 UV-I 747 W/m² 6,5 °C 13,2 °C 11,3 km/h (2 Bft)
17.04.2019 12:48 13,2 °C 64 % 1019,8 hPa 0,0 mm 8,0 km/h (2 Bft) O-NO 69 ° 1 min 0,000 mm 4,4 UV-I 747 W/m² 6,5 °C 13,2 °C 12,9 km/h (3 Bft)
17.04.2019 12:49 13,3 °C 64 % 1019,8 hPa 0,0 mm 6,0 km/h (2 Bft) O-NO 65 ° 1 min 0,000 mm 4,8 UV-I 763 W/m² 6,6 °C 13,3 °C 9,7 km/h (2 Bft)
17.04.2019 12:50 13,4 °C 63 % 1019,8 hPa 0,0 mm 10,5 km/h (2 Bft) O 86 ° 1 min 0,000 mm 4,6 UV-I 752 W/m² 6,5 °C 13,4 °C 14,5 km/h (3 Bft)
17.04.2019 12:51 13,3 °C 62 % 1019,8 hPa 0,0 mm 9,8 km/h (2 Bft) N-NO 19 ° 1 min 0,000 mm 4,5 UV-I 673 W/m² 6,2 °C 13,3 °C 12,9 km/h (3 Bft)
17.04.2019 12:52 13,4 °C 64 % 1019,8 hPa 0,0 mm 10,5 km/h (2 Bft) O 88 ° 1 min 0,000 mm 4,9 UV-I 844 W/m² 6,7 °C 13,4 °C 16,1 km/h (3 Bft)
17.04.2019 12:53 13,4 °C 63 % 1019,8 hPa 0,0 mm 10,7 km/h (2 Bft) O-NO 60 ° 1 min 0,000 mm 5,1 UV-I 803 W/m² 6,5 °C 13,4 °C 14,5 km/h (3 Bft)
17.04.2019 12:54 13,5 °C 64 % 1019,8 hPa 0,0 mm 9,9 km/h (2 Bft) O-NO 67 ° 1 min 0,000 mm 5,2 UV-I 895 W/m² 6,8 °C 13,5 °C 12,9 km/h (3 Bft)
17.04.2019 12:55 13,4 °C 63 % 1019,8 hPa 0,0 mm 6,7 km/h (2 Bft) O-NO 69 ° 1 min 0,000 mm 4,9 UV-I 819 W/m² 6,5 °C 13,4 °C 11,3 km/h (2 Bft)
17.04.2019 12:56 13,5 °C 65 % 1019,7 hPa 0,0 mm 3,6 km/h (1 Bft) O-NO 74 ° 1 min 0,000 mm 4,8 UV-I 835 W/m² 7,1 °C 13,5 °C 6,4 km/h (2 Bft)
17.04.2019 12:57 13,7 °C 68 % 1019,7 hPa 0,0 mm 2,6 km/h (1 Bft) N-NO 30 ° 0 min 0,000 mm 4,4 UV-I 582 W/m² 7,9 °C 13,7 °C 8,0 km/h (2 Bft)
17.04.2019 12:58 14,0 °C 68 % 1019,7 hPa 0,0 mm 8,4 km/h (2 Bft) NO 34 ° 0 min 0,000 mm 4,0 UV-I 490 W/m² 8,2 °C 14,0 °C 12,9 km/h (3 Bft)
17.04.2019 12:59 14,1 °C 65 % 1019,7 hPa 0,0 mm 4,5 km/h (1 Bft) O 80 ° 0 min 0,000 mm 3,9 UV-I 527 W/m² 7,6 °C 14,1 °C 9,7 km/h (2 Bft)
17.04.2019 13:00 13,9 °C 64 % 1019,7 hPa 0,0 mm 3,1 km/h (1 Bft) NO 42 ° 0 min 0,000 mm 4,0 UV-I 534 W/m² 7,2 °C 13,9 °C 4,8 km/h (1 Bft)
17.04.2019 13:01 13,9 °C 64 % 1019,7 hPa 0,0 mm 8,5 km/h (2 Bft) NO 51 ° 0 min 0,356 mm 4,1 UV-I 566 W/m² 7,2 °C 13,9 °C 17,7 km/h (3 Bft)
17.04.2019 13:02 13,8 °C 63 % 1019,7 hPa 0,0 mm 8,0 km/h (2 Bft) O 79 ° 0 min 0,000 mm 4,6 UV-I 566 W/m² 6,9 °C 13,8 °C 16,1 km/h (3 Bft)
17.04.2019 13:03 13,7 °C 63 % 1019,7 hPa 0,0 mm 3,1 km/h (1 Bft) O-NO 70 ° 0 min 0,000 mm 4,9 UV-I 566 W/m² 6,8 °C 13,7 °C 9,7 km/h (2 Bft)
17.04.2019 13:04 13,6 °C 63 % 1019,7 hPa 0,0 mm 3,8 km/h (1 Bft) NO 44 ° 1 min 0,000 mm 4,4 UV-I 740 W/m² 6,7 °C 13,6 °C 6,4 km/h (2 Bft)
17.04.2019 13:05 13,5 °C 65 % 1019,7 hPa 0,0 mm 5,8 km/h (2 Bft) O-NO 78 ° 1 min 0,000 mm 4,4 UV-I 717 W/m² 7,1 °C 13,5 °C 8,0 km/h (2 Bft)
17.04.2019 13:06 13,6 °C 65 % 1019,6 hPa 0,0 mm 10,8 km/h (2 Bft) SO 128 ° 1 min 0,000 mm 3,1 UV-I 717 W/m² 7,1 °C 13,6 °C 14,5 km/h (3 Bft)
17.04.2019 13:07 13,6 °C 66 % 1019,6 hPa 0,0 mm 9,5 km/h (2 Bft) SO 124 ° 0 min 0,000 mm 3,1 UV-I 248 W/m² 7,4 °C 13,6 °C 12,9 km/h (3 Bft)
17.04.2019 13:08 13,4 °C 64 % 1019,6 hPa 0,0 mm 5,2 km/h (1 Bft) O 100 ° 0 min 0,000 mm 3,3 UV-I 276 W/m² 6,7 °C 13,4 °C 8,0 km/h (2 Bft)
17.04.2019 13:09 13,3 °C 63 % 1019,5 hPa 0,0 mm 3,7 km/h (1 Bft) O-SO 103 ° 0 min 0,000 mm 4,9 UV-I 276 W/m² 6,4 °C 13,3 °C 4,8 km/h (1 Bft)
17.04.2019 13:10 13,2 °C 64 % 1019,6 hPa 0,0 mm 4,4 km/h (1 Bft) NO 41 ° 1 min 0,000 mm 5,1 UV-I 802 W/m² 6,5 °C 13,2 °C 14,5 km/h (3 Bft)
17.04.2019 13:11 13,4 °C 66 % 1019,6 hPa 0,0 mm 6,6 km/h (2 Bft) N-NO 24 ° 1 min 0,000 mm 4,9 UV-I 747 W/m² 7,2 °C 13,4 °C 11,3 km/h (2 Bft)
17.04.2019 13:12 13,7 °C 66 % 1019,6 hPa 0,0 mm 6,7 km/h (2 Bft) NO 49 ° 1 min 0,000 mm 5,0 UV-I 814 W/m² 7,5 °C 13,7 °C 12,9 km/h (3 Bft)
17.04.2019 13:13 13,7 °C 64 % 1019,6 hPa 0,0 mm 6,3 km/h (2 Bft) NO 55 ° 1 min 0,000 mm 5,0 UV-I 809 W/m² 7,0 °C 13,7 °C 11,3 km/h (2 Bft)
17.04.2019 13:14 13,8 °C 68 % 1019,6 hPa 0,0 mm 4,7 km/h (1 Bft) O-NO 61 ° 1 min 0,000 mm 5,1 UV-I 830 W/m² 8,0 °C 13,8 °C 8,0 km/h (2 Bft)
17.04.2019 13:15 13,9 °C 66 % 1019,6 hPa 0,0 mm 5,9 km/h (2 Bft) N-NO 20 ° 1 min 0,000 mm 5,0 UV-I 812 W/m² 7,7 °C 13,9 °C 9,7 km/h (2 Bft)
17.04.2019 13:16 13,9 °C 66 % 1019,6 hPa 0,0 mm 9,4 km/h (2 Bft) N 355 ° 1 min 0,000 mm 5,0 UV-I 840 W/m² 7,7 °C 13,9 °C 17,7 km/h (3 Bft)
17.04.2019 13:17 14,1 °C 67 % 1019,6 hPa 0,0 mm 7,8 km/h (2 Bft) NO 52 ° 1 min 0,000 mm 4,6 UV-I 840 W/m² 8,1 °C 14,1 °C 17,7 km/h (3 Bft)
17.04.2019 13:18 14,2 °C 64 % 1019,6 hPa 0,0 mm 10,9 km/h (2 Bft) N-NO 16 ° 1 min 0,000 mm 4,9 UV-I 840 W/m² 7,5 °C 14,2 °C 17,7 km/h (3 Bft)
17.04.2019 13:19 14,2 °C 63 % 1019,6 hPa 0,0 mm 12,0 km/h (2 Bft) NO 49 ° 1 min 0,000 mm 4,8 UV-I 791 W/m² 7,3 °C 14,2 °C 19,3 km/h (3 Bft)
17.04.2019 13:20 14,1 °C 61 % 1019,6 hPa 0,0 mm 7,4 km/h (2 Bft) NO 41 ° 1 min 0,000 mm 5,0 UV-I 846 W/m² 6,7 °C 14,1 °C 16,1 km/h (3 Bft)
17.04.2019 13:21 14,1 °C 60 % 1019,5 hPa 0,0 mm 4,4 km/h (1 Bft) O 94 ° 1 min 0,000 mm 5,2 UV-I 844 W/m² 6,5 °C 14,1 °C 6,4 km/h (2 Bft)
17.04.2019 13:22 14,0 °C 61 % 1019,5 hPa 0,0 mm 6,2 km/h (2 Bft) O 90 ° 1 min 0,000 mm 5,0 UV-I 805 W/m² 6,6 °C 14,0 °C 12,9 km/h (3 Bft)
17.04.2019 13:23 14,1 °C 64 % 1019,5 hPa 0,0 mm 9,4 km/h (2 Bft) NO 44 ° 1 min 0,000 mm 4,8 UV-I 777 W/m² 7,4 °C 14,1 °C 14,5 km/h (3 Bft)
17.04.2019 13:24 14,1 °C 60 % 1019,6 hPa 0,0 mm 9,7 km/h (2 Bft) N-NO 27 ° 1 min 0,000 mm 4,8 UV-I 737 W/m² 6,5 °C 14,1 °C 17,7 km/h (3 Bft)
17.04.2019 13:25 14,1 °C 60 % 1019,6 hPa 0,0 mm 11,5 km/h (2 Bft) O-NO 65 ° 1 min 0,000 mm 4,7 UV-I 728 W/m² 6,5 °C 14,1 °C 16,1 km/h (3 Bft)
17.04.2019 13:26 14,2 °C 61 % 1019,6 hPa 0,0 mm 11,3 km/h (2 Bft) O 100 ° 1 min 0,000 mm 4,6 UV-I 710 W/m² 6,8 °C 14,2 °C 16,1 km/h (3 Bft)
17.04.2019 13:27 14,1 °C 61 % 1019,6 hPa 0,0 mm 6,6 km/h (2 Bft) O-NO 69 ° 0 min 0,000 mm 4,2 UV-I 592 W/m² 6,7 °C 14,1 °C 11,3 km/h (2 Bft)
17.04.2019 13:28 13,9 °C 61 % 1019,5 hPa 0,0 mm 2,5 km/h (1 Bft) O-NO 69 ° 0 min 0,000 mm 4,0 UV-I 540 W/m² 6,5 °C 13,9 °C 6,4 km/h (2 Bft)
17.04.2019 13:29 13,9 °C 62 % 1019,5 hPa 0,0 mm 4,1 km/h (1 Bft) N 360 ° 1 min 0,000 mm 4,2 UV-I 601 W/m² 6,7 °C 13,9 °C 8,0 km/h (2 Bft)
17.04.2019 13:30 14,1 °C 62 % 1019,6 hPa 0,0 mm 13,1 km/h (3 Bft) N-NO 17 ° 0 min 0,000 mm 4,0 UV-I 563 W/m² 6,9 °C 14,1 °C 20,9 km/h (4 Bft)
17.04.2019 13:31 14,2 °C 61 % 1019,5 hPa 0,0 mm 15,4 km/h (3 Bft) NO 55 ° 0 min 0,000 mm 4,0 UV-I 540 W/m² 6,8 °C 14,2 °C 20,9 km/h (4 Bft)
17.04.2019 13:32 14,3 °C 62 % 1019,6 hPa 0,0 mm 6,8 km/h (2 Bft) O-NO 67 ° 1 min 0,000 mm 4,3 UV-I 638 W/m² 7,1 °C 14,3 °C 14,5 km/h (3 Bft)
17.04.2019 13:33 14,2 °C 62 % 1019,5 hPa 0,0 mm 9,6 km/h (2 Bft) O 80 ° 1 min 0,000 mm 3,9 UV-I 638 W/m² 7,0 °C 14,2 °C 14,5 km/h (3 Bft)
17.04.2019 13:34 14,2 °C 63 % 1019,5 hPa 0,0 mm 6,8 km/h (2 Bft) O 80 ° 1 min 0,000 mm 4,4 UV-I 684 W/m² 7,3 °C 14,2 °C 11,3 km/h (2 Bft)
17.04.2019 13:35 14,2 °C 63 % 1019,5 hPa 0,0 mm 9,9 km/h (2 Bft) NO 47 ° 1 min 0,000 mm 4,5 UV-I 752 W/m² 7,3 °C 14,2 °C 12,9 km/h (3 Bft)
17.04.2019 13:36 14,2 °C 62 % 1019,5 hPa 0,0 mm 8,9 km/h (2 Bft) NO 46 ° 1 min 0,000 mm 4,3 UV-I 700 W/m² 7,0 °C 14,2 °C 12,9 km/h (3 Bft)
17.04.2019 13:37 14,2 °C 62 % 1019,5 hPa 0,0 mm 3,7 km/h (1 Bft) NO 55 ° 1 min 0,000 mm 4,2 UV-I 650 W/m² 7,0 °C 14,2 °C 4,8 km/h (1 Bft)
17.04.2019 13:38 14,3 °C 63 % 1019,5 hPa 0,0 mm 6,5 km/h (2 Bft) O-NO 71 ° 0 min 0,000 mm 4,2 UV-I 564 W/m² 7,4 °C 14,3 °C 8,0 km/h (2 Bft)
17.04.2019 13:39 14,3 °C 62 % 1019,5 hPa 0,0 mm 8,9 km/h (2 Bft) N-NO 26 ° 0 min 0,000 mm 4,5 UV-I 564 W/m² 7,1 °C 14,3 °C 14,5 km/h (3 Bft)
17.04.2019 13:40 14,3 °C 60 % 1019,4 hPa 0,0 mm 6,1 km/h (2 Bft) NO 53 ° 0 min 0,000 mm 4,4 UV-I 564 W/m² 6,6 °C 14,3 °C 11,3 km/h (2 Bft)
17.04.2019 13:41 14,5 °C 61 % 1019,5 hPa 0,0 mm 6,4 km/h (2 Bft) NO 55 ° 1 min 0,000 mm 4,4 UV-I 675 W/m² 7,1 °C 14,5 °C 8,0 km/h (2 Bft)
17.04.2019 13:42 14,7 °C 60 % 1019,5 hPa 0,0 mm 7,8 km/h (2 Bft) NO 34 ° 1 min 0,000 mm 4,1 UV-I 675 W/m² 7,0 °C 14,7 °C 12,9 km/h (3 Bft)
17.04.2019 13:43 14,8 °C 59 % 1019,4 hPa 0,0 mm 9,3 km/h (2 Bft) NO 39 ° 1 min 0,000 mm 3,1 UV-I 675 W/m² 6,9 °C 14,8 °C 12,9 km/h (3 Bft)
17.04.2019 13:44 14,6 °C 59 % 1019,5 hPa 0,0 mm 3,7 km/h (1 Bft) N-NO 16 ° 0 min 0,000 mm 3,1 UV-I 294 W/m² 6,7 °C 14,6 °C 9,7 km/h (2 Bft)
17.04.2019 13:45 14,4 °C 58 % 1019,4 hPa 0,0 mm 5,3 km/h (1 Bft) NO 40 ° 0 min 0,000 mm 3,3 UV-I 294 W/m² 6,2 °C 14,4 °C 8,0 km/h (2 Bft)
17.04.2019 13:46 14,3 °C 59 % 1019,4 hPa 0,0 mm 12,4 km/h (3 Bft) O 101 ° 1 min 0,000 mm 4,4 UV-I 701 W/m² 6,4 °C 14,3 °C 14,5 km/h (3 Bft)
17.04.2019 13:47 14,2 °C 59 % 1019,4 hPa 0,0 mm 8,9 km/h (2 Bft) O-NO 70 ° 1 min 0,000 mm 4,1 UV-I 649 W/m² 6,3 °C 14,2 °C 16,1 km/h (3 Bft)
17.04.2019 13:48 14,2 °C 62 % 1019,4 hPa 0,0 mm 6,6 km/h (2 Bft) O-NO 76 ° 1 min 0,000 mm 3,1 UV-I 649 W/m² 7,0 °C 14,2 °C 8,0 km/h (2 Bft)
17.04.2019 13:49 14,1 °C 59 % 1019,4 hPa 0,0 mm 10,0 km/h (2 Bft) O-NO 76 ° 0 min 0,000 mm 3,2 UV-I 359 W/m² 6,2 °C 14,1 °C 14,5 km/h (3 Bft)
17.04.2019 13:50 13,9 °C 59 % 1019,4 hPa 0,0 mm 7,3 km/h (2 Bft) O 83 ° 0 min 0,000 mm 3,8 UV-I 422 W/m² 6,0 °C 13,9 °C 9,7 km/h (2 Bft)
17.04.2019 13:51 13,9 °C 60 % 1019,4 hPa 0,0 mm 3,7 km/h (1 Bft) O-NO 69 ° 1 min 0,000 mm 4,7 UV-I 728 W/m² 6,3 °C 13,9 °C 6,4 km/h (2 Bft)
17.04.2019 13:52 13,9 °C 60 % 1019,4 hPa 0,0 mm 5,9 km/h (2 Bft) NO 45 ° 1 min 0,000 mm 5,0 UV-I 817 W/m² 6,3 °C 13,9 °C 8,0 km/h (2 Bft)
17.04.2019 13:53 14,1 °C 61 % 1019,4 hPa 0,0 mm 9,3 km/h (2 Bft) O-NO 57 ° 1 min 0,000 mm 4,8 UV-I 786 W/m² 6,7 °C 14,1 °C 14,5 km/h (3 Bft)
17.04.2019 13:54 14,1 °C 60 % 1019,4 hPa 0,0 mm 6,9 km/h (2 Bft) NO 53 ° 1 min 0,000 mm 4,9 UV-I 814 W/m² 6,5 °C 14,1 °C 9,7 km/h (2 Bft)
17.04.2019 13:55 14,3 °C 61 % 1019,3 hPa 0,0 mm 5,6 km/h (1 Bft) O-NO 61 ° 1 min 0,000 mm 4,7 UV-I 733 W/m² 6,9 °C 14,3 °C 14,5 km/h (3 Bft)
17.04.2019 13:56 14,3 °C 61 % 1019,3 hPa 0,0 mm 10,0 km/h (2 Bft) N-NO 24 ° 1 min 0,000 mm 4,7 UV-I 775 W/m² 6,9 °C 14,3 °C 16,1 km/h (3 Bft)
17.04.2019 13:57 14,4 °C 60 % 1019,3 hPa 0,0 mm 6,3 km/h (2 Bft) N 360 ° 0 min 0,000 mm 3,7 UV-I 570 W/m² 6,7 °C 14,4 °C 12,9 km/h (3 Bft)
17.04.2019 13:58 14,4 °C 61 % 1019,3 hPa 0,0 mm 7,4 km/h (2 Bft) NO 42 ° 0 min 0,000 mm 4,9 UV-I 570 W/m² 7,0 °C 14,4 °C 16,1 km/h (3 Bft)
17.04.2019 13:59 14,5 °C 62 % 1019,3 hPa 0,0 mm 7,5 km/h (2 Bft) NO 36 ° 1 min 0,000 mm 4,8 UV-I 773 W/m² 7,3 °C 14,5 °C 14,5 km/h (3 Bft)
17.04.2019 14:00 14,5 °C 60 % 1019,3 hPa 0,0 mm 6,7 km/h (2 Bft) N 360 ° 1 min 0,000 mm 4,9 UV-I 802 W/m² 6,8 °C 14,5 °C 9,7 km/h (2 Bft)
17.04.2019 14:01 14,6 °C 60 % 1019,3 hPa 0,0 mm 4,2 km/h (1 Bft) N 350 ° 1 min 0,381 mm 5,0 UV-I 853 W/m² 6,9 °C 14,6 °C 6,4 km/h (2 Bft)
17.04.2019 14:02 14,7 °C 62 % 1019,3 hPa 0,0 mm 5,4 km/h (1 Bft) N-NO 30 ° 1 min 0,000 mm 5,1 UV-I 889 W/m² 7,5 °C 14,7 °C 9,7 km/h (2 Bft)
17.04.2019 14:03 14,7 °C 61 % 1019,2 hPa 0,0 mm 13,7 km/h (3 Bft) N-NO 12 ° 1 min 0,000 mm 4,9 UV-I 881 W/m² 7,3 °C 14,7 °C 19,3 km/h (3 Bft)
17.04.2019 14:04 15,0 °C 61 % 1019,3 hPa 0,0 mm 13,4 km/h (3 Bft) O 94 ° 1 min 0,000 mm 4,8 UV-I 884 W/m² 7,5 °C 15,0 °C 16,1 km/h (3 Bft)
17.04.2019 14:05 15,1 °C 59 % 1019,3 hPa 0,0 mm 7,7 km/h (2 Bft) NO 49 ° 1 min 0,000 mm 4,7 UV-I 875 W/m² 7,1 °C 15,1 °C 9,7 km/h (2 Bft)
17.04.2019 14:06 15,0 °C 58 % 1019,3 hPa 0,0 mm 6,6 km/h (2 Bft) NO 49 ° 1 min 0,000 mm 4,5 UV-I 860 W/m² 6,8 °C 15,0 °C 11,3 km/h (2 Bft)
17.04.2019 14:07 15,0 °C 59 % 1019,2 hPa 0,0 mm 9,7 km/h (2 Bft) N-NO 32 ° 1 min 0,000 mm 4,6 UV-I 860 W/m² 7,1 °C 15,0 °C 14,5 km/h (3 Bft)
17.04.2019 14:08 15,0 °C 58 % 1019,2 hPa 0,0 mm 10,3 km/h (2 Bft) O-SO 102 ° 1 min 0,000 mm 4,8 UV-I 782 W/m² 6,8 °C 15,0 °C 16,1 km/h (3 Bft)
17.04.2019 14:09 14,9 °C 58 % 1019,3 hPa 0,0 mm 11,3 km/h (2 Bft) NO 42 ° 1 min 0,000 mm 3,2 UV-I 782 W/m² 6,7 °C 14,9 °C 19,3 km/h (3 Bft)
17.04.2019 14:10 14,8 °C 57 % 1019,3 hPa 0,0 mm 5,6 km/h (1 Bft) O-NO 59 ° 1 min 0,000 mm 2,8 UV-I 782 W/m² 6,4 °C 14,8 °C 11,3 km/h (2 Bft)
17.04.2019 14:11 14,7 °C 58 % 1019,2 hPa 0,0 mm 9,2 km/h (2 Bft) O-NO 67 ° 0 min 0,000 mm 2,7 UV-I 243 W/m² 6,5 °C 14,7 °C 16,1 km/h (3 Bft)
17.04.2019 14:12 14,6 °C 56 % 1019,2 hPa 0,0 mm 10,7 km/h (2 Bft) O 94 ° 0 min 0,000 mm 2,8 UV-I 243 W/m² 5,9 °C 14,6 °C 17,7 km/h (3 Bft)
17.04.2019 14:13 14,5 °C 57 % 1019,3 hPa 0,0 mm 10,9 km/h (2 Bft) O-NO 71 ° 0 min 0,000 mm 4,5 UV-I 243 W/m² 6,1 °C 14,5 °C 16,1 km/h (3 Bft)
17.04.2019 14:14 14,4 °C 56 % 1019,2 hPa 0,0 mm 12,2 km/h (2 Bft) O 82 ° 1 min 0,000 mm 4,4 UV-I 717 W/m² 5,7 °C 14,4 °C 16,1 km/h (3 Bft)
17.04.2019 14:15 14,4 °C 57 % 1019,3 hPa 0,0 mm 9,7 km/h (2 Bft) O-NO 73 ° 1 min 0,000 mm 4,8 UV-I 777 W/m² 6,0 °C 14,4 °C 14,5 km/h (3 Bft)
17.04.2019 14:16 14,5 °C 56 % 1019,3 hPa 0,0 mm 4,5 km/h (1 Bft) NO 44 ° 1 min 0,000 mm 4,9 UV-I 844 W/m² 5,8 °C 14,5 °C 9,7 km/h (2 Bft)
17.04.2019 14:17 14,6 °C 57 % 1019,2 hPa 0,0 mm 3,1 km/h (1 Bft) N-NO 27 ° 1 min 0,000 mm 4,9 UV-I 830 W/m² 6,2 °C 14,6 °C 8,0 km/h (2 Bft)
17.04.2019 14:18 14,7 °C 56 % 1019,2 hPa 0,0 mm 10,8 km/h (2 Bft) O-NO 78 ° 1 min 0,000 mm 4,8 UV-I 803 W/m² 6,0 °C 14,7 °C 14,5 km/h (3 Bft)
17.04.2019 14:19 14,9 °C 57 % 1019,2 hPa 0,0 mm 9,3 km/h (2 Bft) O-NO 62 ° 1 min 0,000 mm 4,7 UV-I 782 W/m² 6,5 °C 14,9 °C 12,9 km/h (3 Bft)
17.04.2019 14:20 14,9 °C 55 % 1019,2 hPa 0,0 mm 8,7 km/h (2 Bft) NO 39 ° 1 min 0,000 mm 4,7 UV-I 758 W/m² 5,9 °C 14,9 °C 16,1 km/h (3 Bft)
17.04.2019 14:21 15,1 °C 53 % 1019,2 hPa 0,0 mm 11,4 km/h (2 Bft) O-NO 63 ° 1 min 0,000 mm 4,6 UV-I 735 W/m² 5,6 °C 15,1 °C 19,3 km/h (3 Bft)
17.04.2019 14:22 15,1 °C 53 % 1019,2 hPa 0,0 mm 8,7 km/h (2 Bft) O-NO 57 ° 1 min 0,000 mm 4,8 UV-I 791 W/m² 5,6 °C 15,1 °C 12,9 km/h (3 Bft)
17.04.2019 14:23 15,1 °C 53 % 1019,2 hPa 0,0 mm 7,8 km/h (2 Bft) NO 47 ° 1 min 0,000 mm 4,8 UV-I 803 W/m² 5,6 °C 15,1 °C 12,9 km/h (3 Bft)
17.04.2019 14:24 15,2 °C 54 % 1019,1 hPa 0,0 mm 5,4 km/h (1 Bft) NO 36 ° 1 min 0,000 mm 4,9 UV-I 828 W/m² 6,0 °C 15,2 °C 9,7 km/h (2 Bft)
17.04.2019 14:25 15,2 °C 53 % 1019,2 hPa 0,0 mm 6,1 km/h (2 Bft) O-NO 72 ° 1 min 0,000 mm 4,9 UV-I 846 W/m² 5,7 °C 15,2 °C 8,0 km/h (2 Bft)
17.04.2019 14:26 15,3 °C 54 % 1019,1 hPa 0,0 mm 4,7 km/h (1 Bft) O-NO 69 ° 1 min 0,000 mm 4,9 UV-I 865 W/m² 6,0 °C 15,3 °C 8,0 km/h (2 Bft)
17.04.2019 14:27 15,3 °C 55 % 1019,2 hPa 0,0 mm 2,1 km/h (1 Bft) O-NO 65 ° 1 min 0,000 mm 4,8 UV-I 854 W/m² 6,3 °C 15,3 °C 9,7 km/h (2 Bft)
17.04.2019 14:28 15,3 °C 54 % 1019,1 hPa 0,0 mm 10,7 km/h (2 Bft) O 94 ° 1 min 0,000 mm 4,7 UV-I 802 W/m² 6,0 °C 15,3 °C 14,5 km/h (3 Bft)
17.04.2019 14:29 15,3 °C 55 % 1019,1 hPa 0,0 mm 7,6 km/h (2 Bft) NO 56 ° 1 min 0,000 mm 4,5 UV-I 802 W/m² 6,3 °C 15,3 °C 11,3 km/h (2 Bft)
17.04.2019 14:30 15,4 °C 54 % 1019,1 hPa 0,0 mm 14,3 km/h (3 Bft) O 94 ° 1 min 0,000 mm 4,8 UV-I 751 W/m² 6,1 °C 15,4 °C 20,9 km/h (4 Bft)
17.04.2019 14:31 15,3 °C 54 % 1019,1 hPa 0,0 mm 9,7 km/h (2 Bft) NO 55 ° 1 min 0,000 mm 4,7 UV-I 780 W/m² 6,0 °C 15,3 °C 20,9 km/h (4 Bft)
17.04.2019 14:32 15,3 °C 52 % 1019,1 hPa 0,0 mm 9,9 km/h (2 Bft) O-NO 69 ° 1 min 0,000 mm 4,2 UV-I 700 W/m² 5,5 °C 15,3 °C 12,9 km/h (3 Bft)
17.04.2019 14:33 15,2 °C 52 % 1019,1 hPa 0,0 mm 8,8 km/h (2 Bft) O-NO 74 ° 1 min 0,000 mm 4,1 UV-I 700 W/m² 5,4 °C 15,2 °C 12,9 km/h (3 Bft)
17.04.2019 14:34 15,3 °C 55 % 1019,1 hPa 0,0 mm 5,4 km/h (1 Bft) O-NO 61 ° 1 min 0,000 mm 4,0 UV-I 657 W/m² 6,3 °C 15,3 °C 9,7 km/h (2 Bft)
17.04.2019 14:35 15,3 °C 53 % 1019,1 hPa 0,0 mm 9,3 km/h (2 Bft) O 98 ° 1 min 0,000 mm 4,0 UV-I 619 W/m² 5,8 °C 15,3 °C 14,5 km/h (3 Bft)
17.04.2019 14:36 15,2 °C 53 % 1019,1 hPa 0,0 mm 11,4 km/h (2 Bft) O-SO 109 ° 1 min 0,000 mm 4,0 UV-I 621 W/m² 5,7 °C 15,2 °C 19,3 km/h (3 Bft)
17.04.2019 14:37 15,2 °C 53 % 1019,1 hPa 0,0 mm 12,1 km/h (2 Bft) O-NO 78 ° 1 min 0,000 mm 4,0 UV-I 705 W/m² 5,7 °C 15,2 °C 17,7 km/h (3 Bft)
17.04.2019 14:38 15,2 °C 54 % 1019,1 hPa 0,0 mm 10,6 km/h (2 Bft) NO 47 ° 1 min 0,000 mm 4,3 UV-I 696 W/m² 6,0 °C 15,2 °C 14,5 km/h (3 Bft)
17.04.2019 14:39 15,1 °C 54 % 1019,1 hPa 0,0 mm 8,4 km/h (2 Bft) N-NO 30 ° 1 min 0,000 mm 4,5 UV-I 756 W/m² 5,9 °C 15,1 °C 19,3 km/h (3 Bft)
17.04.2019 14:40 15,1 °C 54 % 1019,1 hPa 0,0 mm 9,6 km/h (2 Bft) NO 55 ° 1 min 0,000 mm 4,5 UV-I 784 W/m² 5,9 °C 15,1 °C 16,1 km/h (3 Bft)
17.04.2019 14:41 15,1 °C 54 % 1019,1 hPa 0,0 mm 7,0 km/h (2 Bft) O-NO 74 ° 1 min 0,000 mm 3,8 UV-I 784 W/m² 5,9 °C 15,1 °C 17,7 km/h (3 Bft)
17.04.2019 14:42 15,2 °C 52 % 1019,1 hPa 0,0 mm 12,5 km/h (3 Bft) NO 34 ° 1 min 0,000 mm 4,3 UV-I 710 W/m² 5,4 °C 15,2 °C 17,7 km/h (3 Bft)
17.04.2019 14:43 15,2 °C 53 % 1019,1 hPa 0,0 mm 12,7 km/h (3 Bft) O-NO 75 ° 1 min 0,000 mm 3,0 UV-I 710 W/m² 5,7 °C 15,2 °C 17,7 km/h (3 Bft)
17.04.2019 14:44 15,1 °C 50 % 1019,1 hPa 0,0 mm 8,7 km/h (2 Bft) NO 36 ° 1 min 0,000 mm 3,9 UV-I 710 W/m² 4,8 °C 15,1 °C 12,9 km/h (3 Bft)
17.04.2019 14:45 15,1 °C 52 % 1019,1 hPa 0,0 mm 12,5 km/h (3 Bft) N-NW 342 ° 1 min 0,000 mm 4,1 UV-I 721 W/m² 5,3 °C 15,1 °C 19,3 km/h (3 Bft)
17.04.2019 14:46 15,1 °C 51 % 1019,2 hPa 0,0 mm 11,4 km/h (2 Bft) O-NO 60 ° 1 min 0,000 mm 4,1 UV-I 710 W/m² 5,0 °C 15,1 °C 17,7 km/h (3 Bft)
17.04.2019 14:47 15,1 °C 50 % 1019,2 hPa 0,0 mm 11,9 km/h (2 Bft) O-NO 60 ° 1 min 0,000 mm 4,3 UV-I 763 W/m² 4,8 °C 15,1 °C 17,7 km/h (3 Bft)
17.04.2019 14:48 15,1 °C 50 % 1019,1 hPa 0,0 mm 15,5 km/h (3 Bft) N-NO 19 ° 1 min 0,000 mm 4,2 UV-I 745 W/m² 4,8 °C 15,1 °C 20,9 km/h (4 Bft)
17.04.2019 14:49 15,1 °C 50 % 1019,1 hPa 0,0 mm 10,4 km/h (2 Bft) NO 36 ° 1 min 0,000 mm 4,0 UV-I 745 W/m² 4,8 °C 15,1 °C 14,5 km/h (3 Bft)
17.04.2019 14:50 15,1 °C 50 % 1019,1 hPa 0,0 mm 12,8 km/h (3 Bft) NO 51 ° 1 min 0,000 mm 3,6 UV-I 745 W/m² 4,8 °C 15,1 °C 16,1 km/h (3 Bft)
17.04.2019 14:51 15,1 °C 49 % 1019,0 hPa 0,0 mm 10,9 km/h (2 Bft) O-NO 74 ° 1 min 0,000 mm 3,3 UV-I 745 W/m² 4,5 °C 15,1 °C 16,1 km/h (3 Bft)
17.04.2019 14:52 15,1 °C 50 % 1019,1 hPa 0,0 mm 8,4 km/h (2 Bft) O 94 ° 0 min 0,000 mm 3,5 UV-I 534 W/m² 4,8 °C 15,1 °C 12,9 km/h (3 Bft)
17.04.2019 14:53 15,1 °C 50 % 1019,0 hPa 0,0 mm 7,2 km/h (2 Bft) O 83 ° 0 min 0,000 mm 3,7 UV-I 550 W/m² 4,8 °C 15,1 °C 9,7 km/h (2 Bft)
17.04.2019 14:54 15,1 °C 51 % 1019,0 hPa 0,0 mm 6,9 km/h (2 Bft) O-NO 71 ° 1 min 0,000 mm 3,8 UV-I 613 W/m² 5,0 °C 15,1 °C 9,7 km/h (2 Bft)
17.04.2019 14:55 15,1 °C 52 % 1019,0 hPa 0,0 mm 8,8 km/h (2 Bft) NO 54 ° 0 min 0,000 mm 2,6 UV-I 308 W/m² 5,3 °C 15,1 °C 14,5 km/h (3 Bft)
17.04.2019 14:56 15,1 °C 51 % 1019,0 hPa 0,0 mm 6,8 km/h (2 Bft) NO 54 ° 0 min 0,000 mm 4,1 UV-I 308 W/m² 5,0 °C 15,1 °C 12,9 km/h (3 Bft)
17.04.2019 14:57 15,0 °C 50 % 1019,0 hPa 0,0 mm 6,1 km/h (2 Bft) NO 49 ° 1 min 0,000 mm 4,1 UV-I 686 W/m² 4,7 °C 15,0 °C 8,0 km/h (2 Bft)
17.04.2019 14:58 15,0 °C 50 % 1019,0 hPa 0,0 mm 6,0 km/h (2 Bft) O 92 ° 1 min 0,000 mm 4,1 UV-I 671 W/m² 4,7 °C 15,0 °C 11,3 km/h (2 Bft)
17.04.2019 14:59 15,1 °C 52 % 1019,0 hPa 0,0 mm 4,7 km/h (1 Bft) NO 54 ° 1 min 0,000 mm 4,2 UV-I 701 W/m² 5,3 °C 15,1 °C 8,0 km/h (2 Bft)
17.04.2019 15:00 15,1 °C 50 % 1019,0 hPa 0,0 mm 7,8 km/h (2 Bft) NO 51 ° 1 min 0,000 mm 4,2 UV-I 717 W/m² 4,8 °C 15,1 °C 12,9 km/h (3 Bft)
17.04.2019 15:01 15,1 °C 49 % 1019,0 hPa 0,0 mm 8,7 km/h (2 Bft) NO 50 ° 1 min 0,406 mm 4,2 UV-I 738 W/m² 4,5 °C 15,1 °C 14,5 km/h (3 Bft)
17.04.2019 15:02 15,2 °C 50 % 1019,0 hPa 0,0 mm 7,2 km/h (2 Bft) N 9 ° 1 min 0,000 mm 4,3 UV-I 749 W/m² 4,8 °C 15,2 °C 12,9 km/h (3 Bft)
17.04.2019 15:03 15,3 °C 54 % 1019,0 hPa 0,0 mm 6,3 km/h (2 Bft) N-NO 24 ° 1 min 0,000 mm 4,3 UV-I 756 W/m² 6,0 °C 15,3 °C 11,3 km/h (2 Bft)
17.04.2019 15:04 15,4 °C 48 % 1018,9 hPa 0,0 mm 3,7 km/h (1 Bft) O-NO 75 ° 1 min 0,000 mm 4,3 UV-I 749 W/m² 4,4 °C 15,4 °C 9,7 km/h (2 Bft)
17.04.2019 15:05 15,3 °C 49 % 1019,0 hPa 0,0 mm 9,1 km/h (2 Bft) N-NO 19 ° 1 min 0,000 mm 4,2 UV-I 751 W/m² 4,7 °C 15,3 °C 14,5 km/h (3 Bft)
17.04.2019 15:06 15,3 °C 48 % 1018,9 hPa 0,0 mm 9,1 km/h (2 Bft) N 9 ° 1 min 0,000 mm 4,3 UV-I 784 W/m² 4,4 °C 15,3 °C 12,9 km/h (3 Bft)
17.04.2019 15:07 15,5 °C 48 % 1018,9 hPa 0,0 mm 9,1 km/h (2 Bft) N-NO 24 ° 1 min 0,000 mm 4,3 UV-I 779 W/m² 4,5 °C 15,5 °C 16,1 km/h (3 Bft)
17.04.2019 15:08 15,7 °C 50 % 1018,9 hPa 0,0 mm 8,2 km/h (2 Bft) N 10 ° 1 min 0,000 mm 4,0 UV-I 700 W/m² 5,3 °C 15,7 °C 17,7 km/h (3 Bft)
17.04.2019 15:09 15,8 °C 51 % 1018,9 hPa 0,0 mm 8,4 km/h (2 Bft) O-NO 59 ° 1 min 0,000 mm 3,2 UV-I 700 W/m² 5,7 °C 15,8 °C 11,3 km/h (2 Bft)
17.04.2019 15:10 15,7 °C 46 % 1018,9 hPa 0,0 mm 6,5 km/h (2 Bft) O-NO 62 ° 1 min 0,000 mm 3,5 UV-I 612 W/m² 4,1 °C 15,7 °C 9,7 km/h (2 Bft)
17.04.2019 15:11 15,6 °C 48 % 1018,9 hPa 0,0 mm 10,8 km/h (2 Bft) O 93 ° 1 min 0,000 mm 3,0 UV-I 612 W/m² 4,6 °C 15,6 °C 16,1 km/h (3 Bft)
17.04.2019 15:12 15,4 °C 48 % 1019,0 hPa 0,0 mm 10,6 km/h (2 Bft) N-NO 22 ° 1 min 0,000 mm 3,0 UV-I 603 W/m² 4,4 °C 15,4 °C 22,5 km/h (4 Bft)
17.04.2019 15:13 15,4 °C 46 % 1018,9 hPa 0,0 mm 10,4 km/h (2 Bft) O-NO 61 ° 1 min 0,000 mm 3,6 UV-I 615 W/m² 3,8 °C 15,4 °C 14,5 km/h (3 Bft)
17.04.2019 15:14 15,4 °C 46 % 1018,9 hPa 0,0 mm 10,6 km/h (2 Bft) O-NO 76 ° 1 min 0,000 mm 3,7 UV-I 612 W/m² 3,8 °C 15,4 °C 16,1 km/h (3 Bft)
17.04.2019 15:15 15,3 °C 47 % 1018,8 hPa 0,0 mm 10,7 km/h (2 Bft) O-SO 102 ° 1 min 0,000 mm 3,7 UV-I 624 W/m² 4,1 °C 15,3 °C 16,1 km/h (3 Bft)
17.04.2019 15:16 15,3 °C 49 % 1018,9 hPa 0,0 mm 7,8 km/h (2 Bft) NO 48 ° 1 min 0,000 mm 3,7 UV-I 619 W/m² 4,7 °C 15,3 °C 17,7 km/h (3 Bft)
17.04.2019 15:17 15,3 °C 47 % 1018,9 hPa 0,0 mm 12,7 km/h (3 Bft) O-NO 61 ° 1 min 0,000 mm 3,8 UV-I 640 W/m² 4,1 °C 15,3 °C 20,9 km/h (4 Bft)
17.04.2019 15:18 15,3 °C 46 % 1018,9 hPa 0,0 mm 15,0 km/h (3 Bft) O-NO 71 ° 0 min 0,000 mm 3,7 UV-I 559 W/m² 3,8 °C 15,3 °C 19,3 km/h (3 Bft)
17.04.2019 15:19 15,3 °C 47 % 1018,9 hPa 0,0 mm 11,2 km/h (2 Bft) O-NO 63 ° 0 min 0,000 mm 2,4 UV-I 496 W/m² 4,1 °C 15,3 °C 16,1 km/h (3 Bft)
17.04.2019 15:20 15,2 °C 47 % 1018,9 hPa 0,0 mm 9,7 km/h (2 Bft) N 11 ° 0 min 0,000 mm 2,2 UV-I 496 W/m² 4,0 °C 15,2 °C 11,3 km/h (2 Bft)
17.04.2019 15:21 15,1 °C 48 % 1018,8 hPa 0,0 mm 8,2 km/h (2 Bft) N-NO 32 ° 0 min 0,000 mm 2,4 UV-I 163 W/m² 4,2 °C 15,1 °C 14,5 km/h (3 Bft)
17.04.2019 15:22 15,1 °C 47 % 1018,8 hPa 0,0 mm 10,1 km/h (2 Bft) NO 36 ° 0 min 0,000 mm 2,5 UV-I 163 W/m² 3,9 °C 15,1 °C 16,1 km/h (3 Bft)
17.04.2019 15:23 15,0 °C 46 % 1018,9 hPa 0,0 mm 6,8 km/h (2 Bft) NO 38 ° 0 min 0,000 mm 3,2 UV-I 163 W/m² 3,5 °C 15,0 °C 14,5 km/h (3 Bft)
17.04.2019 15:24 15,0 °C 47 % 1018,9 hPa 0,0 mm 6,7 km/h (2 Bft) O-NO 78 ° 0 min 0,000 mm 3,8 UV-I 163 W/m² 3,8 °C 15,0 °C 11,3 km/h (2 Bft)
17.04.2019 15:25 15,0 °C 47 % 1018,9 hPa 0,0 mm 8,4 km/h (2 Bft) NO 42 ° 0 min 0,000 mm 3,5 UV-I 163 W/m² 3,8 °C 15,0 °C 12,9 km/h (3 Bft)
17.04.2019 15:26 15,1 °C 49 % 1018,9 hPa 0,0 mm 5,3 km/h (1 Bft) N-NO 31 ° 1 min 0,000 mm 3,8 UV-I 677 W/m² 4,5 °C 15,1 °C 8,0 km/h (2 Bft)
17.04.2019 15:27 15,2 °C 48 % 1018,9 hPa 0,0 mm 7,6 km/h (2 Bft) N-NO 15 ° 1 min 0,000 mm 3,8 UV-I 663 W/m² 4,3 °C 15,2 °C 11,3 km/h (2 Bft)
17.04.2019 15:28 15,3 °C 45 % 1018,9 hPa 0,0 mm 13,2 km/h (3 Bft) N-NO 24 ° 1 min 0,000 mm 3,7 UV-I 640 W/m² 3,4 °C 15,3 °C 17,7 km/h (3 Bft)
17.04.2019 15:29 15,4 °C 44 % 1018,8 hPa 0,0 mm 8,1 km/h (2 Bft) NO 36 ° 1 min 0,000 mm 3,6 UV-I 626 W/m² 3,2 °C 15,4 °C 16,1 km/h (3 Bft)
17.04.2019 15:30 15,4 °C 44 % 1018,8 hPa 0,0 mm 6,3 km/h (2 Bft) N-NO 30 ° 1 min 0,000 mm 3,6 UV-I 631 W/m² 3,2 °C 15,4 °C 9,7 km/h (2 Bft)
17.04.2019 15:31 15,5 °C 46 % 1018,8 hPa 0,0 mm 6,7 km/h (2 Bft) O-NO 64 ° 1 min 0,000 mm 3,8 UV-I 680 W/m² 3,9 °C 15,5 °C 12,9 km/h (3 Bft)
17.04.2019 15:32 15,6 °C 45 % 1018,8 hPa 0,0 mm 7,9 km/h (2 Bft) NO 50 ° 1 min 0,000 mm 3,8 UV-I 693 W/m² 3,7 °C 15,6 °C 9,7 km/h (2 Bft)
17.04.2019 15:33 15,6 °C 44 % 1018,8 hPa 0,0 mm 4,4 km/h (1 Bft) NO 35 ° 1 min 0,000 mm 3,8 UV-I 696 W/m² 3,4 °C 15,6 °C 6,4 km/h (2 Bft)
17.04.2019 15:34 15,5 °C 43 % 1018,7 hPa 0,0 mm 4,2 km/h (1 Bft) O 80 ° 1 min 0,000 mm 3,8 UV-I 693 W/m² 3,0 °C 15,5 °C 12,9 km/h (3 Bft)
17.04.2019 15:35 15,5 °C 45 % 1018,7 hPa 0,0 mm 11,8 km/h (2 Bft) N 5 ° 1 min 0,000 mm 3,8 UV-I 693 W/m² 3,6 °C 15,5 °C 14,5 km/h (3 Bft)
17.04.2019 15:36 15,6 °C 43 % 1018,7 hPa 0,0 mm 9,9 km/h (2 Bft) NO 38 ° 1 min 0,000 mm 3,8 UV-I 696 W/m² 3,1 °C 15,6 °C 12,9 km/h (3 Bft)
17.04.2019 15:37 15,6 °C 46 % 1018,7 hPa 0,0 mm 8,8 km/h (2 Bft) NO 48 ° 1 min 0,000 mm 3,8 UV-I 694 W/m² 4,0 °C 15,6 °C 16,1 km/h (3 Bft)
17.04.2019 15:38 15,7 °C 45 % 1018,7 hPa 0,0 mm 8,4 km/h (2 Bft) O-NO 71 ° 1 min 0,000 mm 3,8 UV-I 686 W/m² 3,8 °C 15,7 °C 14,5 km/h (3 Bft)
17.04.2019 15:39 15,8 °C 45 % 1018,7 hPa 0,0 mm 8,0 km/h (2 Bft) NO 40 ° 1 min 0,000 mm 3,7 UV-I 682 W/m² 3,9 °C 15,8 °C 16,1 km/h (3 Bft)
17.04.2019 15:40 15,8 °C 44 % 1018,7 hPa 0,0 mm 10,9 km/h (2 Bft) O-NO 74 ° 1 min 0,000 mm 3,7 UV-I 677 W/m² 3,6 °C 15,8 °C 17,7 km/h (3 Bft)
17.04.2019 15:41 15,8 °C 45 % 1018,7 hPa 0,0 mm 12,1 km/h (2 Bft) N 360 ° 1 min 0,000 mm 3,6 UV-I 673 W/m² 3,9 °C 15,8 °C 17,7 km/h (3 Bft)
17.04.2019 15:42 15,8 °C 45 % 1018,7 hPa 0,0 mm 10,8 km/h (2 Bft) NO 49 ° 1 min 0,000 mm 3,6 UV-I 668 W/m² 3,9 °C 15,8 °C 17,7 km/h (3 Bft)
17.04.2019 15:43 15,7 °C 44 % 1018,7 hPa 0,0 mm 13,8 km/h (3 Bft) N-NW 342 ° 1 min 0,000 mm 3,5 UV-I 671 W/m² 3,5 °C 15,7 °C 20,9 km/h (4 Bft)
17.04.2019 15:44 15,7 °C 42 % 1018,7 hPa 0,0 mm 11,7 km/h (2 Bft) N-NO 29 ° 1 min 0,000 mm 3,5 UV-I 663 W/m² 2,8 °C 15,7 °C 16,1 km/h (3 Bft)
17.04.2019 15:45 15,6 °C 43 % 1018,8 hPa 0,0 mm 8,4 km/h (2 Bft) O 80 ° 1 min 0,000 mm 3,5 UV-I 654 W/m² 3,1 °C 15,6 °C 12,9 km/h (3 Bft)
17.04.2019 15:46 15,6 °C 45 % 1018,7 hPa 0,0 mm 8,1 km/h (2 Bft) O-NO 65 ° 1 min 0,000 mm 3,4 UV-I 654 W/m² 3,7 °C 15,6 °C 12,9 km/h (3 Bft)
17.04.2019 15:47 15,6 °C 44 % 1018,7 hPa 0,0 mm 8,3 km/h (2 Bft) N 5 ° 1 min 0,000 mm 3,4 UV-I 654 W/m² 3,4 °C 15,6 °C 12,9 km/h (3 Bft)
17.04.2019 15:48 15,6 °C 45 % 1018,6 hPa 0,0 mm 10,6 km/h (2 Bft) N-NO 16 ° 1 min 0,000 mm 3,4 UV-I 652 W/m² 3,7 °C 15,6 °C 14,5 km/h (3 Bft)
17.04.2019 15:49 15,6 °C 44 % 1018,7 hPa 0,0 mm 10,3 km/h (2 Bft) N-NO 28 ° 1 min 0,000 mm 3,3 UV-I 645 W/m² 3,4 °C 15,6 °C 16,1 km/h (3 Bft)
17.04.2019 15:50 15,7 °C 43 % 1018,7 hPa 0,0 mm 6,5 km/h (2 Bft) N-NO 27 ° 1 min 0,000 mm 3,3 UV-I 633 W/m² 3,2 °C 15,7 °C 12,9 km/h (3 Bft)
17.04.2019 15:51 15,7 °C 44 % 1018,7 hPa 0,0 mm 13,5 km/h (3 Bft) O-NO 74 ° 1 min 0,000 mm 3,3 UV-I 642 W/m² 3,5 °C 15,7 °C 17,7 km/h (3 Bft)
17.04.2019 15:52 15,7 °C 43 % 1018,7 hPa 0,0 mm 13,3 km/h (3 Bft) O 84 ° 1 min 0,000 mm 3,3 UV-I 645 W/m² 3,2 °C 15,7 °C 17,7 km/h (3 Bft)
17.04.2019 15:53 15,6 °C 46 % 1018,7 hPa 0,0 mm 18,1 km/h (3 Bft) N-NO 15 ° 1 min 0,000 mm 3,3 UV-I 635 W/m² 4,0 °C 15,6 °C 27,4 km/h (4 Bft)
17.04.2019 15:54 15,7 °C 44 % 1018,7 hPa 0,0 mm 12,4 km/h (3 Bft) O-NO 60 ° 1 min 0,000 mm 3,2 UV-I 633 W/m² 3,5 °C 15,7 °C 17,7 km/h (3 Bft)
17.04.2019 15:55 15,7 °C 45 % 1018,7 hPa 0,0 mm 9,2 km/h (2 Bft) O 84 ° 1 min 0,000 mm 3,1 UV-I 621 W/m² 3,8 °C 15,7 °C 16,1 km/h (3 Bft)
17.04.2019 15:56 15,7 °C 45 % 1018,7 hPa 0,0 mm 6,8 km/h (2 Bft) O-NO 72 ° 1 min 0,000 mm 3,1 UV-I 622 W/m² 3,8 °C 15,7 °C 14,5 km/h (3 Bft)
17.04.2019 15:57 15,7 °C 45 % 1018,7 hPa 0,0 mm 11,7 km/h (2 Bft) NO 36 ° 1 min 0,000 mm 3,1 UV-I 612 W/m² 3,8 °C 15,7 °C 14,5 km/h (3 Bft)
17.04.2019 15:58 15,6 °C 44 % 1018,7 hPa 0,0 mm 5,4 km/h (1 Bft) O-NO 57 ° 1 min 0,000 mm 3,1 UV-I 606 W/m² 3,4 °C 15,6 °C 11,3 km/h (2 Bft)
17.04.2019 15:59 15,6 °C 44 % 1018,7 hPa 0,0 mm 6,8 km/h (2 Bft) O-NO 71 ° 1 min 0,000 mm 3,1 UV-I 629 W/m² 3,4 °C 15,6 °C 12,9 km/h (3 Bft)
17.04.2019 16:00 15,6 °C 44 % 1018,7 hPa 0,0 mm 10,7 km/h (2 Bft) O 84 ° 1 min 0,381 mm 3,1 UV-I 626 W/m² 3,4 °C 15,6 °C 12,9 km/h (3 Bft)
17.04.2019 16:01 15,6 °C 44 % 1018,6 hPa 0,0 mm 6,0 km/h (2 Bft) O-NO 68 ° 1 min 0,000 mm 3,1 UV-I 629 W/m² 3,4 °C 15,6 °C 8,0 km/h (2 Bft)
17.04.2019 16:02 15,6 °C 43 % 1018,6 hPa 0,0 mm 6,7 km/h (2 Bft) NO 48 ° 1 min 0,000 mm 3,1 UV-I 631 W/m² 3,1 °C 15,6 °C 9,7 km/h (2 Bft)
17.04.2019 16:03 15,6 °C 43 % 1018,6 hPa 0,0 mm 4,4 km/h (1 Bft) NO 53 ° 1 min 0,000 mm 3,1 UV-I 631 W/m² 3,1 °C 15,6 °C 6,4 km/h (2 Bft)
17.04.2019 16:04 15,7 °C 44 % 1018,6 hPa 0,0 mm 6,3 km/h (2 Bft) NO 41 ° 1 min 0,000 mm 3,1 UV-I 629 W/m² 3,5 °C 15,7 °C 9,7 km/h (2 Bft)
17.04.2019 16:05 15,7 °C 43 % 1018,6 hPa 0,0 mm 12,7 km/h (3 Bft) N-NO 19 ° 0 min 0,000 mm 3,1 UV-I 585 W/m² 3,2 °C 15,7 °C 17,7 km/h (3 Bft)
17.04.2019 16:06 15,8 °C 43 % 1018,6 hPa 0,0 mm 12,6 km/h (3 Bft) N-NO 24 ° 1 min 0,000 mm 3,1 UV-I 626 W/m² 3,3 °C 15,8 °C 16,1 km/h (3 Bft)
17.04.2019 16:07 15,8 °C 43 % 1018,7 hPa 0,0 mm 10,6 km/h (2 Bft) NO 36 ° 1 min 0,000 mm 2,0 UV-I 626 W/m² 3,3 °C 15,8 °C 17,7 km/h (3 Bft)
17.04.2019 16:08 15,7 °C 42 % 1018,6 hPa 0,0 mm 7,6 km/h (2 Bft) O 89 ° 0 min 0,000 mm 2,0 UV-I 123 W/m² 2,8 °C 15,7 °C 14,5 km/h (3 Bft)
17.04.2019 16:09 15,6 °C 41 % 1018,6 hPa 0,0 mm 9,0 km/h (2 Bft) O 96 ° 0 min 0,000 mm 2,5 UV-I 123 W/m² 2,4 °C 15,6 °C 12,9 km/h (3 Bft)
17.04.2019 16:10 15,4 °C 42 % 1018,6 hPa 0,0 mm 7,6 km/h (2 Bft) N-NO 30 ° 0 min 0,000 mm 2,0 UV-I 123 W/m² 2,6 °C 15,4 °C 14,5 km/h (3 Bft)
17.04.2019 16:11 15,4 °C 42 % 1018,6 hPa 0,0 mm 8,7 km/h (2 Bft) O-NO 74 ° 0 min 0,000 mm 2,4 UV-I 123 W/m² 2,6 °C 15,4 °C 12,9 km/h (3 Bft)
17.04.2019 16:12 15,3 °C 43 % 1018,6 hPa 0,0 mm 11,4 km/h (2 Bft) O-NO 72 ° 0 min 0,000 mm 3,0 UV-I 123 W/m² 2,8 °C 15,3 °C 14,5 km/h (3 Bft)
17.04.2019 16:13 15,4 °C 46 % 1018,7 hPa 0,0 mm 15,1 km/h (3 Bft) O-NO 72 ° 0 min 0,000 mm 2,9 UV-I 584 W/m² 3,8 °C 15,4 °C 22,5 km/h (4 Bft)
17.04.2019 16:14 15,4 °C 43 % 1018,6 hPa 0,0 mm 8,7 km/h (2 Bft) N-NO 22 ° 0 min 0,000 mm 2,9 UV-I 592 W/m² 2,9 °C 15,4 °C 12,9 km/h (3 Bft)
17.04.2019 16:15 15,5 °C 42 % 1018,6 hPa 0,0 mm 9,6 km/h (2 Bft) NO 51 ° 0 min 0,000 mm 2,8 UV-I 585 W/m² 2,6 °C 15,5 °C 16,1 km/h (3 Bft)
17.04.2019 16:16 15,6 °C 41 % 1018,6 hPa 0,0 mm 7,2 km/h (2 Bft) N-NO 26 ° 0 min 0,000 mm 2,8 UV-I 554 W/m² 2,4 °C 15,6 °C 16,1 km/h (3 Bft)
17.04.2019 16:17 15,7 °C 41 % 1018,6 hPa 0,0 mm 15,5 km/h (3 Bft) N-NO 30 ° 0 min 0,000 mm 2,7 UV-I 512 W/m² 2,5 °C 15,7 °C 22,5 km/h (4 Bft)
17.04.2019 16:18 15,7 °C 40 % 1018,6 hPa 0,0 mm 6,8 km/h (2 Bft) N-NW 335 ° 0 min 0,000 mm 2,7 UV-I 499 W/m² 2,1 °C 15,7 °C 9,7 km/h (2 Bft)
17.04.2019 16:19 15,7 °C 41 % 1018,6 hPa 0,0 mm 14,3 km/h (3 Bft) N-NW 348 ° 0 min 0,000 mm 2,6 UV-I 508 W/m² 2,5 °C 15,7 °C 20,9 km/h (4 Bft)
17.04.2019 16:20 15,7 °C 43 % 1018,6 hPa 0,0 mm 6,4 km/h (2 Bft) N 360 ° 0 min 0,000 mm 2,6 UV-I 545 W/m² 3,2 °C 15,7 °C 14,5 km/h (3 Bft)
17.04.2019 16:21 15,7 °C 41 % 1018,6 hPa 0,0 mm 6,7 km/h (2 Bft) O-NO 71 ° 0 min 0,000 mm 2,6 UV-I 471 W/m² 2,5 °C 15,7 °C 12,9 km/h (3 Bft)
17.04.2019 16:22 15,7 °C 41 % 1018,6 hPa 0,0 mm 10,0 km/h (2 Bft) N 5 ° 0 min 0,000 mm 2,4 UV-I 454 W/m² 2,5 °C 15,7 °C 16,1 km/h (3 Bft)
17.04.2019 16:23 15,7 °C 41 % 1018,5 hPa 0,0 mm 11,1 km/h (2 Bft) N-NO 32 ° 0 min 0,000 mm 2,3 UV-I 436 W/m² 2,5 °C 15,7 °C 14,5 km/h (3 Bft)
17.04.2019 16:24 15,8 °C 39 % 1018,6 hPa 0,0 mm 9,3 km/h (2 Bft) N 11 ° 0 min 0,000 mm 2,3 UV-I 452 W/m² 1,9 °C 15,8 °C 16,1 km/h (3 Bft)
17.04.2019 16:25 15,8 °C 40 % 1018,6 hPa 0,0 mm 12,1 km/h (2 Bft) NO 52 ° 0 min 0,000 mm 2,4 UV-I 424 W/m² 2,2 °C 15,8 °C 17,7 km/h (3 Bft)
17.04.2019 16:26 15,7 °C 41 % 1018,6 hPa 0,0 mm 11,3 km/h (2 Bft) O-NO 67 ° 0 min 0,000 mm 2,2 UV-I 381 W/m² 2,5 °C 15,7 °C 16,1 km/h (3 Bft)
17.04.2019 16:27 15,7 °C 42 % 1018,6 hPa 0,0 mm 9,0 km/h (2 Bft) O-NO 74 ° 0 min 0,000 mm 2,2 UV-I 408 W/m² 2,8 °C 15,7 °C 16,1 km/h (3 Bft)
17.04.2019 16:28 15,8 °C 45 % 1018,6 hPa 0,0 mm 6,2 km/h (2 Bft) NO 55 ° 0 min 0,000 mm 2,2 UV-I 334 W/m² 3,9 °C 15,8 °C 12,9 km/h (3 Bft)
17.04.2019 16:29 15,8 °C 42 % 1018,5 hPa 0,0 mm 10,5 km/h (2 Bft) O-NO 68 ° 0 min 0,000 mm 2,2 UV-I 334 W/m² 2,9 °C 15,8 °C 17,7 km/h (3 Bft)
17.04.2019 16:30 15,7 °C 43 % 1018,6 hPa 0,0 mm 7,0 km/h (2 Bft) O-NO 59 ° 0 min 0,000 mm 1,9 UV-I 120 W/m² 3,2 °C 15,7 °C 9,7 km/h (2 Bft)
17.04.2019 16:31 15,7 °C 42 % 1018,5 hPa 0,0 mm 7,6 km/h (2 Bft) O-NO 65 ° 0 min 0,000 mm 2,2 UV-I 120 W/m² 2,8 °C 15,7 °C 11,3 km/h (2 Bft)
17.04.2019 16:32 15,7 °C 43 % 1018,6 hPa 0,0 mm 11,2 km/h (2 Bft) O 84 ° 0 min 0,000 mm 2,2 UV-I 251 W/m² 3,2 °C 15,7 °C 17,7 km/h (3 Bft)
17.04.2019 16:33 15,7 °C 43 % 1018,5 hPa 0,0 mm 10,3 km/h (2 Bft) N-NO 30 ° 0 min 0,000 mm 2,2 UV-I 272 W/m² 3,2 °C 15,7 °C 16,1 km/h (3 Bft)
17.04.2019 16:34 15,7 °C 44 % 1018,6 hPa 0,0 mm 10,1 km/h (2 Bft) NO 53 ° 0 min 0,000 mm 2,1 UV-I 427 W/m² 3,5 °C 15,7 °C 19,3 km/h (3 Bft)
17.04.2019 16:35 15,7 °C 42 % 1018,6 hPa 0,0 mm 8,6 km/h (2 Bft) O-NO 75 ° 0 min 0,000 mm 2,2 UV-I 415 W/m² 2,8 °C 15,7 °C 19,3 km/h (3 Bft)
17.04.2019 16:36 15,8 °C 42 % 1018,6 hPa 0,0 mm 7,7 km/h (2 Bft) O-NO 59 ° 0 min 0,000 mm 2,2 UV-I 369 W/m² 2,9 °C 15,8 °C 11,3 km/h (2 Bft)
17.04.2019 16:37 15,7 °C 43 % 1018,5 hPa 0,0 mm 8,4 km/h (2 Bft) O 88 ° 0 min 0,000 mm 2,1 UV-I 302 W/m² 3,2 °C 15,7 °C 12,9 km/h (3 Bft)
17.04.2019 16:38 15,7 °C 43 % 1018,6 hPa 0,0 mm 9,8 km/h (2 Bft) NO 43 ° 0 min 0,000 mm 2,0 UV-I 302 W/m² 3,2 °C 15,7 °C 12,9 km/h (3 Bft)
17.04.2019 16:39 15,6 °C 40 % 1018,5 hPa 0,0 mm 8,0 km/h (2 Bft) NO 40 ° 0 min 0,000 mm 2,0 UV-I 214 W/m² 2,1 °C 15,6 °C 9,7 km/h (2 Bft)
17.04.2019 16:40 15,6 °C 40 % 1018,5 hPa 0,0 mm 6,0 km/h (2 Bft) NO 40 ° 0 min 0,000 mm 1,8 UV-I 355 W/m² 2,1 °C 15,6 °C 8,0 km/h (2 Bft)
17.04.2019 16:41 15,6 °C 41 % 1018,6 hPa 0,0 mm 10,7 km/h (2 Bft) N-NO 18 ° 0 min 0,000 mm 2,0 UV-I 381 W/m² 2,4 °C 15,6 °C 16,1 km/h (3 Bft)
17.04.2019 16:42 15,6 °C 42 % 1018,6 hPa 0,0 mm 12,4 km/h (3 Bft) N-NO 15 ° 0 min 0,000 mm 2,0 UV-I 322 W/m² 2,7 °C 15,6 °C 14,5 km/h (3 Bft)
17.04.2019 16:43 15,6 °C 40 % 1018,5 hPa 0,0 mm 9,8 km/h (2 Bft) NO 53 ° 0 min 0,000 mm 1,9 UV-I 350 W/m² 2,1 °C 15,6 °C 17,7 km/h (3 Bft)
17.04.2019 16:44 15,5 °C 39 % 1018,6 hPa 0,0 mm 7,0 km/h (2 Bft) NO 40 ° 0 min 0,000 mm 2,1 UV-I 404 W/m² 1,6 °C 15,5 °C 9,7 km/h (2 Bft)
17.04.2019 16:45 15,5 °C 39 % 1018,5 hPa 0,0 mm 8,1 km/h (2 Bft) O 98 ° 0 min 0,000 mm 2,1 UV-I 399 W/m² 1,6 °C 15,5 °C 9,7 km/h (2 Bft)
17.04.2019 16:46 15,4 °C 38 % 1018,5 hPa 0,0 mm 4,0 km/h (1 Bft) O-NO 67 ° 0 min 0,000 mm 2,1 UV-I 388 W/m² 1,2 °C 15,4 °C 6,4 km/h (2 Bft)
17.04.2019 16:47 15,4 °C 40 % 1018,5 hPa 0,0 mm 3,3 km/h (1 Bft) NO 45 ° 0 min 0,000 mm 2,0 UV-I 353 W/m² 1,9 °C 15,4 °C 4,8 km/h (1 Bft)
17.04.2019 16:48 15,4 °C 39 % 1018,5 hPa 0,0 mm 2,1 km/h (1 Bft) NO 51 ° 0 min 0,000 mm 2,0 UV-I 336 W/m² 1,5 °C 15,4 °C 4,8 km/h (1 Bft)
17.04.2019 16:49 15,4 °C 40 % 1018,5 hPa 0,0 mm 8,5 km/h (2 Bft) O-NO 65 ° 0 min 0,000 mm 1,9 UV-I 255 W/m² 1,9 °C 15,4 °C 12,9 km/h (3 Bft)
17.04.2019 16:50 15,4 °C 41 % 1018,5 hPa 0,0 mm 8,4 km/h (2 Bft) NO 36 ° 0 min 0,000 mm 1,8 UV-I 229 W/m² 2,2 °C 15,4 °C 14,5 km/h (3 Bft)
17.04.2019 16:51 15,5 °C 43 % 1018,5 hPa 0,0 mm 10,0 km/h (2 Bft) O-NO 73 ° 0 min 0,000 mm 1,8 UV-I 248 W/m² 3,0 °C 15,5 °C 16,1 km/h (3 Bft)
17.04.2019 16:52 15,6 °C 45 % 1018,5 hPa 0,0 mm 7,3 km/h (2 Bft) O-NO 71 ° 0 min 0,000 mm 1,8 UV-I 267 W/m² 3,7 °C 15,6 °C 11,3 km/h (2 Bft)
17.04.2019 16:53 15,6 °C 44 % 1018,5 hPa 0,0 mm 5,8 km/h (2 Bft) N-NO 26 ° 0 min 0,000 mm 1,9 UV-I 315 W/m² 3,4 °C 15,6 °C 8,0 km/h (2 Bft)
17.04.2019 16:54 15,6 °C 43 % 1018,5 hPa 0,0 mm 9,3 km/h (2 Bft) NO 37 ° 0 min 0,000 mm 1,9 UV-I 281 W/m² 3,1 °C 15,6 °C 14,5 km/h (3 Bft)
17.04.2019 16:55 15,7 °C 40 % 1018,5 hPa 0,0 mm 9,5 km/h (2 Bft) NO 44 ° 0 min 0,000 mm 2,0 UV-I 239 W/m² 2,1 °C 15,7 °C 16,1 km/h (3 Bft)
17.04.2019 16:56 15,6 °C 39 % 1018,5 hPa 0,0 mm 7,8 km/h (2 Bft) NO 47 ° 0 min 0,000 mm 1,9 UV-I 174 W/m² 1,7 °C 15,6 °C 11,3 km/h (2 Bft)
17.04.2019 16:57 15,6 °C 39 % 1018,5 hPa 0,0 mm 6,4 km/h (2 Bft) O 86 ° 0 min 0,000 mm 1,7 UV-I 199 W/m² 1,7 °C 15,6 °C 11,3 km/h (2 Bft)
17.04.2019 16:58 15,6 °C 41 % 1018,6 hPa 0,0 mm 8,4 km/h (2 Bft) O 101 ° 0 min 0,000 mm 1,7 UV-I 213 W/m² 2,4 °C 15,6 °C 16,1 km/h (3 Bft)
17.04.2019 16:59 15,6 °C 40 % 1018,6 hPa 0,0 mm 8,7 km/h (2 Bft) O 82 ° 0 min 0,000 mm 1,7 UV-I 272 W/m² 2,1 °C 15,6 °C 12,9 km/h (3 Bft)
17.04.2019 17:00 15,6 °C 40 % 1018,5 hPa 0,0 mm 11,0 km/h (2 Bft) O-NO 78 ° 0 min 0,000 mm 1,7 UV-I 285 W/m² 2,1 °C 15,6 °C 16,1 km/h (3 Bft)
17.04.2019 17:01 15,4 °C 39 % 1018,5 hPa 0,0 mm 8,9 km/h (2 Bft) O-NO 64 ° 0 min 0,254 mm 1,7 UV-I 239 W/m² 1,5 °C 15,4 °C 16,1 km/h (3 Bft)
17.04.2019 17:02 15,5 °C 43 % 1018,5 hPa 0,0 mm 6,7 km/h (2 Bft) O-NO 63 ° 0 min 0,000 mm 1,6 UV-I 251 W/m² 3,0 °C 15,5 °C 11,3 km/h (2 Bft)
17.04.2019 17:03 15,6 °C 40 % 1018,5 hPa 0,0 mm 9,3 km/h (2 Bft) O-NO 66 ° 0 min 0,000 mm 1,6 UV-I 295 W/m² 2,1 °C 15,6 °C 12,9 km/h (3 Bft)
17.04.2019 17:04 15,5 °C 39 % 1018,6 hPa 0,0 mm 10,5 km/h (2 Bft) O-NO 57 ° 0 min 0,000 mm 1,7 UV-I 338 W/m² 1,6 °C 15,5 °C 16,1 km/h (3 Bft)
17.04.2019 17:05 15,4 °C 39 % 1018,6 hPa 0,0 mm 7,4 km/h (2 Bft) O 89 ° 0 min 0,000 mm 1,7 UV-I 278 W/m² 1,5 °C 15,4 °C 11,3 km/h (2 Bft)
17.04.2019 17:06 15,4 °C 41 % 1018,6 hPa 0,0 mm 7,5 km/h (2 Bft) NO 46 ° 0 min 0,000 mm 1,6 UV-I 290 W/m² 2,2 °C 15,4 °C 12,9 km/h (3 Bft)
17.04.2019 17:07 15,4 °C 41 % 1018,5 hPa 0,0 mm 9,2 km/h (2 Bft) O-NO 74 ° 0 min 0,000 mm 1,6 UV-I 350 W/m² 2,2 °C 15,4 °C 12,9 km/h (3 Bft)
17.04.2019 17:08 15,5 °C 41 % 1018,5 hPa 0,0 mm 12,8 km/h (3 Bft) O-NO 57 ° 0 min 0,000 mm 1,7 UV-I 346 W/m² 2,3 °C 15,5 °C 16,1 km/h (3 Bft)
17.04.2019 17:09 15,5 °C 40 % 1018,6 hPa 0,0 mm 9,0 km/h (2 Bft) O-NO 60 ° 0 min 0,000 mm 1,6 UV-I 279 W/m² 2,0 °C 15,5 °C 14,5 km/h (3 Bft)
17.04.2019 17:10 15,6 °C 41 % 1018,6 hPa 0,0 mm 11,5 km/h (2 Bft) O 94 ° 0 min 0,000 mm 1,5 UV-I 239 W/m² 2,4 °C 15,6 °C 19,3 km/h (3 Bft)
17.04.2019 17:11 15,6 °C 42 % 1018,6 hPa 0,0 mm 9,5 km/h (2 Bft) O-NO 76 ° 0 min 0,000 mm 1,4 UV-I 174 W/m² 2,7 °C 15,6 °C 14,5 km/h (3 Bft)
17.04.2019 17:12 15,5 °C 40 % 1018,6 hPa 0,0 mm 11,7 km/h (2 Bft) N-NO 30 ° 0 min 0,000 mm 1,4 UV-I 120 W/m² 2,0 °C 15,5 °C 16,1 km/h (3 Bft)
17.04.2019 17:13 15,4 °C 38 % 1018,6 hPa 0,0 mm 9,3 km/h (2 Bft) O-NO 75 ° 0 min 0,000 mm 1,5 UV-I 84 W/m² 1,2 °C 15,4 °C 17,7 km/h (3 Bft)
17.04.2019 17:14 15,4 °C 39 % 1018,6 hPa 0,0 mm 9,3 km/h (2 Bft) O 85 ° 0 min 0,000 mm 1,6 UV-I 104 W/m² 1,5 °C 15,4 °C 14,5 km/h (3 Bft)
17.04.2019 17:15 15,3 °C 39 % 1018,6 hPa 0,0 mm 9,9 km/h (2 Bft) NO 51 ° 0 min 0,000 mm 1,8 UV-I 274 W/m² 1,4 °C 15,3 °C 14,5 km/h (3 Bft)
17.04.2019 17:16 15,3 °C 39 % 1018,6 hPa 0,0 mm 14,8 km/h (3 Bft) O-NO 78 ° 0 min 0,000 mm 1,8 UV-I 295 W/m² 1,4 °C 15,3 °C 19,3 km/h (3 Bft)
17.04.2019 17:17 15,2 °C 38 % 1018,6 hPa 0,0 mm 12,9 km/h (3 Bft) O 80 ° 0 min 0,000 mm 1,6 UV-I 320 W/m² 1,0 °C 15,2 °C 20,9 km/h (4 Bft)
17.04.2019 17:18 15,2 °C 39 % 1018,6 hPa 0,0 mm 8,7 km/h (2 Bft) O-NO 59 ° 0 min 0,000 mm 1,4 UV-I 255 W/m² 1,3 °C 15,2 °C 12,9 km/h (3 Bft)
17.04.2019 17:19 15,2 °C 38 % 1018,6 hPa 0,0 mm 9,7 km/h (2 Bft) NO 38 ° 0 min 0,000 mm 1,4 UV-I 255 W/m² 1,0 °C 15,2 °C 14,5 km/h (3 Bft)
17.04.2019 17:20 15,1 °C 39 % 1018,6 hPa 0,0 mm 11,6 km/h (2 Bft) NO 42 ° 0 min 0,000 mm 1,5 UV-I 113 W/m² 1,3 °C 15,1 °C 24,1 km/h (4 Bft)
17.04.2019 17:21 15,1 °C 39 % 1018,7 hPa 0,0 mm 13,0 km/h (3 Bft) O-NO 63 ° 0 min 0,000 mm 1,4 UV-I 120 W/m² 1,3 °C 15,1 °C 19,3 km/h (3 Bft)
17.04.2019 17:22 15,1 °C 38 % 1018,7 hPa 0,0 mm 9,4 km/h (2 Bft) O 86 ° 0 min 0,000 mm 1,4 UV-I 144 W/m² 0,9 °C 15,1 °C 17,7 km/h (3 Bft)
17.04.2019 17:23 15,1 °C 38 % 1018,7 hPa 0,0 mm 7,4 km/h (2 Bft) NO 42 ° 0 min 0,000 mm 1,5 UV-I 229 W/m² 0,9 °C 15,1 °C 16,1 km/h (3 Bft)
17.04.2019 17:24 15,0 °C 40 % 1018,6 hPa 0,0 mm 10,6 km/h (2 Bft) O-NO 69 ° 0 min 0,000 mm 1,4 UV-I 176 W/m² 1,5 °C 15,0 °C 17,7 km/h (3 Bft)
17.04.2019 17:25 15,0 °C 40 % 1018,7 hPa 0,0 mm 7,4 km/h (2 Bft) NO 52 ° 0 min 0,000 mm 1,4 UV-I 130 W/m² 1,5 °C 15,0 °C 11,3 km/h (2 Bft)
17.04.2019 17:26 15,0 °C 40 % 1018,6 hPa 0,0 mm 10,2 km/h (2 Bft) O-NO 60 ° 0 min 0,000 mm 1,3 UV-I 160 W/m² 1,5 °C 15,0 °C 14,5 km/h (3 Bft)
17.04.2019 17:27 15,0 °C 39 % 1018,6 hPa 0,0 mm 10,2 km/h (2 Bft) N-NO 22 ° 0 min 0,000 mm 1,3 UV-I 84 W/m² 1,2 °C 15,0 °C 14,5 km/h (3 Bft)
17.04.2019 17:28 15,1 °C 40 % 1018,6 hPa 0,0 mm 11,0 km/h (2 Bft) N 11 ° 0 min 0,000 mm 1,3 UV-I 70 W/m² 1,6 °C 15,1 °C 19,3 km/h (3 Bft)
17.04.2019 17:29 15,1 °C 40 % 1018,6 hPa 0,0 mm 7,5 km/h (2 Bft) N-NO 31 ° 0 min 0,000 mm 1,3 UV-I 77 W/m² 1,6 °C 15,1 °C 12,9 km/h (3 Bft)
17.04.2019 17:30 15,1 °C 39 % 1018,6 hPa 0,0 mm 13,6 km/h (3 Bft) O 84 ° 0 min 0,000 mm 1,3 UV-I 93 W/m² 1,3 °C 15,1 °C 19,3 km/h (3 Bft)
17.04.2019 17:31 15,1 °C 40 % 1018,6 hPa 0,0 mm 4,3 km/h (1 Bft) NO 53 ° 0 min 0,000 mm 1,2 UV-I 95 W/m² 1,6 °C 15,1 °C 9,7 km/h (2 Bft)
17.04.2019 17:32 15,2 °C 40 % 1018,6 hPa 0,0 mm 11,1 km/h (2 Bft) NO 44 ° 0 min 0,000 mm 1,2 UV-I 83 W/m² 1,7 °C 15,2 °C 17,7 km/h (3 Bft)
17.04.2019 17:33 15,2 °C 41 % 1018,6 hPa 0,0 mm 13,1 km/h (3 Bft) NO 47 ° 0 min 0,000 mm 1,2 UV-I 63 W/m² 2,0 °C 15,2 °C 20,9 km/h (4 Bft)
17.04.2019 17:34 15,2 °C 39 % 1018,6 hPa 0,0 mm 9,7 km/h (2 Bft) NO 40 ° 0 min 0,000 mm 1,2 UV-I 76 W/m² 1,3 °C 15,2 °C 12,9 km/h (3 Bft)
17.04.2019 17:35 15,1 °C 40 % 1018,6 hPa 0,0 mm 11,5 km/h (2 Bft) O-NO 71 ° 0 min 0,000 mm 1,3 UV-I 148 W/m² 1,6 °C 15,1 °C 17,7 km/h (3 Bft)
17.04.2019 17:36 15,1 °C 39 % 1018,7 hPa 0,0 mm 13,5 km/h (3 Bft) NO 41 ° 0 min 0,000 mm 1,3 UV-I 232 W/m² 1,3 °C 15,1 °C 19,3 km/h (3 Bft)
17.04.2019 17:37 15,1 °C 38 % 1018,7 hPa 0,0 mm 13,1 km/h (3 Bft) NO 50 ° 0 min 0,000 mm 1,3 UV-I 192 W/m² 0,9 °C 15,1 °C 17,7 km/h (3 Bft)
17.04.2019 17:38 15,0 °C 38 % 1018,6 hPa 0,0 mm 9,7 km/h (2 Bft) NO 46 ° 0 min 0,000 mm 1,3 UV-I 179 W/m² 0,8 °C 15,0 °C 14,5 km/h (3 Bft)
17.04.2019 17:39 15,0 °C 40 % 1018,6 hPa 0,0 mm 8,3 km/h (2 Bft) NO 51 ° 0 min 0,000 mm 1,4 UV-I 295 W/m² 1,5 °C 15,0 °C 11,3 km/h (2 Bft)
17.04.2019 17:40 15,0 °C 40 % 1018,7 hPa 0,0 mm 13,3 km/h (3 Bft) NO 55 ° 0 min 0,000 mm 1,3 UV-I 274 W/m² 1,5 °C 15,0 °C 19,3 km/h (3 Bft)
17.04.2019 17:41 15,1 °C 40 % 1018,6 hPa 0,0 mm 9,4 km/h (2 Bft) O-NO 74 ° 0 min 0,000 mm 1,2 UV-I 236 W/m² 1,6 °C 15,1 °C 12,9 km/h (3 Bft)
17.04.2019 17:42 15,1 °C 40 % 1018,6 hPa 0,0 mm 14,3 km/h (3 Bft) O-NO 63 ° 0 min 0,000 mm 1,2 UV-I 195 W/m² 1,6 °C 15,1 °C 22,5 km/h (4 Bft)
17.04.2019 17:43 15,1 °C 40 % 1018,7 hPa 0,0 mm 6,7 km/h (2 Bft) O 94 ° 0 min 0,000 mm 1,3 UV-I 178 W/m² 1,6 °C 15,1 °C 12,9 km/h (3 Bft)
17.04.2019 17:44 15,1 °C 40 % 1018,7 hPa 0,0 mm 9,4 km/h (2 Bft) O-NO 65 ° 0 min 0,000 mm 1,1 UV-I 107 W/m² 1,6 °C 15,1 °C 16,1 km/h (3 Bft)
17.04.2019 17:45 15,0 °C 40 % 1018,7 hPa 0,0 mm 11,3 km/h (2 Bft) O-NO 73 ° 0 min 0,000 mm 1,1 UV-I 93 W/m² 1,5 °C 15,0 °C 17,7 km/h (3 Bft)
17.04.2019 17:46 15,0 °C 40 % 1018,7 hPa 0,0 mm 9,0 km/h (2 Bft) O-NO 63 ° 0 min 0,000 mm 1,1 UV-I 100 W/m² 1,5 °C 15,0 °C 12,9 km/h (3 Bft)
17.04.2019 17:47 15,0 °C 41 % 1018,6 hPa 0,0 mm 11,8 km/h (2 Bft) O 96 ° 0 min 0,000 mm 1,1 UV-I 93 W/m² 1,9 °C 15,0 °C 16,1 km/h (3 Bft)
17.04.2019 17:48 15,0 °C 41 % 1018,7 hPa 0,0 mm 9,8 km/h (2 Bft) O 89 ° 0 min 0,000 mm 1,1 UV-I 62 W/m² 1,9 °C 15,0 °C 14,5 km/h (3 Bft)
17.04.2019 17:49 14,9 °C 41 % 1018,7 hPa 0,0 mm 9,7 km/h (2 Bft) O 82 ° 0 min 0,000 mm 1,1 UV-I 62 W/m² 1,8 °C 14,9 °C 14,5 km/h (3 Bft)
17.04.2019 17:50 14,9 °C 41 % 1018,7 hPa 0,0 mm 9,8 km/h (2 Bft) O-NO 67 ° 0 min 0,000 mm 1,1 UV-I 67 W/m² 1,8 °C 14,9 °C 14,5 km/h (3 Bft)
17.04.2019 17:51 14,9 °C 43 % 1018,7 hPa 0,0 mm 7,1 km/h (2 Bft) O 87 ° 0 min 0,000 mm 1,2 UV-I 113 W/m² 2,4 °C 14,9 °C 11,3 km/h (2 Bft)
17.04.2019 17:52 14,9 °C 43 % 1018,7 hPa 0,0 mm 4,2 km/h (1 Bft) O-SO 122 ° 0 min 0,000 mm 1,2 UV-I 190 W/m² 2,4 °C 14,9 °C 6,4 km/h (2 Bft)
17.04.2019 17:53 14,9 °C 43 % 1018,7 hPa 0,0 mm 4,2 km/h (1 Bft) O 89 ° 0 min 0,000 mm 1,2 UV-I 229 W/m² 2,4 °C 14,9 °C 8,0 km/h (2 Bft)
17.04.2019 17:54 14,9 °C 41 % 1018,7 hPa 0,0 mm 7,2 km/h (2 Bft) O 94 ° 0 min 0,000 mm 1,1 UV-I 162 W/m² 1,8 °C 14,9 °C 9,7 km/h (2 Bft)
17.04.2019 17:55 14,9 °C 41 % 1018,7 hPa 0,0 mm 8,2 km/h (2 Bft) O-NO 76 ° 0 min 0,000 mm 1,1 UV-I 204 W/m² 1,8 °C 14,9 °C 14,5 km/h (3 Bft)
17.04.2019 17:56 14,9 °C 41 % 1018,7 hPa 0,0 mm 11,0 km/h (2 Bft) O-SO 115 ° 0 min 0,000 mm 1,0 UV-I 128 W/m² 1,8 °C 14,9 °C 17,7 km/h (3 Bft)
17.04.2019 17:57 14,9 °C 41 % 1018,7 hPa 0,0 mm 9,1 km/h (2 Bft) NO 50 ° 0 min 0,000 mm 1,0 UV-I 67 W/m² 1,8 °C 14,9 °C 14,5 km/h (3 Bft)
17.04.2019 17:58 14,9 °C 40 % 1018,7 hPa 0,0 mm 8,0 km/h (2 Bft) NO 45 ° 0 min 0,000 mm 1,0 UV-I 60 W/m² 1,4 °C 14,9 °C 12,9 km/h (3 Bft)
17.04.2019 17:59 14,9 °C 40 % 1018,7 hPa 0,0 mm 10,7 km/h (2 Bft) O-NO 65 ° 0 min 0,000 mm 1,0 UV-I 69 W/m² 1,4 °C 14,9 °C 16,1 km/h (3 Bft)
17.04.2019 18:00 14,8 °C 39 % 1018,8 hPa 0,0 mm 7,8 km/h (2 Bft) O-NO 70 ° 0 min 0,000 mm 1,0 UV-I 69 W/m² 1,0 °C 14,8 °C 14,5 km/h (3 Bft)
17.04.2019 18:01 14,8 °C 40 % 1018,7 hPa 0,0 mm 9,8 km/h (2 Bft) O-NO 72 ° 0 min 0,178 mm 0,9 UV-I 62 W/m² 1,3 °C 14,8 °C 14,5 km/h (3 Bft)
17.04.2019 18:02 14,8 °C 40 % 1018,7 hPa 0,0 mm 10,4 km/h (2 Bft) O 80 ° 0 min 0,000 mm 0,9 UV-I 91 W/m² 1,3 °C 14,8 °C 14,5 km/h (3 Bft)
17.04.2019 18:03 14,8 °C 41 % 1018,7 hPa 0,0 mm 9,6 km/h (2 Bft) O-NO 65 ° 0 min 0,000 mm 0,9 UV-I 79 W/m² 1,7 °C 14,8 °C 14,5 km/h (3 Bft)
17.04.2019 18:04 14,8 °C 42 % 1018,7 hPa 0,0 mm 8,4 km/h (2 Bft) O 91 ° 0 min 0,000 mm 0,9 UV-I 58 W/m² 2,0 °C 14,8 °C 11,3 km/h (2 Bft)
17.04.2019 18:05 14,8 °C 42 % 1018,7 hPa 0,0 mm 7,6 km/h (2 Bft) O-NO 70 ° 0 min 0,000 mm 0,9 UV-I 58 W/m² 2,0 °C 14,8 °C 11,3 km/h (2 Bft)
17.04.2019 18:06 14,8 °C 42 % 1018,8 hPa 0,0 mm 9,7 km/h (2 Bft) NO 41 ° 0 min 0,000 mm 0,9 UV-I 58 W/m² 2,0 °C 14,8 °C 14,5 km/h (3 Bft)
17.04.2019 18:07 14,8 °C 40 % 1018,7 hPa 0,0 mm 12,0 km/h (2 Bft) O-NO 57 ° 0 min 0,000 mm 0,9 UV-I 58 W/m² 1,3 °C 14,8 °C 19,3 km/h (3 Bft)
17.04.2019 18:08 14,8 °C 40 % 1018,7 hPa 0,0 mm 8,5 km/h (2 Bft) O-NO 65 ° 0 min 0,000 mm 0,9 UV-I 77 W/m² 1,3 °C 14,8 °C 14,5 km/h (3 Bft)
17.04.2019 18:09 14,8 °C 40 % 1018,8 hPa 0,0 mm 7,6 km/h (2 Bft) O-NO 59 ° 0 min 0,000 mm 0,9 UV-I 144 W/m² 1,3 °C 14,8 °C 11,3 km/h (2 Bft)
17.04.2019 18:10 14,8 °C 39 % 1018,7 hPa 0,0 mm 7,2 km/h (2 Bft) O-NO 70 ° 0 min 0,000 mm 0,9 UV-I 169 W/m² 1,0 °C 14,8 °C 11,3 km/h (2 Bft)
17.04.2019 18:11 14,8 °C 40 % 1018,7 hPa 0,0 mm 8,4 km/h (2 Bft) NO 47 ° 0 min 0,000 mm 0,9 UV-I 111 W/m² 1,3 °C 14,8 °C 14,5 km/h (3 Bft)
17.04.2019 18:12 14,8 °C 39 % 1018,8 hPa 0,0 mm 5,9 km/h (2 Bft) O-NO 58 ° 0 min 0,000 mm 0,9 UV-I 91 W/m² 1,0 °C 14,8 °C 11,3 km/h (2 Bft)
17.04.2019 18:13 14,8 °C 39 % 1018,7 hPa 0,0 mm 6,2 km/h (2 Bft) NO 51 ° 0 min 0,000 mm 0,9 UV-I 86 W/m² 1,0 °C 14,8 °C 11,3 km/h (2 Bft)
17.04.2019 18:14 14,8 °C 40 % 1018,7 hPa 0,0 mm 7,6 km/h (2 Bft) O-NO 69 ° 0 min 0,000 mm 0,9 UV-I 104 W/m² 1,3 °C 14,8 °C 12,9 km/h (3 Bft)
17.04.2019 18:15 14,8 °C 40 % 1018,7 hPa 0,0 mm 6,0 km/h (2 Bft) O-NO 67 ° 0 min 0,000 mm 0,9 UV-I 127 W/m² 1,3 °C 14,8 °C 8,0 km/h (2 Bft)
17.04.2019 18:16 14,8 °C 40 % 1018,7 hPa 0,0 mm 7,5 km/h (2 Bft) NO 39 ° 0 min 0,000 mm 0,9 UV-I 121 W/m² 1,3 °C 14,8 °C 12,9 km/h (3 Bft)
17.04.2019 18:17 14,8 °C 44 % 1018,7 hPa 0,0 mm 6,4 km/h (2 Bft) O-NO 72 ° 0 min 0,000 mm 0,8 UV-I 104 W/m² 2,7 °C 14,8 °C 9,7 km/h (2 Bft)
17.04.2019 18:18 14,8 °C 40 % 1018,8 hPa 0,0 mm 8,4 km/h (2 Bft) NO 41 ° 0 min 0,000 mm 0,8 UV-I 84 W/m² 1,3 °C 14,8 °C 16,1 km/h (3 Bft)
17.04.2019 18:19 14,8 °C 40 % 1018,7 hPa 0,0 mm 10,8 km/h (2 Bft) O-NO 62 ° 0 min 0,000 mm 0,8 UV-I 84 W/m² 1,3 °C 14,8 °C 19,3 km/h (3 Bft)
17.04.2019 18:20 14,8 °C 40 % 1018,7 hPa 0,0 mm 6,4 km/h (2 Bft) NO 55 ° 0 min 0,000 mm 0,8 UV-I 69 W/m² 1,3 °C 14,8 °C 8,0 km/h (2 Bft)
17.04.2019 18:21 14,8 °C 40 % 1018,7 hPa 0,0 mm 5,6 km/h (1 Bft) NO 54 ° 0 min 0,000 mm 0,8 UV-I 109 W/m² 1,3 °C 14,8 °C 9,7 km/h (2 Bft)
17.04.2019 18:22 14,8 °C 40 % 1018,7 hPa 0,0 mm 10,2 km/h (2 Bft) NO 54 ° 0 min 0,000 mm 0,8 UV-I 146 W/m² 1,3 °C 14,8 °C 14,5 km/h (3 Bft)
17.04.2019 18:23 14,8 °C 39 % 1018,8 hPa 0,0 mm 8,5 km/h (2 Bft) O 85 ° 0 min 0,000 mm 0,8 UV-I 153 W/m² 1,0 °C 14,8 °C 12,9 km/h (3 Bft)
17.04.2019 18:24 14,8 °C 39 % 1018,8 hPa 0,0 mm 9,4 km/h (2 Bft) NO 53 ° 0 min 0,000 mm 0,8 UV-I 162 W/m² 1,0 °C 14,8 °C 12,9 km/h (3 Bft)
17.04.2019 18:25 14,8 °C 39 % 1018,8 hPa 0,0 mm 9,7 km/h (2 Bft) O-NO 63 ° 0 min 0,000 mm 0,8 UV-I 167 W/m² 1,0 °C 14,8 °C 12,9 km/h (3 Bft)
17.04.2019 18:26 14,8 °C 39 % 1018,8 hPa 0,0 mm 9,7 km/h (2 Bft) O-NO 72 ° 0 min 0,000 mm 0,8 UV-I 183 W/m² 1,0 °C 14,8 °C 14,5 km/h (3 Bft)
17.04.2019 18:27 14,8 °C 40 % 1018,8 hPa 0,0 mm 8,8 km/h (2 Bft) NO 53 ° 0 min 0,000 mm 0,7 UV-I 181 W/m² 1,3 °C 14,8 °C 12,9 km/h (3 Bft)
17.04.2019 18:28 14,7 °C 40 % 1018,9 hPa 0,0 mm 7,2 km/h (2 Bft) O-NO 63 ° 0 min 0,000 mm 0,7 UV-I 114 W/m² 1,2 °C 14,7 °C 16,1 km/h (3 Bft)
17.04.2019 18:29 14,7 °C 39 % 1018,9 hPa 0,0 mm 10,9 km/h (2 Bft) O 84 ° 0 min 0,000 mm 0,7 UV-I 76 W/m² 0,9 °C 14,7 °C 16,1 km/h (3 Bft)
17.04.2019 18:30 14,7 °C 39 % 1018,9 hPa 0,0 mm 10,5 km/h (2 Bft) NO 55 ° 0 min 0,000 mm 0,7 UV-I 105 W/m² 0,9 °C 14,7 °C 14,5 km/h (3 Bft)
17.04.2019 18:31 14,7 °C 38 % 1018,8 hPa 0,0 mm 8,7 km/h (2 Bft) NO 36 ° 0 min 0,000 mm 0,7 UV-I 127 W/m² 0,5 °C 14,7 °C 17,7 km/h (3 Bft)
17.04.2019 18:32 14,7 °C 39 % 1018,8 hPa 0,0 mm 8,6 km/h (2 Bft) NO 47 ° 0 min 0,000 mm 0,7 UV-I 123 W/m² 0,9 °C 14,7 °C 16,1 km/h (3 Bft)
17.04.2019 18:33 14,7 °C 39 % 1018,9 hPa 0,0 mm 12,0 km/h (2 Bft) N-NO 30 ° 0 min 0,000 mm 0,7 UV-I 121 W/m² 0,9 °C 14,7 °C 17,7 km/h (3 Bft)
17.04.2019 18:34 14,7 °C 38 % 1018,9 hPa 0,0 mm 6,1 km/h (2 Bft) O-NO 68 ° 0 min 0,000 mm 0,7 UV-I 114 W/m² 0,5 °C 14,7 °C 9,7 km/h (2 Bft)
17.04.2019 18:35 14,7 °C 38 % 1018,9 hPa 0,0 mm 7,8 km/h (2 Bft) NO 38 ° 0 min 0,000 mm 0,6 UV-I 113 W/m² 0,5 °C 14,7 °C 14,5 km/h (3 Bft)
17.04.2019 18:36 14,7 °C 38 % 1018,8 hPa 0,0 mm 8,6 km/h (2 Bft) NO 43 ° 0 min 0,000 mm 0,7 UV-I 137 W/m² 0,5 °C 14,7 °C 12,9 km/h (3 Bft)
17.04.2019 18:37 14,7 °C 40 % 1018,8 hPa 0,0 mm 9,7 km/h (2 Bft) O-NO 70 ° 0 min 0,000 mm 0,6 UV-I 148 W/m² 1,2 °C 14,7 °C 14,5 km/h (3 Bft)
17.04.2019 18:38 14,6 °C 40 % 1018,8 hPa 0,0 mm 10,0 km/h (2 Bft) O-NO 57 ° 0 min 0,000 mm 0,6 UV-I 153 W/m² 1,2 °C 14,6 °C 14,5 km/h (3 Bft)
17.04.2019 18:39 14,6 °C 39 % 1018,8 hPa 0,0 mm 6,9 km/h (2 Bft) O-NO 73 ° 0 min 0,000 mm 0,6 UV-I 142 W/m² 0,8 °C 14,6 °C 8,0 km/h (2 Bft)
17.04.2019 18:40 14,6 °C 40 % 1018,9 hPa 0,0 mm 6,9 km/h (2 Bft) O 100 ° 0 min 0,000 mm 0,6 UV-I 141 W/m² 1,2 °C 14,6 °C 9,7 km/h (2 Bft)
17.04.2019 18:41 14,6 °C 39 % 1018,9 hPa 0,0 mm 8,6 km/h (2 Bft) O-NO 61 ° 0 min 0,000 mm 0,6 UV-I 160 W/m² 0,8 °C 14,6 °C 14,5 km/h (3 Bft)
17.04.2019 18:42 14,6 °C 41 % 1018,8 hPa 0,0 mm 6,0 km/h (2 Bft) O-NO 77 ° 0 min 0,000 mm 0,6 UV-I 163 W/m² 1,5 °C 14,6 °C 11,3 km/h (2 Bft)
17.04.2019 18:43 14,6 °C 40 % 1018,8 hPa 0,0 mm 7,0 km/h (2 Bft) O-NO 58 ° 0 min 0,000 mm 0,6 UV-I 156 W/m² 1,2 °C 14,6 °C 12,9 km/h (3 Bft)
17.04.2019 18:44 14,5 °C 39 % 1018,9 hPa 0,0 mm 7,4 km/h (2 Bft) O-NO 67 ° 0 min 0,000 mm 0,6 UV-I 149 W/m² 0,7 °C 14,5 °C 12,9 km/h (3 Bft)
17.04.2019 18:45 14,5 °C 39 % 1018,8 hPa 0,0 mm 9,2 km/h (2 Bft) NO 53 ° 0 min 0,000 mm 0,6 UV-I 146 W/m² 0,7 °C 14,5 °C 14,5 km/h (3 Bft)
17.04.2019 18:46 14,4 °C 39 % 1018,9 hPa 0,0 mm 13,5 km/h (3 Bft) N-NW 348 ° 0 min 0,000 mm 0,6 UV-I 137 W/m² 0,6 °C 14,4 °C 17,7 km/h (3 Bft)
17.04.2019 18:47 14,4 °C 38 % 1018,9 hPa 0,0 mm 10,5 km/h (2 Bft) N-NO 24 ° 0 min 0,000 mm 0,6 UV-I 130 W/m² 0,3 °C 14,4 °C 14,5 km/h (3 Bft)
17.04.2019 18:48 14,4 °C 39 % 1018,9 hPa 0,0 mm 8,6 km/h (2 Bft) O-NO 75 ° 0 min 0,000 mm 0,5 UV-I 118 W/m² 0,6 °C 14,4 °C 14,5 km/h (3 Bft)
17.04.2019 18:49 14,4 °C 39 % 1018,9 hPa 0,0 mm 8,6 km/h (2 Bft) NO 49 ° 0 min 0,000 mm 0,5 UV-I 113 W/m² 0,6 °C 14,4 °C 12,9 km/h (3 Bft)
17.04.2019 18:50 14,4 °C 40 % 1018,9 hPa 0,0 mm 6,6 km/h (2 Bft) O-NO 61 ° 0 min 0,000 mm 0,5 UV-I 125 W/m² 1,0 °C 14,4 °C 12,9 km/h (3 Bft)
17.04.2019 18:51 14,3 °C 42 % 1018,8 hPa 0,0 mm 6,9 km/h (2 Bft) O-NO 71 ° 0 min 0,000 mm 0,5 UV-I 128 W/m² 1,6 °C 14,3 °C 9,7 km/h (2 Bft)
17.04.2019 18:52 14,2 °C 42 % 1018,9 hPa 0,0 mm 5,1 km/h (1 Bft) NO 44 ° 0 min 0,000 mm 0,5 UV-I 127 W/m² 1,5 °C 14,2 °C 9,7 km/h (2 Bft)
17.04.2019 18:53 14,2 °C 44 % 1018,8 hPa 0,0 mm 9,1 km/h (2 Bft) O-NO 74 ° 0 min 0,000 mm 0,5 UV-I 123 W/m² 2,1 °C 14,2 °C 12,9 km/h (3 Bft)
17.04.2019 18:54 14,1 °C 43 % 1018,9 hPa 0,0 mm 7,3 km/h (2 Bft) O-NO 67 ° 0 min 0,000 mm 0,5 UV-I 118 W/m² 1,7 °C 14,1 °C 11,3 km/h (2 Bft)
17.04.2019 18:55 14,1 °C 41 % 1018,9 hPa 0,0 mm 9,7 km/h (2 Bft) O-NO 73 ° 0 min 0,000 mm 0,5 UV-I 116 W/m² 1,1 °C 14,1 °C 12,9 km/h (3 Bft)
17.04.2019 18:56 14,0 °C 41 % 1018,9 hPa 0,0 mm 7,2 km/h (2 Bft) O-NO 65 ° 0 min 0,000 mm 0,5 UV-I 113 W/m² 1,0 °C 14,0 °C 11,3 km/h (2 Bft)
17.04.2019 18:57 14,0 °C 43 % 1018,9 hPa 0,0 mm 6,8 km/h (2 Bft) O 84 ° 0 min 0,000 mm 0,5 UV-I 113 W/m² 1,6 °C 14,0 °C 11,3 km/h (2 Bft)
17.04.2019 18:58 13,9 °C 44 % 1018,9 hPa 0,0 mm 6,1 km/h (2 Bft) O-NO 77 ° 0 min 0,000 mm 0,0 UV-I 107 W/m² 1,9 °C 13,9 °C 8,0 km/h (2 Bft)
17.04.2019 18:59 13,8 °C 45 % 1018,9 hPa 0,0 mm 5,7 km/h (1 Bft) O-NO 66 ° 0 min 0,000 mm 0,0 UV-I 102 W/m² 2,1 °C 13,8 °C 8,0 km/h (2 Bft)
17.04.2019 19:00 13,7 °C 43 % 1019,0 hPa 0,0 mm 8,0 km/h (2 Bft) O-NO 63 ° 0 min 0,000 mm 0,0 UV-I 98 W/m² 1,4 °C 13,7 °C 16,1 km/h (3 Bft)
17.04.2019 19:01 13,7 °C 43 % 1018,9 hPa 0,0 mm 8,9 km/h (2 Bft) O-NO 63 ° 0 min 0,127 mm 0,0 UV-I 95 W/m² 1,4 °C 13,7 °C 12,9 km/h (3 Bft)
17.04.2019 19:02 13,6 °C 45 % 1018,9 hPa 0,0 mm 7,4 km/h (2 Bft) NO 56 ° 0 min 0,000 mm 0,0 UV-I 90 W/m² 1,9 °C 13,6 °C 14,5 km/h (3 Bft)
17.04.2019 19:03 13,6 °C 44 % 1018,9 hPa 0,0 mm 5,5 km/h (1 Bft) O-NO 74 ° 0 min 0,000 mm 0,0 UV-I 90 W/m² 1,6 °C 13,6 °C 11,3 km/h (2 Bft)
17.04.2019 19:04 13,6 °C 41 % 1019,0 hPa 0,0 mm 11,7 km/h (2 Bft) O 82 ° 0 min 0,000 mm 0,0 UV-I 90 W/m² 0,6 °C 13,6 °C 14,5 km/h (3 Bft)
17.04.2019 19:05 13,6 °C 42 % 1019,0 hPa 0,0 mm 8,4 km/h (2 Bft) O 93 ° 0 min 0,000 mm 0,0 UV-I 88 W/m² 0,9 °C 13,6 °C 14,5 km/h (3 Bft)
17.04.2019 19:06 13,6 °C 41 % 1019,0 hPa 0,0 mm 7,5 km/h (2 Bft) O 82 ° 0 min 0,000 mm 0,0 UV-I 84 W/m² 0,6 °C 13,6 °C 12,9 km/h (3 Bft)
17.04.2019 19:07 13,6 °C 44 % 1018,9 hPa 0,0 mm 7,8 km/h (2 Bft) O-NO 65 ° 0 min 0,000 mm 0,0 UV-I 83 W/m² 1,6 °C 13,6 °C 11,3 km/h (2 Bft)
17.04.2019 19:08 13,6 °C 41 % 1018,9 hPa 0,0 mm 8,5 km/h (2 Bft) O-NO 58 ° 0 min 0,000 mm 0,0 UV-I 81 W/m² 0,6 °C 13,6 °C 11,3 km/h (2 Bft)
17.04.2019 19:09 13,5 °C 42 % 1018,9 hPa 0,0 mm 5,4 km/h (1 Bft) O-NO 60 ° 0 min 0,000 mm 0,0 UV-I 81 W/m² 0,8 °C 13,5 °C 8,0 km/h (2 Bft)
17.04.2019 19:10 13,4 °C 45 % 1019,0 hPa 0,0 mm 2,3 km/h (1 Bft) O-NO 60 ° 0 min 0,000 mm 0,0 UV-I 81 W/m² 1,7 °C 13,4 °C 4,8 km/h (1 Bft)
17.04.2019 19:11 13,3 °C 45 % 1019,0 hPa 0,0 mm 2,4 km/h (1 Bft) O-NO 61 ° 0 min 0,000 mm 0,0 UV-I 79 W/m² 1,6 °C 13,3 °C 3,2 km/h (1 Bft)
17.04.2019 19:12 13,2 °C 46 % 1019,0 hPa 0,0 mm 1,5 km/h (1 Bft) O-NO 61 ° 0 min 0,000 mm 0,0 UV-I 76 W/m² 1,8 °C 13,2 °C 4,8 km/h (1 Bft)
17.04.2019 19:13 13,2 °C 44 % 1019,0 hPa 0,0 mm 2,0 km/h (1 Bft) O 97 ° 0 min 0,000 mm 0,0 UV-I 74 W/m² 1,2 °C 13,2 °C 4,8 km/h (1 Bft)
17.04.2019 19:14 13,1 °C 45 % 1019,0 hPa 0,0 mm 1,9 km/h (1 Bft) O-NO 67 ° 0 min 0,000 mm 0,0 UV-I 72 W/m² 1,4 °C 13,1 °C 6,4 km/h (2 Bft)
17.04.2019 19:15 13,1 °C 45 % 1019,0 hPa 0,0 mm 7,6 km/h (2 Bft) O 82 ° 0 min 0,000 mm 0,0 UV-I 69 W/m² 1,4 °C 13,1 °C 14,5 km/h (3 Bft)
17.04.2019 19:16 13,1 °C 43 % 1019,0 hPa 0,0 mm 6,9 km/h (2 Bft) O-NO 72 ° 0 min 0,000 mm 0,0 UV-I 67 W/m² 0,8 °C 13,1 °C 11,3 km/h (2 Bft)
17.04.2019 19:17 13,1 °C 44 % 1019,0 hPa 0,0 mm 5,4 km/h (1 Bft) O-SO 109 ° 0 min 0,000 mm 0,0 UV-I 65 W/m² 1,1 °C 13,1 °C 8,0 km/h (2 Bft)
17.04.2019 19:18 13,1 °C 44 % 1019,0 hPa 0,0 mm 4,7 km/h (1 Bft) O-NO 68 ° 0 min 0,000 mm 0,0 UV-I 62 W/m² 1,1 °C 13,1 °C 8,0 km/h (2 Bft)
17.04.2019 19:19 13,0 °C 47 % 1019,0 hPa 0,0 mm 5,1 km/h (1 Bft) O-NO 63 ° 0 min 0,000 mm 0,0 UV-I 60 W/m² 2,0 °C 13,0 °C 8,0 km/h (2 Bft)
17.04.2019 19:20 12,8 °C 47 % 1019,0 hPa 0,0 mm 4,4 km/h (1 Bft) O-NO 65 ° 0 min 0,000 mm 0,0 UV-I 58 W/m² 1,8 °C 12,8 °C 11,3 km/h (2 Bft)
17.04.2019 19:21 12,8 °C 44 % 1019,0 hPa 0,0 mm 5,9 km/h (2 Bft) O 84 ° 0 min 0,000 mm 0,0 UV-I 56 W/m² 0,9 °C 12,8 °C 9,7 km/h (2 Bft)
17.04.2019 19:22 12,7 °C 46 % 1019,1 hPa 0,0 mm 4,6 km/h (1 Bft) O 96 ° 0 min 0,000 mm 0,0 UV-I 54 W/m² 1,4 °C 12,7 °C 6,4 km/h (2 Bft)
17.04.2019 19:23 12,7 °C 45 % 1019,1 hPa 0,0 mm 5,8 km/h (2 Bft) O 92 ° 0 min 0,000 mm 0,0 UV-I 51 W/m² 1,1 °C 12,7 °C 9,7 km/h (2 Bft)
17.04.2019 19:24 12,6 °C 48 % 1019,1 hPa 0,0 mm 2,5 km/h (1 Bft) O-NO 65 ° 0 min 0,000 mm 0,0 UV-I 47 W/m² 1,9 °C 12,6 °C 4,8 km/h (1 Bft)
17.04.2019 19:25 12,5 °C 49 % 1019,1 hPa 0,0 mm 4,4 km/h (1 Bft) O-NO 67 ° 0 min 0,000 mm 0,0 UV-I 46 W/m² 2,1 °C 12,5 °C 6,4 km/h (2 Bft)
17.04.2019 19:26 12,3 °C 49 % 1019,1 hPa 0,0 mm 6,2 km/h (2 Bft) O-NO 71 ° 0 min 0,000 mm 0,0 UV-I 44 W/m² 1,9 °C 12,3 °C 9,7 km/h (2 Bft)
17.04.2019 19:27 12,2 °C 46 % 1019,2 hPa 0,0 mm 4,8 km/h (1 Bft) O-NO 77 ° 0 min 0,000 mm 0,0 UV-I 42 W/m² 0,9 °C 12,2 °C 8,0 km/h (2 Bft)
17.04.2019 19:28 12,2 °C 47 % 1019,1 hPa 0,0 mm 5,9 km/h (2 Bft) O 97 ° 0 min 0,000 mm 0,0 UV-I 42 W/m² 1,2 °C 12,2 °C 11,3 km/h (2 Bft)
17.04.2019 19:29 12,3 °C 46 % 1019,1 hPa 0,0 mm 3,1 km/h (1 Bft) O-NO 75 ° 0 min 0,000 mm 0,0 UV-I 40 W/m² 1,0 °C 12,3 °C 6,4 km/h (2 Bft)
17.04.2019 19:30 12,2 °C 47 % 1019,2 hPa 0,0 mm 3,7 km/h (1 Bft) NO 54 ° 0 min 0,000 mm 0,0 UV-I 37 W/m² 1,2 °C 12,2 °C 9,7 km/h (2 Bft)
17.04.2019 19:31 12,2 °C 48 % 1019,2 hPa 0,0 mm 4,4 km/h (1 Bft) O 87 ° 0 min 0,000 mm 0,0 UV-I 35 W/m² 1,5 °C 12,2 °C 9,7 km/h (2 Bft)
17.04.2019 19:32 12,2 °C 47 % 1019,2 hPa 0,0 mm 2,8 km/h (1 Bft) O 86 ° 0 min 0,000 mm 0,0 UV-I 35 W/m² 1,2 °C 12,2 °C 4,8 km/h (1 Bft)
17.04.2019 19:33 12,1 °C 47 % 1019,2 hPa 0,0 mm 2,7 km/h (1 Bft) NO 52 ° 0 min 0,000 mm 0,0 UV-I 33 W/m² 1,1 °C 12,1 °C 4,8 km/h (1 Bft)
17.04.2019 19:34 12,1 °C 48 % 1019,1 hPa 0,0 mm 4,5 km/h (1 Bft) NO 51 ° 0 min 0,000 mm 0,0 UV-I 32 W/m² 1,4 °C 12,1 °C 6,4 km/h (2 Bft)
17.04.2019 19:35 12,0 °C 50 % 1019,2 hPa 0,0 mm 2,6 km/h (1 Bft) O-NO 74 ° 0 min 0,000 mm 0,0 UV-I 32 W/m² 1,9 °C 12,0 °C 3,2 km/h (1 Bft)
17.04.2019 19:36 11,8 °C 49 % 1019,2 hPa 0,0 mm 1,1 km/h (1 Bft) O-NO 74 ° 0 min 0,000 mm 0,0 UV-I 28 W/m² 1,4 °C 11,8 °C 3,2 km/h (1 Bft)
17.04.2019 19:37 11,8 °C 47 % 1019,2 hPa 0,0 mm 2,9 km/h (1 Bft) O 82 ° 0 min 0,000 mm 0,0 UV-I 28 W/m² 0,9 °C 11,8 °C 6,4 km/h (2 Bft)
17.04.2019 19:38 11,7 °C 51 % 1019,2 hPa 0,0 mm 2,6 km/h (1 Bft) O 82 ° 0 min 0,000 mm 0,0 UV-I 26 W/m² 1,9 °C 11,7 °C 4,8 km/h (1 Bft)
17.04.2019 19:39 11,7 °C 50 % 1019,2 hPa 0,0 mm 2,0 km/h (1 Bft) O 90 ° 0 min 0,000 mm 0,0 UV-I 25 W/m² 1,6 °C 11,7 °C 6,4 km/h (2 Bft)
17.04.2019 19:40 11,7 °C 48 % 1019,3 hPa 0,0 mm 4,0 km/h (1 Bft) O-SO 107 ° 0 min 0,000 mm 0,0 UV-I 25 W/m² 1,1 °C 11,7 °C 6,4 km/h (2 Bft)
17.04.2019 19:41 11,7 °C 47 % 1019,2 hPa 0,0 mm 1,0 km/h (0 Bft) O-SO 107 ° 0 min 0,000 mm 0,0 UV-I 23 W/m² 0,8 °C 11,7 °C 1,6 km/h (1 Bft)
17.04.2019 19:42 11,6 °C 49 % 1019,2 hPa 0,0 mm 0,6 km/h (0 Bft) O-SO 107 ° 0 min 0,000 mm 0,0 UV-I 21 W/m² 1,3 °C 11,6 °C 1,6 km/h (1 Bft)
17.04.2019 19:43 11,6 °C 48 % 1019,2 hPa 0,0 mm 0,9 km/h (0 Bft) O-SO 108 ° 0 min 0,000 mm 0,0 UV-I 21 W/m² 1,0 °C 11,6 °C 3,2 km/h (1 Bft)
17.04.2019 19:44 11,5 °C 49 % 1019,3 hPa 0,0 mm 0,1 km/h (0 Bft) O-SO 108 ° 0 min 0,000 mm 0,0 UV-I 19 W/m² 1,2 °C 11,5 °C 1,6 km/h (1 Bft)
17.04.2019 19:45 11,4 °C 49 % 1019,2 hPa 0,0 mm 1,1 km/h (1 Bft) O-SO 108 ° 0 min 0,000 mm 0,0 UV-I 18 W/m² 1,1 °C 11,4 °C 3,2 km/h (1 Bft)
17.04.2019 19:46 11,4 °C 49 % 1019,2 hPa 0,0 mm 0,1 km/h (0 Bft) O-SO 108 ° 0 min 0,000 mm 0,0 UV-I 18 W/m² 1,1 °C 11,4 °C 1,6 km/h (1 Bft)
17.04.2019 19:47 11,3 °C 49 % 1019,3 hPa 0,0 mm 0,8 km/h (0 Bft) O-NO 72 ° 0 min 0,000 mm 0,0 UV-I 16 W/m² 1,0 °C 11,3 °C 1,6 km/h (1 Bft)
17.04.2019 19:48 11,3 °C 49 % 1019,3 hPa 0,0 mm 1,1 km/h (1 Bft) O-NO 72 ° 0 min 0,000 mm 0,0 UV-I 16 W/m² 1,0 °C 11,3 °C 3,2 km/h (1 Bft)
17.04.2019 19:49 11,3 °C 49 % 1019,3 hPa 0,0 mm 1,2 km/h (1 Bft) O-NO 72 ° 0 min 0,000 mm 0,0 UV-I 16 W/m² 1,0 °C 11,3 °C 3,2 km/h (1 Bft)
17.04.2019 19:50 11,3 °C 49 % 1019,4 hPa 0,0 mm 0,0 km/h (0 Bft) O-NO 72 ° 0 min 0,000 mm 0,0 UV-I 14 W/m² 1,0 °C 11,3 °C 0,0 km/h (0 Bft)
17.04.2019 19:51 11,2 °C 49 % 1019,3 hPa 0,0 mm 0,3 km/h (0 Bft) O-NO 72 ° 0 min 0,000 mm 0,0 UV-I 14 W/m² 0,9 °C 11,2 °C 1,6 km/h (1 Bft)
17.04.2019 19:52 11,2 °C 49 % 1019,4 hPa 0,0 mm 0,0 km/h (0 Bft) O-NO 72 ° 0 min 0,000 mm 0,0 UV-I 14 W/m² 0,9 °C 11,2 °C 0,0 km/h (0 Bft)
17.04.2019 19:53 11,2 °C 50 % 1019,4 hPa 0,0 mm 0,4 km/h (0 Bft) O-NO 72 ° 0 min 0,000 mm 0,0 UV-I 12 W/m² 1,2 °C 11,2 °C 1,6 km/h (1 Bft)
17.04.2019 19:54 11,2 °C 49 % 1019,4 hPa 0,0 mm 0,1 km/h (0 Bft) O-NO 72 ° 0 min 0,000 mm 0,0 UV-I 11 W/m² 0,9 °C 11,2 °C 1,6 km/h (1 Bft)
17.04.2019 19:55 11,0 °C 52 % 1019,4 hPa 0,0 mm 2,4 km/h (1 Bft) O 82 ° 0 min 0,000 mm 0,0 UV-I 11 W/m² 1,5 °C 11,0 °C 3,2 km/h (1 Bft)
17.04.2019 19:56 10,9 °C 50 % 1019,4 hPa 0,0 mm 1,8 km/h (1 Bft) O 82 ° 0 min 0,000 mm 0,0 UV-I 11 W/m² 0,9 °C 10,9 °C 3,2 km/h (1 Bft)
17.04.2019 19:57 10,9 °C 50 % 1019,4 hPa 0,0 mm 1,3 km/h (1 Bft) O-SO 104 ° 0 min 0,000 mm 0,0 UV-I 9 W/m² 0,9 °C 10,9 °C 3,2 km/h (1 Bft)
17.04.2019 19:58 10,9 °C 52 % 1019,5 hPa 0,0 mm 1,9 km/h (1 Bft) O-SO 104 ° 0 min 0,000 mm 0,0 UV-I 9 W/m² 1,4 °C 10,9 °C 4,8 km/h (1 Bft)
17.04.2019 19:59 10,8 °C 51 % 1019,5 hPa 0,0 mm 3,2 km/h (1 Bft) O-SO 105 ° 0 min 0,000 mm 0,0 UV-I 7 W/m² 1,1 °C 10,8 °C 4,8 km/h (1 Bft)
17.04.2019 20:00 10,7 °C 52 % 1019,5 hPa 0,0 mm 1,1 km/h (1 Bft) O-SO 105 ° 0 min 0,000 mm 0,0 UV-I 7 W/m² 1,3 °C 10,7 °C 1,6 km/h (1 Bft)
17.04.2019 20:01 10,6 °C 52 % 1019,5 hPa 0,0 mm 1,1 km/h (1 Bft) O 96 ° 0 min 0,051 mm 0,0 UV-I 7 W/m² 1,2 °C 10,6 °C 3,2 km/h (1 Bft)
17.04.2019 20:02 10,6 °C 51 % 1019,5 hPa 0,0 mm 1,0 km/h (0 Bft) O 98 ° 0 min 0,000 mm 0,0 UV-I 7 W/m² 0,9 °C 10,6 °C 3,2 km/h (1 Bft)
17.04.2019 20:03 10,4 °C 52 % 1019,5 hPa 0,0 mm 1,5 km/h (1 Bft) O 98 ° 0 min 0,000 mm 0,0 UV-I 7 W/m² 1,0 °C 10,4 °C 3,2 km/h (1 Bft)
17.04.2019 20:04 10,4 °C 51 % 1019,5 hPa 0,0 mm 0,9 km/h (0 Bft) O 98 ° 0 min 0,000 mm 0,0 UV-I 5 W/m² 0,7 °C 10,4 °C 3,2 km/h (1 Bft)
17.04.2019 20:05 10,4 °C 52 % 1019,5 hPa 0,0 mm 0,6 km/h (0 Bft) O 98 ° 0 min 0,000 mm 0,0 UV-I 5 W/m² 1,0 °C 10,4 °C 1,6 km/h (1 Bft)
17.04.2019 20:06 10,4 °C 51 % 1019,5 hPa 0,0 mm 2,2 km/h (1 Bft) O 100 ° 0 min 0,000 mm 0,0 UV-I 5 W/m² 0,7 °C 10,4 °C 3,2 km/h (1 Bft)
17.04.2019 20:07 10,6 °C 51 % 1019,5 hPa 0,0 mm 1,6 km/h (1 Bft) O 100 ° 0 min 0,000 mm 0,0 UV-I 5 W/m² 0,9 °C 10,6 °C 3,2 km/h (1 Bft)
17.04.2019 20:08 10,6 °C 50 % 1019,6 hPa 0,0 mm 1,9 km/h (1 Bft) O 100 ° 0 min 0,000 mm 0,0 UV-I 5 W/m² 0,6 °C 10,6 °C 3,2 km/h (1 Bft)
17.04.2019 20:09 10,5 °C 52 % 1019,5 hPa 0,0 mm 1,8 km/h (1 Bft) O 100 ° 0 min 0,000 mm 0,0 UV-I 0 W/m² 1,1 °C 10,5 °C 3,2 km/h (1 Bft)
17.04.2019 20:10 10,4 °C 51 % 1019,5 hPa 0,0 mm 1,4 km/h (1 Bft) O-NO 76 ° 0 min 0,000 mm 0,0 UV-I 0 W/m² 0,7 °C 10,4 °C 3,2 km/h (1 Bft)
17.04.2019 20:11 10,4 °C 50 % 1019,6 hPa 0,0 mm 1,0 km/h (0 Bft) O-NO 76 ° 0 min 0,000 mm 0,0 UV-I 0 W/m² 0,4 °C 10,4 °C 3,2 km/h (1 Bft)
17.04.2019 20:12 10,3 °C 51 % 1019,6 hPa 0,0 mm 1,7 km/h (1 Bft) O-NO 76 ° 0 min 0,000 mm 0,0 UV-I 0 W/m² 0,6 °C 10,3 °C 4,8 km/h (1 Bft)
17.04.2019 20:13 10,3 °C 51 % 1019,6 hPa 0,0 mm 0,8 km/h (0 Bft) O-NO 76 ° 0 min 0,000 mm 0,0 UV-I 0 W/m² 0,6 °C 10,3 °C 3,2 km/h (1 Bft)
17.04.2019 20:14 10,2 °C 53 % 1019,6 hPa 0,0 mm 0,8 km/h (0 Bft) O-NO 76 ° 0 min 0,000 mm 0,0 UV-I 0 W/m² 1,1 °C 10,2 °C 3,2 km/h (1 Bft)
17.04.2019 20:15 10,1 °C 52 % 1019,6 hPa 0,0 mm 0,9 km/h (0 Bft) O-NO 76 ° 0 min 0,000 mm 0,0 UV-I 0 W/m² 0,7 °C 10,1 °C 1,6 km/h (1 Bft)
17.04.2019 20:16 10,0 °C 52 % 1019,6 hPa 0,0 mm 0,7 km/h (0 Bft) O-NO 76 ° 0 min 0,000 mm 0,0 UV-I 0 W/m² 0,6 °C 10,0 °C 3,2 km/h (1 Bft)
17.04.2019 20:17 10,1 °C 51 % 1019,7 hPa 0,0 mm 2,6 km/h (1 Bft) O-NO 76 ° 0 min 0,000 mm 0,0 UV-I 0 W/m² 0,4 °C 10,1 °C 3,2 km/h (1 Bft)
17.04.2019 20:18 10,1 °C 51 % 1019,7 hPa 0,0 mm 1,4 km/h (1 Bft) O-NO 76 ° 0 min 0,000 mm 0,0 UV-I 0 W/m² 0,4 °C 10,1 °C 3,2 km/h (1 Bft)
17.04.2019 20:19 10,2 °C 50 % 1019,7 hPa 0,0 mm 0,9 km/h (0 Bft) O-NO 76 ° 0 min 0,000 mm 0,0 UV-I 0 W/m² 0,3 °C 10,2 °C 3,2 km/h (1 Bft)
17.04.2019 20:20 10,2 °C 52 % 1019,8 hPa 0,0 mm 0,0 km/h (0 Bft) O-NO 76 ° 0 min 0,000 mm 0,0 UV-I 0 W/m² 0,8 °C 10,2 °C 0,0 km/h (0 Bft)
17.04.2019 20:21 10,1 °C 51 % 1019,8 hPa 0,0 mm 2,9 km/h (1 Bft) NO 55 ° 0 min 0,000 mm 0,0 UV-I 0 W/m² 0,4 °C 10,1 °C 6,4 km/h (2 Bft)
17.04.2019 20:22 10,1 °C 50 % 1019,8 hPa 0,0 mm 2,8 km/h (1 Bft) O-SO 111 ° 0 min 0,000 mm 0,0 UV-I 0 W/m² 0,2 °C 10,1 °C 4,8 km/h (1 Bft)
17.04.2019 20:23 10,1 °C 50 % 1019,8 hPa 0,0 mm 2,1 km/h (1 Bft) O-SO 111 ° 0 min 0,000 mm 0,0 UV-I 0 W/m² 0,2 °C 10,1 °C 3,2 km/h (1 Bft)
17.04.2019 20:24 10,2 °C 50 % 1019,8 hPa 0,0 mm 1,3 km/h (1 Bft) O-SO 111 ° 0 min 0,000 mm 0,0 UV-I 0 W/m² 0,3 °C 10,2 °C 3,2 km/h (1 Bft)
17.04.2019 20:25 10,2 °C 50 % 1019,8 hPa 0,0 mm 0,9 km/h (0 Bft) O-SO 104 ° 0 min 0,000 mm 0,0 UV-I 0 W/m² 0,3 °C 10,2 °C 3,2 km/h (1 Bft)
17.04.2019 20:26 10,2 °C 52 % 1019,8 hPa 0,0 mm 1,2 km/h (1 Bft) O-SO 104 ° 0 min 0,000 mm 0,0 UV-I 0 W/m² 0,8 °C 10,2 °C 3,2 km/h (1 Bft)
17.04.2019 20:27 10,0 °C 52 % 1019,8 hPa 0,0 mm 2,2 km/h (1 Bft) O-SO 104 ° 0 min 0,000 mm 0,0 UV-I 0 W/m² 0,6 °C 10,0 °C 3,2 km/h (1 Bft)
17.04.2019 20:28 9,8 °C 51 % 1019,8 hPa 0,0 mm 0,8 km/h (0 Bft) O-SO 104 ° 0 min 0,000 mm 0,0 UV-I 0 W/m² 0,2 °C 9,8 °C 3,2 km/h (1 Bft)
17.04.2019 20:29 9,8 °C 52 % 1019,8 hPa 0,0 mm 1,9 km/h (1 Bft) O-SO 104 ° 0 min 0,000 mm 0,0 UV-I 0 W/m² 0,4 °C 9,8 °C 3,2 km/h (1 Bft)
17.04.2019 20:30 9,8 °C 51 % 1019,9 hPa 0,0 mm 0,0 km/h (0 Bft) O-SO 104 ° 0 min 0,000 mm 0,0 UV-I 0 W/m² 0,2 °C 9,8 °C 0,0 km/h (0 Bft)
17.04.2019 20:31 9,8 °C 50 % 1019,9 hPa 0,0 mm 1,2 km/h (1 Bft) O-SO 104 ° 0 min 0,000 mm 0,0 UV-I 0 W/m² -0,1 °C 9,8 °C 3,2 km/h (1 Bft)
17.04.2019 20:32 9,8 °C 52 % 1019,9 hPa 0,0 mm 2,0 km/h (1 Bft) O-SO 104 ° 0 min 0,000 mm 0,0 UV-I 0 W/m² 0,4 °C 9,8 °C 4,8 km/h (1 Bft)
17.04.2019 20:33 9,7 °C 51 % 1019,9 hPa 0,0 mm 1,7 km/h (1 Bft) O-SO 104 ° 0 min 0,000 mm 0,0 UV-I 0 W/m² 0,1 °C 9,7 °C 3,2 km/h (1 Bft)
17.04.2019 20:34 9,8 °C 50 % 1019,9 hPa 0,0 mm 0,5 km/h (0 Bft) O-SO 104 ° 0 min 0,000 mm 0,0 UV-I 0 W/m² -0,1 °C 9,8 °C 1,6 km/h (1 Bft)
17.04.2019 20:35 9,7 °C 52 % 1019,9 hPa 0,0 mm 2,5 km/h (1 Bft) O-SO 105 ° 0 min 0,000 mm 0,0 UV-I 0 W/m² 0,3 °C 9,7 °C 4,8 km/h (1 Bft)
17.04.2019 20:36 9,6 °C 51 % 1019,9 hPa 0,0 mm 1,7 km/h (1 Bft) O-SO 105 ° 0 min 0,000 mm 0,0 UV-I 0 W/m² -0,0 °C 9,6 °C 3,2 km/h (1 Bft)
17.04.2019 20:37 9,6 °C 53 % 1019,9 hPa 0,0 mm 0,8 km/h (0 Bft) O-SO 105 ° 0 min 0,000 mm 0,0 UV-I 0 W/m² 0,5 °C 9,6 °C 3,2 km/h (1 Bft)
17.04.2019 20:38 9,5 °C 51 % 1020,0 hPa 0,0 mm 0,0 km/h (0 Bft) O-SO 105 ° 0 min 0,000 mm 0,0 UV-I 0 W/m² -0,1 °C 9,5 °C 0,0 km/h (0 Bft)
17.04.2019 20:39 9,5 °C 52 % 1020,0 hPa 0,0 mm 0,1 km/h (0 Bft) O-SO 105 ° 0 min 0,000 mm 0,0 UV-I 0 W/m² 0,1 °C 9,5 °C 1,6 km/h (1 Bft)
17.04.2019 20:40 9,4 °C 54 % 1020,0 hPa 0,0 mm 2,3 km/h (1 Bft) S-SO 159 ° 0 min 0,000 mm 0,0 UV-I 0 W/m² 0,6 °C 9,4 °C 6,4 km/h (2 Bft)
17.04.2019 20:41 9,4 °C 51 % 1020,0 hPa 0,0 mm 0,3 km/h (0 Bft) S-SO 159 ° 0 min 0,000 mm 0,0 UV-I 0 W/m² -0,2 °C 9,4 °C 1,6 km/h (1 Bft)
17.04.2019 20:42 9,4 °C 52 % 1020,0 hPa 0,0 mm 1,3 km/h (1 Bft) S-SO 159 ° 0 min 0,000 mm 0,0 UV-I 0 W/m² 0,1 °C 9,4 °C 3,2 km/h (1 Bft)
17.04.2019 20:43 9,4 °C 53 % 1020,0 hPa 0,0 mm 2,3 km/h (1 Bft) O-NO 64 ° 0 min 0,000 mm 0,0 UV-I 0 W/m² 0,3 °C 9,4 °C 4,8 km/h (1 Bft)
17.04.2019 20:44 9,4 °C 53 % 1020,0 hPa 0,0 mm 1,9 km/h (1 Bft) O-NO 74 ° 0 min 0,000 mm 0,0 UV-I 0 W/m² 0,3 °C 9,4 °C 3,2 km/h (1 Bft)
17.04.2019 20:45 9,4 °C 53 % 1020,1 hPa 0,0 mm 1,3 km/h (1 Bft) O-NO 73 ° 0 min 0,000 mm 0,0 UV-I 0 W/m² 0,3 °C 9,4 °C 3,2 km/h (1 Bft)
17.04.2019 20:46 9,3 °C 54 % 1020,1 hPa 0,0 mm 0,3 km/h (0 Bft) O-NO 73 ° 0 min 0,000 mm 0,0 UV-I 0 W/m² 0,5 °C 9,3 °C 1,6 km/h (1 Bft)
17.04.2019 20:47 9,2 °C 54 % 1020,1 hPa 0,0 mm 2,5 km/h (1 Bft) O 95 ° 0 min 0,000 mm 0,0 UV-I 0 W/m² 0,4 °C 9,2 °C 6,4 km/h (2 Bft)
17.04.2019 20:48 9,2 °C 54 % 1020,1 hPa 0,0 mm 3,5 km/h (1 Bft) O-SO 109 ° 0 min 0,000 mm 0,0 UV-I 0 W/m² 0,4 °C 9,2 °C 4,8 km/h (1 Bft)
17.04.2019 20:49 9,3 °C 53 % 1020,1 hPa 0,0 mm 2,0 km/h (1 Bft) O-SO 114 ° 0 min 0,000 mm 0,0 UV-I 0 W/m² 0,2 °C 9,3 °C 3,2 km/h (1 Bft)
17.04.2019 20:50 9,3 °C 52 % 1020,1 hPa 0,0 mm 1,3 km/h (1 Bft) O-SO 114 ° 0 min 0,000 mm 0,0 UV-I 0 W/m² -0,0 °C 9,3 °C 3,2 km/h (1 Bft)
17.04.2019 20:51 9,3 °C 52 % 1020,1 hPa 0,0 mm 1,4 km/h (1 Bft) O 82 ° 0 min 0,000 mm 0,0 UV-I 0 W/m² -0,0 °C 9,3 °C 6,4 km/h (2 Bft)
17.04.2019 20:52 9,2 °C 53 % 1020,1 hPa 0,0 mm 1,6 km/h (1 Bft) O 82 ° 0 min 0,000 mm 0,0 UV-I 0 W/m² 0,1 °C 9,2 °C 3,2 km/h (1 Bft)
17.04.2019 20:53 9,2 °C 52 % 1020,1 hPa 0,0 mm 0,2 km/h (0 Bft) O 82 ° 0 min 0,000 mm 0,0 UV-I 0 W/m² -0,1 °C 9,2 °C 1,6 km/h (1 Bft)
17.04.2019 20:54 9,2 °C 52 % 1020,1 hPa 0,0 mm 1,8 km/h (1 Bft) O 101 ° 0 min 0,000 mm 0,0 UV-I 0 W/m² -0,1 °C 9,2 °C 4,8 km/h (1 Bft)
17.04.2019 20:55 9,2 °C 52 % 1020,1 hPa 0,0 mm 3,2 km/h (1 Bft) S-SO 149 ° 0 min 0,000 mm 0,0 UV-I 0 W/m² -0,1 °C 9,2 °C 4,8 km/h (1 Bft)
17.04.2019 20:56 9,3 °C 52 % 1020,1 hPa 0,0 mm 2,0 km/h (1 Bft) S-SO 149 ° 0 min 0,000 mm 0,0 UV-I 0 W/m² -0,0 °C 9,3 °C 3,2 km/h (1 Bft)
17.04.2019 20:57 9,3 °C 51 % 1020,1 hPa 0,0 mm 1,9 km/h (1 Bft) O 100 ° 0 min 0,000 mm 0,0 UV-I 0 W/m² -0,3 °C 9,3 °C 3,2 km/h (1 Bft)
17.04.2019 20:58 9,5 °C 51 % 1020,1 hPa 0,0 mm 2,0 km/h (1 Bft) O 100 ° 0 min 0,000 mm 0,0 UV-I 0 W/m² -0,1 °C 9,5 °C 3,2 km/h (1 Bft)
17.04.2019 20:59 9,4 °C 52 % 1020,2 hPa 0,0 mm 1,0 km/h (0 Bft) O 100 ° 0 min 0,000 mm 0,0 UV-I 0 W/m² 0,1 °C 9,4 °C 3,2 km/h (1 Bft)
17.04.2019 21:00 9,3 °C 52 % 1020,1 hPa 0,0 mm 1,0 km/h (0 Bft) O-SO 111 ° 0 min 0,000 mm 0,0 UV-I 0 W/m² -0,0 °C 9,3 °C 3,2 km/h (1 Bft)
17.04.2019 21:01 9,2 °C 52 % 1020,2 hPa 0,0 mm 2,4 km/h (1 Bft) O-SO 113 ° 0 min 0,025 mm 0,0 UV-I 0 W/m² -0,1 °C 9,2 °C 3,2 km/h (1 Bft)
17.04.2019 21:02 9,2 °C 52 % 1020,2 hPa 0,0 mm 1,7 km/h (1 Bft) O-SO 113 ° 0 min 0,000 mm 0,0 UV-I 0 W/m² -0,1 °C 9,2 °C 3,2 km/h (1 Bft)
17.04.2019 21:03 9,1 °C 53 % 1020,2 hPa 0,0 mm 1,3 km/h (1 Bft) O-SO 113 ° 0 min 0,000 mm 0,0 UV-I 0 W/m² 0,0 °C 9,1 °C 3,2 km/h (1 Bft)
17.04.2019 21:04 9,1 °C 53 % 1020,2 hPa 0,0 mm 3,3 km/h (1 Bft) O-SO 123 ° 0 min 0,000 mm 0,0 UV-I 0 W/m² 0,0 °C 9,1 °C 4,8 km/h (1 Bft)
17.04.2019 21:05 9,2 °C 52 % 1020,2 hPa 0,0 mm 1,2 km/h (1 Bft) O-SO 123 ° 0 min 0,000 mm 0,0 UV-I 0 W/m² -0,1 °C 9,2 °C 3,2 km/h (1 Bft)
17.04.2019 21:06 9,2 °C 51 % 1020,2 hPa 0,0 mm 2,1 km/h (1 Bft) O-SO 123 ° 0 min 0,000 mm 0,0 UV-I 0 W/m² -0,4 °C 9,2 °C 3,2 km/h (1 Bft)
17.04.2019 21:07 9,0 °C 54 % 1020,2 hPa 0,0 mm 0,7 km/h (0 Bft) O-SO 104 ° 0 min 0,000 mm 0,0 UV-I 0 W/m² 0,2 °C 9,0 °C 3,2 km/h (1 Bft)
17.04.2019 21:08 8,9 °C 54 % 1020,3 hPa 0,0 mm 1,4 km/h (1 Bft) O-SO 104 ° 0 min 0,000 mm 0,0 UV-I 0 W/m² 0,1 °C 8,9 °C 3,2 km/h (1 Bft)
17.04.2019 21:09 8,8 °C 54 % 1020,3 hPa 0,0 mm 0,0 km/h (0 Bft) O-SO 104 ° 0 min 0,000 mm 0,0 UV-I 0 W/m² 0,0 °C 8,8 °C 0,0 km/h (0 Bft)
17.04.2019 21:10 8,7 °C 54 % 1020,3 hPa 0,0 mm 0,0 km/h (0 Bft) O-SO 104 ° 0 min 0,000 mm 0,0 UV-I 0 W/m² -0,1 °C 8,7 °C 0,0 km/h (0 Bft)
17.04.2019 21:11 8,6 °C 55 % 1020,3 hPa 0,0 mm 0,0 km/h (0 Bft) O-SO 104 ° 0 min 0,000 mm 0,0 UV-I 0 W/m² 0,1 °C 8,6 °C 0,0 km/h (0 Bft)
17.04.2019 21:12 8,6 °C 55 % 1020,3 hPa 0,0 mm 0,0 km/h (0 Bft) O-SO 104 ° 0 min 0,000 mm 0,0 UV-I 0 W/m² 0,1 °C 8,6 °C 0,0 km/h (0 Bft)
17.04.2019 21:13 8,6 °C 54 % 1020,3 hPa 0,0 mm 0,0 km/h (0 Bft) O-SO 104 ° 0 min 0,000 mm 0,0 UV-I 0 W/m² -0,2 °C 8,6 °C 0,0 km/h (0 Bft)
17.04.2019 21:14 8,7 °C 53 % 1020,3 hPa 0,0 mm 1,0 km/h (0 Bft) O-SO 104 ° 0 min 0,000 mm 0,0 UV-I 0 W/m² -0,3 °C 8,7 °C 1,6 km/h (1 Bft)
17.04.2019 21:15 8,7 °C 55 % 1020,4 hPa 0,0 mm 0,0 km/h (0 Bft) O-SO 103 ° 0 min 0,000 mm 0,0 UV-I 0 W/m² 0,2 °C 8,7 °C 0,0 km/h (0 Bft)
17.04.2019 21:16 8,7 °C 54 % 1020,4 hPa 0,0 mm 0,0 km/h (0 Bft) O-SO 103 ° 0 min 0,000 mm 0,0 UV-I 0 W/m² -0,1 °C 8,7 °C 0,0 km/h (0 Bft)
17.04.2019 21:17 8,7 °C 54 % 1020,4 hPa 0,0 mm 0,0 km/h (0 Bft) O-SO 103 ° 0 min 0,000 mm 0,0 UV-I 0 W/m² -0,1 °C 8,7 °C 0,0 km/h (0 Bft)
17.04.2019 21:18 8,6 °C 55 % 1020,4 hPa 0,0 mm 0,0 km/h (0 Bft) O-SO 103 ° 0 min 0,000 mm 0,0 UV-I 0 W/m² 0,1 °C 8,6 °C 0,0 km/h (0 Bft)
17.04.2019 21:19 8,6 °C 53 % 1020,4 hPa 0,0 mm 0,0 km/h (0 Bft) O-SO 103 ° 0 min 0,000 mm 0,0 UV-I 0 W/m² -0,4 °C 8,6 °C 0,0 km/h (0 Bft)
17.04.2019 21:20 8,6 °C 56 % 1020,4 hPa 0,0 mm 0,0 km/h (0 Bft) O-SO 103 ° 0 min 0,000 mm 0,0 UV-I 0 W/m² 0,3 °C 8,6 °C 0,0 km/h (0 Bft)
17.04.2019 21:21 8,5 °C 57 % 1020,4 hPa 0,0 mm 0,4 km/h (0 Bft) O-SO 114 ° 0 min 0,000 mm 0,0 UV-I 0 W/m² 0,5 °C 8,5 °C 3,2 km/h (1 Bft)
17.04.2019 21:22 8,4 °C 56 % 1020,4 hPa 0,0 mm 2,4 km/h (1 Bft) O-SO 114 ° 0 min 0,000 mm 0,0 UV-I 0 W/m² 0,1 °C 8,4 °C 3,2 km/h (1 Bft)
17.04.2019 21:23 8,4 °C 55 % 1020,4 hPa 0,0 mm 1,5 km/h (1 Bft) O-SO 114 ° 0 min 0,000 mm 0,0 UV-I 0 W/m² -0,1 °C 8,4 °C 3,2 km/h (1 Bft)
17.04.2019 21:24 8,4 °C 54 % 1020,4 hPa 0,0 mm 0,3 km/h (0 Bft) O-SO 114 ° 0 min 0,000 mm 0,0 UV-I 0 W/m² -0,4 °C 8,4 °C 1,6 km/h (1 Bft)
17.04.2019 21:25 8,6 °C 54 % 1020,4 hPa 0,0 mm 0,7 km/h (0 Bft) O-SO 114 ° 0 min 0,000 mm 0,0 UV-I 0 W/m² -0,2 °C 8,6 °C 1,6 km/h (1 Bft)
17.04.2019 21:26 8,6 °C 54 % 1020,4 hPa 0,0 mm 1,9 km/h (1 Bft) O-SO 114 ° 0 min 0,000 mm 0,0 UV-I 0 W/m² -0,2 °C 8,6 °C 3,2 km/h (1 Bft)
17.04.2019 21:27 8,7 °C 52 % 1020,4 hPa 0,0 mm 0,1 km/h (0 Bft) O-SO 114 ° 0 min 0,000 mm 0,0 UV-I 0 W/m² -0,6 °C 8,7 °C 1,6 km/h (1 Bft)
17.04.2019 21:28 8,6 °C 55 % 1020,5 hPa 0,0 mm 0,0 km/h (0 Bft) O-SO 114 ° 0 min 0,000 mm 0,0 UV-I 0 W/m² 0,1 °C 8,6 °C 0,0 km/h (0 Bft)
17.04.2019 21:29 8,5 °C 55 % 1020,4 hPa 0,0 mm 0,3 km/h (0 Bft) O-SO 114 ° 0 min 0,000 mm 0,0 UV-I 0 W/m² -0,0 °C 8,5 °C 3,2 km/h (1 Bft)
17.04.2019 21:30 8,4 °C 55 % 1020,5 hPa 0,0 mm 2,3 km/h (1 Bft) O-SO 114 ° 0 min 0,000 mm 0,0 UV-I 0 W/m² -0,1 °C 8,4 °C 3,2 km/h (1 Bft)
17.04.2019 21:31 8,4 °C 54 % 1020,5 hPa 0,0 mm 2,1 km/h (1 Bft) O-SO 114 ° 0 min 0,000 mm 0,0 UV-I 0 W/m² -0,4 °C 8,4 °C 4,8 km/h (1 Bft)
17.04.2019 21:32 8,4 °C 54 % 1020,5 hPa 0,0 mm 1,5 km/h (1 Bft) O-SO 114 ° 0 min 0,000 mm 0,0 UV-I 0 W/m² -0,4 °C 8,4 °C 3,2 km/h (1 Bft)
17.04.2019 21:33 8,6 °C 55 % 1020,5 hPa 0,0 mm 0,0 km/h (0 Bft) O-SO 114 ° 0 min 0,000 mm 0,0 UV-I 0 W/m² 0,1 °C 8,6 °C 0,0 km/h (0 Bft)
17.04.2019 21:34 8,6 °C 54 % 1020,5 hPa 0,0 mm 2,4 km/h (1 Bft) O-SO 114 ° 0 min 0,000 mm 0,0 UV-I 0 W/m² -0,2 °C 8,6 °C 4,8 km/h (1 Bft)
17.04.2019 21:35 8,6 °C 54 % 1020,6 hPa 0,0 mm 0,4 km/h (0 Bft) O-SO 114 ° 0 min 0,000 mm 0,0 UV-I 0 W/m² -0,2 °C 8,6 °C 3,2 km/h (1 Bft)
17.04.2019 21:36 8,6 °C 54 % 1020,6 hPa 0,0 mm 0,5 km/h (0 Bft) O-SO 114 ° 0 min 0,000 mm 0,0 UV-I 0 W/m² -0,2 °C 8,6 °C 3,2 km/h (1 Bft)
17.04.2019 21:37 8,6 °C 54 % 1020,6 hPa 0,0 mm 0,9 km/h (0 Bft) O-SO 114 ° 0 min 0,000 mm 0,0 UV-I 0 W/m² -0,2 °C 8,6 °C 1,6 km/h (1 Bft)
17.04.2019 21:38 8,6 °C 54 % 1020,6 hPa 0,0 mm 0,8 km/h (0 Bft) O-SO 114 ° 0 min 0,000 mm 0,0 UV-I 0 W/m² -0,2 °C 8,6 °C 1,6 km/h (1 Bft)
17.04.2019 21:39 8,6 °C 54 % 1020,6 hPa 0,0 mm 1,2 km/h (1 Bft) O-SO 114 ° 0 min 0,000 mm 0,0 UV-I 0 W/m² -0,2 °C 8,6 °C 3,2 km/h (1 Bft)
17.04.2019 21:40 8,6 °C 54 % 1020,6 hPa 0,0 mm 0,0 km/h (0 Bft) O-SO 114 ° 0 min 0,000 mm 0,0 UV-I 0 W/m² -0,2 °C 8,6 °C 0,0 km/h (0 Bft)
17.04.2019 21:41 8,6 °C 54 % 1020,6 hPa 0,0 mm 0,0 km/h (0 Bft) O-SO 114 ° 0 min 0,000 mm 0,0 UV-I 0 W/m² -0,2 °C 8,6 °C 0,0 km/h (0 Bft)
17.04.2019 21:42 8,4 °C 56 % 1020,6 hPa 0,0 mm 0,0 km/h (0 Bft) O-SO 114 ° 0 min 0,000 mm 0,0 UV-I 0 W/m² 0,1 °C 8,4 °C 0,0 km/h (0 Bft)
17.04.2019 21:43 8,0 °C 58 % 1020,6 hPa 0,0 mm 0,0 km/h (0 Bft) O-SO 114 ° 0 min 0,000 mm 0,0 UV-I 0 W/m² 0,3 °C 8,0 °C 0,0 km/h (0 Bft)
17.04.2019 21:44 7,7 °C 59 % 1020,6 hPa 0,0 mm 0,0 km/h (0 Bft) O-SO 114 ° 0 min 0,000 mm 0,0 UV-I 0 W/m² 0,2 °C 7,7 °C 0,0 km/h (0 Bft)
17.04.2019 21:45 7,7 °C 58 % 1020,6 hPa 0,0 mm 0,0 km/h (0 Bft) O-SO 114 ° 0 min 0,000 mm 0,0 UV-I 0 W/m² -0,0 °C 7,7 °C 0,0 km/h (0 Bft)
17.04.2019 21:46 7,7 °C 58 % 1020,7 hPa 0,0 mm 0,0 km/h (0 Bft) O-SO 114 ° 0 min 0,000 mm 0,0 UV-I 0 W/m² -0,0 °C 7,7 °C 0,0 km/h (0 Bft)
17.04.2019 21:47 7,3 °C 60 % 1020,6 hPa 0,0 mm 0,0 km/h (0 Bft) O-SO 114 ° 0 min 0,000 mm 0,0 UV-I 0 W/m² 0,1 °C 7,3 °C 0,0 km/h (0 Bft)
17.04.2019 21:48 7,2 °C 61 % 1020,6 hPa 0,0 mm 0,0 km/h (0 Bft) O-SO 114 ° 0 min 0,000 mm 0,0 UV-I 0 W/m² 0,2 °C 7,2 °C 0,0 km/h (0 Bft)
17.04.2019 21:49 7,2 °C 60 % 1020,6 hPa 0,0 mm 0,0 km/h (0 Bft) O-SO 114 ° 0 min 0,000 mm 0,0 UV-I 0 W/m² -0,0 °C 7,2 °C 0,0 km/h (0 Bft)
17.04.2019 21:50 7,3 °C 60 % 1020,6 hPa 0,0 mm 0,0 km/h (0 Bft) O-SO 114 ° 0 min 0,000 mm 0,0 UV-I 0 W/m² 0,1 °C 7,3 °C 0,0 km/h (0 Bft)
17.04.2019 21:51 7,6 °C 59 % 1020,6 hPa 0,0 mm 0,0 km/h (0 Bft) O-SO 114 ° 0 min 0,000 mm 0,0 UV-I 0 W/m² 0,1 °C 7,6 °C 0,0 km/h (0 Bft)
17.04.2019 21:52 7,6 °C 59 % 1020,6 hPa 0,0 mm 0,0 km/h (0 Bft) O-SO 114 ° 0 min 0,000 mm 0,0 UV-I 0 W/m² 0,1 °C 7,6 °C 0,0 km/h (0 Bft)
17.04.2019 21:53 7,7 °C 58 % 1020,6 hPa 0,0 mm 0,0 km/h (0 Bft) O-SO 114 ° 0 min 0,000 mm 0,0 UV-I 0 W/m² -0,0 °C 7,7 °C 0,0 km/h (0 Bft)
17.04.2019 21:54 7,7 °C 60 % 1020,6 hPa 0,0 mm 0,0 km/h (0 Bft) O-SO 114 ° 0 min 0,000 mm 0,0 UV-I 0 W/m² 0,4 °C 7,7 °C 0,0 km/h (0 Bft)
17.04.2019 21:55 7,4 °C 61 % 1020,6 hPa 0,0 mm 0,0 km/h (0 Bft) O-SO 114 ° 0 min 0,000 mm 0,0 UV-I 0 W/m² 0,4 °C 7,4 °C 0,0 km/h (0 Bft)
17.04.2019 21:56 7,2 °C 61 % 1020,6 hPa 0,0 mm 0,0 km/h (0 Bft) O-SO 114 ° 0 min 0,000 mm 0,0 UV-I 0 W/m² 0,2 °C 7,2 °C 0,0 km/h (0 Bft)
17.04.2019 21:57 7,2 °C 60 % 1020,6 hPa 0,0 mm 0,0 km/h (0 Bft) O-SO 114 ° 0 min 0,000 mm 0,0 UV-I 0 W/m² -0,0 °C 7,2 °C 0,0 km/h (0 Bft)
17.04.2019 21:58 6,9 °C 63 % 1020,6 hPa 0,0 mm 0,0 km/h (0 Bft) O-SO 114 ° 0 min 0,000 mm 0,0 UV-I 0 W/m² 0,4 °C 6,9 °C 0,0 km/h (0 Bft)
17.04.2019 21:59 6,9 °C 63 % 1020,6 hPa 0,0 mm 0,0 km/h (0 Bft) O-SO 114 ° 0 min 0,000 mm 0,0 UV-I 0 W/m² 0,4 °C 6,9 °C 0,0 km/h (0 Bft)
17.04.2019 22:00 7,1 °C 60 % 1020,6 hPa 0,0 mm 0,0 km/h (0 Bft) O-SO 114 ° 0 min 0,000 mm 0,0 UV-I 0 W/m² -0,1 °C 7,1 °C 0,0 km/h (0 Bft)
17.04.2019 22:01 7,2 °C 60 % 1020,6 hPa 0,0 mm 0,0 km/h (0 Bft) O-SO 114 ° 0 min 0,025 mm 0,0 UV-I 0 W/m² -0,0 °C 7,2 °C 0,0 km/h (0 Bft)
17.04.2019 22:02 7,4 °C 59 % 1020,6 hPa 0,0 mm 0,2 km/h (0 Bft) O-SO 114 ° 0 min 0,000 mm 0,0 UV-I 0 W/m² -0,1 °C 7,4 °C 1,6 km/h (1 Bft)
17.04.2019 22:03 7,5 °C 59 % 1020,6 hPa 0,0 mm 1,7 km/h (1 Bft) O-SO 114 ° 0 min 0,000 mm 0,0 UV-I 0 W/m² 0,0 °C 7,5 °C 3,2 km/h (1 Bft)
17.04.2019 22:04 7,7 °C 58 % 1020,6 hPa 0,0 mm 0,3 km/h (0 Bft) O-SO 114 ° 0 min 0,000 mm 0,0 UV-I 0 W/m² -0,0 °C 7,7 °C 1,6 km/h (1 Bft)
17.04.2019 22:05 7,7 °C 58 % 1020,6 hPa 0,0 mm 0,0 km/h (0 Bft) O-SO 114 ° 0 min 0,000 mm 0,0 UV-I 0 W/m² -0,0 °C 7,7 °C 0,0 km/h (0 Bft)
17.04.2019 22:06 7,8 °C 58 % 1020,5 hPa 0,0 mm 0,0 km/h (0 Bft) O-SO 114 ° 0 min 0,000 mm 0,0 UV-I 0 W/m² 0,1 °C 7,8 °C 0,0 km/h (0 Bft)
17.04.2019 22:07 7,6 °C 60 % 1020,5 hPa 0,0 mm 0,0 km/h (0 Bft) O-SO 114 ° 0 min 0,000 mm 0,0 UV-I 0 W/m² 0,3 °C 7,6 °C 0,0 km/h (0 Bft)
17.04.2019 22:08 7,2 °C 61 % 1020,5 hPa 0,0 mm 0,0 km/h (0 Bft) O-SO 114 ° 0 min 0,000 mm 0,0 UV-I 0 W/m² 0,2 °C 7,2 °C 0,0 km/h (0 Bft)
17.04.2019 22:09 7,0 °C 62 % 1020,5 hPa 0,0 mm 0,0 km/h (0 Bft) O-SO 114 ° 0 min 0,000 mm 0,0 UV-I 0 W/m² 0,2 °C 7,0 °C 0,0 km/h (0 Bft)
17.04.2019 22:10 7,0 °C 61 % 1020,5 hPa 0,0 mm 0,0 km/h (0 Bft) O-SO 114 ° 0 min 0,000 mm 0,0 UV-I 0 W/m² 0,0 °C 7,0 °C 0,0 km/h (0 Bft)
17.04.2019 22:11 7,1 °C 60 % 1020,5 hPa 0,0 mm 0,0 km/h (0 Bft) O-SO 114 ° 0 min 0,000 mm 0,0 UV-I 0 W/m² -0,1 °C 7,1 °C 0,0 km/h (0 Bft)
17.04.2019 22:12 7,2 °C 60 % 1020,5 hPa 0,0 mm 0,0 km/h (0 Bft) O-SO 114 ° 0 min 0,000 mm 0,0 UV-I 0 W/m² -0,0 °C 7,2 °C 0,0 km/h (0 Bft)
17.04.2019 22:13 7,3 °C 60 % 1020,5 hPa 0,0 mm 0,7 km/h (0 Bft) O-SO 114 ° 0 min 0,000 mm 0,0 UV-I 0 W/m² 0,1 °C 7,3 °C 1,6 km/h (1 Bft)
17.04.2019 22:14 7,4 °C 59 % 1020,5 hPa 0,0 mm 0,0 km/h (0 Bft) O-SO 114 ° 0 min 0,000 mm 0,0 UV-I 0 W/m² -0,1 °C 7,4 °C 0,0 km/h (0 Bft)
17.04.2019 22:15 7,5 °C 59 % 1020,5 hPa 0,0 mm 0,0 km/h (0 Bft) O-SO 114 ° 0 min 0,000 mm 0,0 UV-I 0 W/m² 0,0 °C 7,5 °C 0,0 km/h (0 Bft)
17.04.2019 22:16 7,5 °C 59 % 1020,5 hPa 0,0 mm 0,0 km/h (0 Bft) O-SO 114 ° 0 min 0,000 mm 0,0 UV-I 0 W/m² 0,0 °C 7,5 °C 0,0 km/h (0 Bft)
17.04.2019 22:17 7,4 °C 61 % 1020,5 hPa 0,0 mm 0,0 km/h (0 Bft) O-SO 114 ° 0 min 0,000 mm 0,0 UV-I 0 W/m² 0,4 °C 7,4 °C 0,0 km/h (0 Bft)
17.04.2019 22:18 7,1 °C 62 % 1020,5 hPa 0,0 mm 0,0 km/h (0 Bft) O-SO 114 ° 0 min 0,000 mm 0,0 UV-I 0 W/m² 0,3 °C 7,1 °C 0,0 km/h (0 Bft)
17.04.2019 22:19 6,8 °C 62 % 1020,5 hPa 0,0 mm 0,0 km/h (0 Bft) O-SO 114 ° 0 min 0,000 mm 0,0 UV-I 0 W/m² 0,0 °C 6,8 °C 0,0 km/h (0 Bft)
17.04.2019 22:20 6,6 °C 63 % 1020,5 hPa 0,0 mm 0,0 km/h (0 Bft) O-SO 114 ° 0 min 0,000 mm 0,0 UV-I 0 W/m² 0,1 °C 6,6 °C 0,0 km/h (0 Bft)
17.04.2019 22:21 6,3 °C 64 % 1020,5 hPa 0,0 mm 0,0 km/h (0 Bft) O-SO 114 ° 0 min 0,000 mm 0,0 UV-I 0 W/m² 0,0 °C 6,3 °C 0,0 km/h (0 Bft)
17.04.2019 22:22 6,2 °C 65 % 1020,5 hPa 0,0 mm 0,0 km/h (0 Bft) O-SO 114 ° 0 min 0,000 mm 0,0 UV-I 0 W/m² 0,1 °C 6,2 °C 0,0 km/h (0 Bft)
17.04.2019 22:23 6,1 °C 66 % 1020,5 hPa 0,0 mm 0,0 km/h (0 Bft) O-SO 114 ° 0 min 0,000 mm 0,0 UV-I 0 W/m² 0,2 °C 6,1 °C 0,0 km/h (0 Bft)
17.04.2019 22:24 5,9 °C 67 % 1020,5 hPa 0,0 mm 0,0 km/h (0 Bft) O-SO 114 ° 0 min 0,000 mm 0,0 UV-I 0 W/m² 0,3 °C 5,9 °C 0,0 km/h (0 Bft)
17.04.2019 22:25 6,1 °C 66 % 1020,5 hPa 0,0 mm 0,0 km/h (0 Bft) O-SO 114 ° 0 min 0,000 mm 0,0 UV-I 0 W/m² 0,2 °C 6,1 °C 0,0 km/h (0 Bft)
17.04.2019 22:26 6,2 °C 65 % 1020,5 hPa 0,0 mm 0,0 km/h (0 Bft) O-SO 114 ° 0 min 0,000 mm 0,0 UV-I 0 W/m² 0,1 °C 6,2 °C 0,0 km/h (0 Bft)
17.04.2019 22:27 6,4 °C 63 % 1020,5 hPa 0,0 mm 0,0 km/h (0 Bft) O-SO 114 ° 0 min 0,000 mm 0,0 UV-I 0 W/m² -0,1 °C 6,4 °C 0,0 km/h (0 Bft)
17.04.2019 22:28 6,6 °C 64 % 1020,5 hPa 0,0 mm 0,0 km/h (0 Bft) O-SO 114 ° 0 min 0,000 mm 0,0 UV-I 0 W/m² 0,3 °C 6,6 °C 0,0 km/h (0 Bft)
17.04.2019 22:29 6,3 °C 65 % 1020,5 hPa 0,0 mm 0,0 km/h (0 Bft) O-SO 114 ° 0 min 0,000 mm 0,0 UV-I 0 W/m² 0,2 °C 6,3 °C 0,0 km/h (0 Bft)
17.04.2019 22:30 6,1 °C 66 % 1020,5 hPa 0,0 mm 0,0 km/h (0 Bft) O-SO 114 ° 0 min 0,000 mm 0,0 UV-I 0 W/m² 0,2 °C 6,1 °C 0,0 km/h (0 Bft)
17.04.2019 22:31 5,9 °C 66 % 1020,6 hPa 0,0 mm 0,0 km/h (0 Bft) O-SO 114 ° 0 min 0,000 mm 0,0 UV-I 0 W/m² 0,0 °C 5,9 °C 0,0 km/h (0 Bft)
17.04.2019 22:32 5,8 °C 66 % 1020,6 hPa 0,0 mm 0,0 km/h (0 Bft) O-SO 114 ° 0 min 0,000 mm 0,0 UV-I 0 W/m² -0,0 °C 5,8 °C 0,0 km/h (0 Bft)
17.04.2019 22:33 5,6 °C 67 % 1020,5 hPa 0,0 mm 0,0 km/h (0 Bft) O-SO 114 ° 0 min 0,000 mm 0,0 UV-I 0 W/m² -0,0 °C 5,6 °C 0,0 km/h (0 Bft)
17.04.2019 22:34 5,4 °C 68 % 1020,5 hPa 0,0 mm 0,0 km/h (0 Bft) O-SO 114 ° 0 min 0,000 mm 0,0 UV-I 0 W/m² -0,0 °C 5,4 °C 0,0 km/h (0 Bft)
17.04.2019 22:35 5,3 °C 68 % 1020,5 hPa 0,0 mm 0,0 km/h (0 Bft) O-SO 114 ° 0 min 0,000 mm 0,0 UV-I 0 W/m² -0,1 °C 5,3 °C 0,0 km/h (0 Bft)
17.04.2019 22:36 5,3 °C 69 % 1020,5 hPa 0,0 mm 0,0 km/h (0 Bft) O-SO 114 ° 0 min 0,000 mm 0,0 UV-I 0 W/m² 0,1 °C 5,3 °C 0,0 km/h (0 Bft)
17.04.2019 22:37 5,3 °C 69 % 1020,5 hPa 0,0 mm 1,0 km/h (0 Bft) O-SO 114 ° 0 min 0,000 mm 0,0 UV-I 0 W/m² 0,1 °C 5,3 °C 3,2 km/h (1 Bft)
17.04.2019 22:38 5,4 °C 69 % 1020,6 hPa 0,0 mm 2,1 km/h (1 Bft) O-SO 114 ° 0 min 0,000 mm 0,0 UV-I 0 W/m² 0,2 °C 5,4 °C 3,2 km/h (1 Bft)
17.04.2019 22:39 5,5 °C 69 % 1020,6 hPa 0,0 mm 2,5 km/h (1 Bft) O-SO 114 ° 0 min 0,000 mm 0,0 UV-I 0 W/m² 0,3 °C 5,5 °C 3,2 km/h (1 Bft)
17.04.2019 22:40 5,7 °C 68 % 1020,6 hPa 0,0 mm 3,4 km/h (1 Bft) O-SO 121 ° 0 min 0,000 mm 0,0 UV-I 0 W/m² 0,3 °C 5,7 °C 4,8 km/h (1 Bft)
17.04.2019 22:41 5,7 °C 68 % 1020,6 hPa 0,0 mm 4,5 km/h (1 Bft) S-SO 148 ° 0 min 0,000 mm 0,0 UV-I 0 W/m² 0,3 °C 5,7 °C 4,8 km/h (1 Bft)
17.04.2019 22:42 5,7 °C 67 % 1020,6 hPa 0,0 mm 1,7 km/h (1 Bft) S-SO 148 ° 0 min 0,000 mm 0,0 UV-I 0 W/m² 0,1 °C 5,7 °C 4,8 km/h (1 Bft)
17.04.2019 22:43 5,8 °C 67 % 1020,6 hPa 0,0 mm 2,4 km/h (1 Bft) S-SO 148 ° 0 min 0,000 mm 0,0 UV-I 0 W/m² 0,2 °C 5,8 °C 4,8 km/h (1 Bft)
17.04.2019 22:44 5,8 °C 66 % 1020,6 hPa 0,0 mm 4,2 km/h (1 Bft) S 191 ° 0 min 0,000 mm 0,0 UV-I 0 W/m² -0,0 °C 5,8 °C 4,8 km/h (1 Bft)
17.04.2019 22:45 6,0 °C 65 % 1020,6 hPa 0,0 mm 3,6 km/h (1 Bft) S 191 ° 0 min 0,000 mm 0,0 UV-I 0 W/m² -0,1 °C 6,0 °C 4,8 km/h (1 Bft)
17.04.2019 22:46 6,2 °C 66 % 1020,7 hPa 0,0 mm 4,3 km/h (1 Bft) S-SW 193 ° 0 min 0,000 mm 0,0 UV-I 0 W/m² 0,3 °C 6,2 °C 6,4 km/h (2 Bft)
17.04.2019 22:47 6,2 °C 65 % 1020,7 hPa 0,0 mm 3,6 km/h (1 Bft) S-SW 192 ° 0 min 0,000 mm 0,0 UV-I 0 W/m² 0,1 °C 6,2 °C 6,4 km/h (2 Bft)
17.04.2019 22:48 6,2 °C 67 % 1020,7 hPa 0,0 mm 2,4 km/h (1 Bft) S-SW 192 ° 0 min 0,000 mm 0,0 UV-I 0 W/m² 0,5 °C 6,2 °C 4,8 km/h (1 Bft)
17.04.2019 22:49 6,1 °C 67 % 1020,7 hPa 0,0 mm 2,7 km/h (1 Bft) S-SW 192 ° 0 min 0,000 mm 0,0 UV-I 0 W/m² 0,4 °C 6,1 °C 4,8 km/h (1 Bft)
17.04.2019 22:50 6,1 °C 67 % 1020,7 hPa 0,0 mm 2,5 km/h (1 Bft) S-SW 192 ° 0 min 0,000 mm 0,0 UV-I 0 W/m² 0,4 °C 6,1 °C 4,8 km/h (1 Bft)
17.04.2019 22:51 6,1 °C 67 % 1020,6 hPa 0,0 mm 3,9 km/h (1 Bft) S-SW 192 ° 0 min 0,000 mm 0,0 UV-I 0 W/m² 0,4 °C 6,1 °C 6,4 km/h (2 Bft)
17.04.2019 22:52 6,0 °C 67 % 1020,7 hPa 0,0 mm 5,7 km/h (1 Bft) S-SW 192 ° 0 min 0,000 mm 0,0 UV-I 0 W/m² 0,3 °C 5,0 °C 6,4 km/h (2 Bft)
17.04.2019 22:53 6,0 °C 67 % 1020,7 hPa 0,0 mm 5,4 km/h (1 Bft) S-SW 192 ° 0 min 0,000 mm 0,0 UV-I 0 W/m² 0,3 °C 5,1 °C 6,4 km/h (2 Bft)
17.04.2019 22:54 5,9 °C 67 % 1020,6 hPa 0,0 mm 3,4 km/h (1 Bft) S-SW 192 ° 0 min 0,000 mm 0,0 UV-I 0 W/m² 0,3 °C 5,9 °C 6,4 km/h (2 Bft)
17.04.2019 22:55 5,8 °C 67 % 1020,6 hPa 0,0 mm 1,5 km/h (1 Bft) S-SW 192 ° 0 min 0,000 mm 0,0 UV-I 0 W/m² 0,2 °C 5,8 °C 1,6 km/h (1 Bft)
17.04.2019 22:56 5,9 °C 68 % 1020,6 hPa 0,0 mm 0,0 km/h (0 Bft) S-SW 192 ° 0 min 0,000 mm 0,0 UV-I 0 W/m² 0,5 °C 5,9 °C 0,0 km/h (0 Bft)
17.04.2019 22:57 5,9 °C 67 % 1020,7 hPa 0,0 mm 0,0 km/h (0 Bft) S-SW 192 ° 0 min 0,000 mm 0,0 UV-I 0 W/m² 0,3 °C 5,9 °C 0,0 km/h (0 Bft)
17.04.2019 22:58 5,9 °C 67 % 1020,6 hPa 0,0 mm 0,0 km/h (0 Bft) S-SW 192 ° 0 min 0,000 mm 0,0 UV-I 0 W/m² 0,3 °C 5,9 °C 0,0 km/h (0 Bft)
17.04.2019 22:59 6,0 °C 67 % 1020,6 hPa 0,0 mm 0,0 km/h (0 Bft) S-SW 192 ° 0 min 0,000 mm 0,0 UV-I 0 W/m² 0,3 °C 6,0 °C 0,0 km/h (0 Bft)
17.04.2019 23:00 6,1 °C 66 % 1020,6 hPa 0,0 mm 0,0 km/h (0 Bft) S-SW 192 ° 0 min 0,000 mm 0,0 UV-I 0 W/m² 0,2 °C 6,1 °C 0,0 km/h (0 Bft)
17.04.2019 23:01 6,2 °C 66 % 1020,6 hPa 0,0 mm 0,0 km/h (0 Bft) S-SW 192 ° 0 min 0,026 mm 0,0 UV-I 0 W/m² 0,3 °C 6,2 °C 0,0 km/h (0 Bft)
17.04.2019 23:02 6,2 °C 66 % 1020,6 hPa 0,0 mm 0,0 km/h (0 Bft) S-SW 192 ° 0 min 0,000 mm 0,0 UV-I 0 W/m² 0,3 °C 6,2 °C 0,0 km/h (0 Bft)
17.04.2019 23:03 6,2 °C 66 % 1020,6 hPa 0,0 mm 0,0 km/h (0 Bft) S-SW 192 ° 0 min 0,000 mm 0,0 UV-I 0 W/m² 0,3 °C 6,2 °C 0,0 km/h (0 Bft)
17.04.2019 23:04 6,3 °C 65 % 1020,6 hPa 0,0 mm 0,0 km/h (0 Bft) S-SW 192 ° 0 min 0,000 mm 0,0 UV-I 0 W/m² 0,2 °C 6,3 °C 0,0 km/h (0 Bft)
17.04.2019 23:05 6,3 °C 65 % 1020,6 hPa 0,0 mm 0,0 km/h (0 Bft) S-SW 192 ° 0 min 0,000 mm 0,0 UV-I 0 W/m² 0,2 °C 6,3 °C 0,0 km/h (0 Bft)
17.04.2019 23:06 6,3 °C 66 % 1020,6 hPa 0,0 mm 0,0 km/h (0 Bft) S-SW 192 ° 0 min 0,000 mm 0,0 UV-I 0 W/m² 0,4 °C 6,3 °C 0,0 km/h (0 Bft)
17.04.2019 23:07 5,9 °C 67 % 1020,6 hPa 0,0 mm 0,0 km/h (0 Bft) S-SW 192 ° 0 min 0,000 mm 0,0 UV-I 0 W/m² 0,3 °C 5,9 °C 0,0 km/h (0 Bft)
17.04.2019 23:08 5,7 °C 68 % 1020,7 hPa 0,0 mm 0,0 km/h (0 Bft) S-SW 192 ° 0 min 0,000 mm 0,0 UV-I 0 W/m² 0,3 °C 5,7 °C 0,0 km/h (0 Bft)
17.04.2019 23:09 5,3 °C 69 % 1020,6 hPa 0,0 mm 0,0 km/h (0 Bft) S-SW 192 ° 0 min 0,000 mm 0,0 UV-I 0 W/m² 0,1 °C 5,3 °C 0,0 km/h (0 Bft)
17.04.2019 23:10 5,1 °C 71 % 1020,7 hPa 0,0 mm 0,0 km/h (0 Bft) S-SW 192 ° 0 min 0,000 mm 0,0 UV-I 0 W/m² 0,3 °C 5,1 °C 0,0 km/h (0 Bft)
17.04.2019 23:11 4,9 °C 72 % 1020,7 hPa 0,0 mm 0,0 km/h (0 Bft) S-SW 192 ° 0 min 0,000 mm 0,0 UV-I 0 W/m² 0,3 °C 4,9 °C 0,0 km/h (0 Bft)
17.04.2019 23:12 4,7 °C 72 % 1020,7 hPa 0,0 mm 0,0 km/h (0 Bft) S-SW 192 ° 0 min 0,000 mm 0,0 UV-I 0 W/m² 0,1 °C 4,7 °C 0,0 km/h (0 Bft)
17.04.2019 23:13 4,6 °C 73 % 1020,6 hPa 0,0 mm 0,0 km/h (0 Bft) S-SW 192 ° 0 min 0,000 mm 0,0 UV-I 0 W/m² 0,2 °C 4,6 °C 0,0 km/h (0 Bft)
17.04.2019 23:14 4,6 °C 73 % 1020,6 hPa 0,0 mm 0,0 km/h (0 Bft) S-SW 192 ° 0 min 0,000 mm 0,0 UV-I 0 W/m² 0,2 °C 4,6 °C 0,0 km/h (0 Bft)
17.04.2019 23:15 4,6 °C 73 % 1020,6 hPa 0,0 mm 0,0 km/h (0 Bft) S-SW 192 ° 0 min 0,000 mm 0,0 UV-I 0 W/m² 0,2 °C 4,6 °C 0,0 km/h (0 Bft)
17.04.2019 23:16 4,6 °C 74 % 1020,6 hPa 0,0 mm 0,0 km/h (0 Bft) S-SW 192 ° 0 min 0,000 mm 0,0 UV-I 0 W/m² 0,4 °C 4,6 °C 0,0 km/h (0 Bft)
17.04.2019 23:17 4,6 °C 74 % 1020,6 hPa 0,0 mm 0,0 km/h (0 Bft) S-SW 192 ° 0 min 0,000 mm 0,0 UV-I 0 W/m² 0,4 °C 4,6 °C 0,0 km/h (0 Bft)
17.04.2019 23:18 4,6 °C 74 % 1020,5 hPa 0,0 mm 0,0 km/h (0 Bft) S-SW 192 ° 0 min 0,000 mm 0,0 UV-I 0 W/m² 0,4 °C 4,6 °C 0,0 km/h (0 Bft)
17.04.2019 23:19 4,6 °C 74 % 1020,5 hPa 0,0 mm 0,0 km/h (0 Bft) S-SW 192 ° 0 min 0,000 mm 0,0 UV-I 0 W/m² 0,4 °C 4,6 °C 0,0 km/h (0 Bft)
17.04.2019 23:20 4,8 °C 73 % 1020,5 hPa 0,0 mm 0,0 km/h (0 Bft) S-SW 192 ° 0 min 0,000 mm 0,0 UV-I 0 W/m² 0,4 °C 4,8 °C 0,0 km/h (0 Bft)
17.04.2019 23:21 4,9 °C 72 % 1020,5 hPa 0,0 mm 0,0 km/h (0 Bft) S-SW 192 ° 0 min 0,000 mm 0,0 UV-I 0 W/m² 0,3 °C 4,9 °C 0,0 km/h (0 Bft)
17.04.2019 23:22 4,9 °C 72 % 1020,5 hPa 0,0 mm 0,0 km/h (0 Bft) S-SW 192 ° 0 min 0,000 mm 0,0 UV-I 0 W/m² 0,3 °C 4,9 °C 0,0 km/h (0 Bft)
17.04.2019 23:23 4,8 °C 72 % 1020,5 hPa 0,0 mm 0,0 km/h (0 Bft) S-SW 192 ° 0 min 0,000 mm 0,0 UV-I 0 W/m² 0,2 °C 4,8 °C 0,0 km/h (0 Bft)
17.04.2019 23:24 4,7 °C 72 % 1020,5 hPa 0,0 mm 0,0 km/h (0 Bft) S-SW 192 ° 0 min 0,000 mm 0,0 UV-I 0 W/m² 0,1 °C 4,7 °C 0,0 km/h (0 Bft)
17.04.2019 23:25 4,6 °C 73 % 1020,5 hPa 0,0 mm 0,0 km/h (0 Bft) S-SW 192 ° 0 min 0,000 mm 0,0 UV-I 0 W/m² 0,2 °C 4,6 °C 0,0 km/h (0 Bft)
17.04.2019 23:26 4,4 °C 73 % 1020,5 hPa 0,0 mm 0,0 km/h (0 Bft) S-SW 192 ° 0 min 0,000 mm 0,0 UV-I 0 W/m² -0,0 °C 4,4 °C 0,0 km/h (0 Bft)
17.04.2019 23:27 4,3 °C 74 % 1020,5 hPa 0,0 mm 0,0 km/h (0 Bft) S-SW 192 ° 0 min 0,000 mm 0,0 UV-I 0 W/m² 0,1 °C 4,3 °C 0,0 km/h (0 Bft)
17.04.2019 23:28 4,2 °C 74 % 1020,5 hPa 0,0 mm 0,0 km/h (0 Bft) S-SW 192 ° 0 min 0,000 mm 0,0 UV-I 0 W/m² -0,0 °C 4,2 °C 0,0 km/h (0 Bft)
17.04.2019 23:29 4,1 °C 75 % 1020,5 hPa 0,0 mm 0,0 km/h (0 Bft) S-SW 192 ° 0 min 0,000 mm 0,0 UV-I 0 W/m² 0,1 °C 4,1 °C 0,0 km/h (0 Bft)
17.04.2019 23:30 4,0 °C 75 % 1020,5 hPa 0,0 mm 0,0 km/h (0 Bft) S-SW 192 ° 0 min 0,000 mm 0,0 UV-I 0 W/m² -0,0 °C 4,0 °C 0,0 km/h (0 Bft)
17.04.2019 23:31 4,1 °C 75 % 1020,5 hPa 0,0 mm 0,0 km/h (0 Bft) S-SW 192 ° 0 min 0,000 mm 0,0 UV-I 0 W/m² 0,1 °C 4,1 °C 0,0 km/h (0 Bft)
17.04.2019 23:32 4,0 °C 76 % 1020,5 hPa 0,0 mm 0,0 km/h (0 Bft) S-SW 192 ° 0 min 0,000 mm 0,0 UV-I 0 W/m² 0,2 °C 4,0 °C 0,0 km/h (0 Bft)
17.04.2019 23:33 4,0 °C 76 % 1020,5 hPa 0,0 mm 0,0 km/h (0 Bft) S-SW 192 ° 0 min 0,000 mm 0,0 UV-I 0 W/m² 0,2 °C 4,0 °C 0,0 km/h (0 Bft)
17.04.2019 23:34 4,0 °C 76 % 1020,4 hPa 0,0 mm 0,0 km/h (0 Bft) S-SW 192 ° 0 min 0,000 mm 0,0 UV-I 0 W/m² 0,2 °C 4,0 °C 0,0 km/h (0 Bft)
17.04.2019 23:35 3,9 °C 76 % 1020,5 hPa 0,0 mm 0,0 km/h (0 Bft) S-SW 192 ° 0 min 0,000 mm 0,0 UV-I 0 W/m² 0,1 °C 3,9 °C 0,0 km/h (0 Bft)
17.04.2019 23:36 3,9 °C 76 % 1020,4 hPa 0,0 mm 0,0 km/h (0 Bft) S-SW 192 ° 0 min 0,000 mm 0,0 UV-I 0 W/m² 0,1 °C 3,9 °C 0,0 km/h (0 Bft)
17.04.2019 23:37 4,0 °C 76 % 1020,5 hPa 0,0 mm 0,0 km/h (0 Bft) S-SW 192 ° 0 min 0,000 mm 0,0 UV-I 0 W/m² 0,2 °C 4,0 °C 0,0 km/h (0 Bft)
17.04.2019 23:38 4,2 °C 76 % 1020,4 hPa 0,0 mm 0,0 km/h (0 Bft) S-SW 192 ° 0 min 0,000 mm 0,0 UV-I 0 W/m² 0,4 °C 4,2 °C 0,0 km/h (0 Bft)
17.04.2019 23:39 4,2 °C 76 % 1020,4 hPa 0,0 mm 0,0 km/h (0 Bft) S-SW 192 ° 0 min 0,000 mm 0,0 UV-I 0 W/m² 0,4 °C 4,2 °C 0,0 km/h (0 Bft)
17.04.2019 23:40 4,2 °C 76 % 1020,4 hPa 0,0 mm 0,0 km/h (0 Bft) S-SW 192 ° 0 min 0,000 mm 0,0 UV-I 0 W/m² 0,4 °C 4,2 °C 0,0 km/h (0 Bft)
17.04.2019 23:41 4,1 °C 76 % 1020,5 hPa 0,0 mm 0,0 km/h (0 Bft) S-SW 192 ° 0 min 0,000 mm 0,0 UV-I 0 W/m² 0,3 °C 4,1 °C 0,0 km/h (0 Bft)
17.04.2019 23:42 4,0 °C 76 % 1020,4 hPa 0,0 mm 0,0 km/h (0 Bft) S-SW 192 ° 0 min 0,000 mm 0,0 UV-I 0 W/m² 0,2 °C 4,0 °C 0,0 km/h (0 Bft)
17.04.2019 23:43 3,8 °C 76 % 1020,4 hPa 0,0 mm 0,0 km/h (0 Bft) S-SW 192 ° 0 min 0,000 mm 0,0 UV-I 0 W/m² -0,0 °C 3,8 °C 0,0 km/h (0 Bft)
17.04.2019 23:44 3,7 °C 76 % 1020,3 hPa 0,0 mm 0,0 km/h (0 Bft) S-SW 192 ° 0 min 0,000 mm 0,0 UV-I 0 W/m² -0,1 °C 3,7 °C 0,0 km/h (0 Bft)
17.04.2019 23:45 3,6 °C 77 % 1020,3 hPa 0,0 mm 0,0 km/h (0 Bft) S-SW 192 ° 0 min 0,000 mm 0,0 UV-I 0 W/m² -0,0 °C 3,6 °C 0,0 km/h (0 Bft)
17.04.2019 23:46 3,6 °C 78 % 1020,4 hPa 0,0 mm 0,0 km/h (0 Bft) S-SW 192 ° 0 min 0,000 mm 0,0 UV-I 0 W/m² 0,1 °C 3,6 °C 0,0 km/h (0 Bft)
17.04.2019 23:47 3,5 °C 78 % 1020,4 hPa 0,0 mm 0,0 km/h (0 Bft) S-SW 192 ° 0 min 0,000 mm 0,0 UV-I 0 W/m² 0,0 °C 3,5 °C 0,0 km/h (0 Bft)
17.04.2019 23:48 3,6 °C 78 % 1020,4 hPa 0,0 mm 0,0 km/h (0 Bft) S-SW 192 ° 0 min 0,000 mm 0,0 UV-I 0 W/m² 0,1 °C 3,6 °C 0,0 km/h (0 Bft)
17.04.2019 23:49 3,6 °C 78 % 1020,4 hPa 0,0 mm 0,0 km/h (0 Bft) S-SW 192 ° 0 min 0,000 mm 0,0 UV-I 0 W/m² 0,1 °C 3,6 °C 0,0 km/h (0 Bft)
17.04.2019 23:50 3,7 °C 78 % 1020,4 hPa 0,0 mm 0,0 km/h (0 Bft) S-SW 192 ° 0 min 0,000 mm 0,0 UV-I 0 W/m² 0,2 °C 3,7 °C 0,0 km/h (0 Bft)
17.04.2019 23:51 3,7 °C 77 % 1020,4 hPa 0,0 mm 0,0 km/h (0 Bft) S-SW 192 ° 0 min 0,000 mm 0,0 UV-I 0 W/m² 0,1 °C 3,7 °C 0,0 km/h (0 Bft)
17.04.2019 23:52 3,6 °C 77 % 1020,3 hPa 0,0 mm 0,0 km/h (0 Bft) S-SW 192 ° 0 min 0,000 mm 0,0 UV-I 0 W/m² -0,0 °C 3,6 °C 0,0 km/h (0 Bft)
17.04.2019 23:53 3,6 °C 78 % 1020,3 hPa 0,0 mm 0,0 km/h (0 Bft) S-SW 192 ° 0 min 0,000 mm 0,0 UV-I 0 W/m² 0,1 °C 3,6 °C 0,0 km/h (0 Bft)
17.04.2019 23:54 3,6 °C 78 % 1020,3 hPa 0,0 mm 0,0 km/h (0 Bft) S-SW 192 ° 0 min 0,000 mm 0,0 UV-I 0 W/m² 0,1 °C 3,6 °C 0,0 km/h (0 Bft)
17.04.2019 23:55 3,5 °C 78 % 1020,4 hPa 0,0 mm 0,0 km/h (0 Bft) S-SW 192 ° 0 min 0,000 mm 0,0 UV-I 0 W/m² 0,0 °C 3,5 °C 0,0 km/h (0 Bft)
17.04.2019 23:56 3,4 °C 78 % 1020,4 hPa 0,0 mm 0,0 km/h (0 Bft) S-SW 192 ° 0 min 0,000 mm 0,0 UV-I 0 W/m² -0,1 °C 3,4 °C 0,0 km/h (0 Bft)
17.04.2019 23:57 3,3 °C 78 % 1020,4 hPa 0,0 mm 0,0 km/h (0 Bft) S-SW 192 ° 0 min 0,000 mm 0,0 UV-I 0 W/m² -0,2 °C 3,3 °C 0,0 km/h (0 Bft)
17.04.2019 23:58 3,3 °C 78 % 1020,4 hPa 0,0 mm 0,0 km/h (0 Bft) S-SW 192 ° 0 min 0,000 mm 0,0 UV-I 0 W/m² -0,2 °C 3,3 °C 0,0 km/h (0 Bft)
17.04.2019 23:59 3,2 °C 79 % 1020,4 hPa 0,0 mm 0,0 km/h (0 Bft) S-SW 192 ° 0 min 0,000 mm 0,0 UV-I 0 W/m² -0,1 °C 3,2 °C 0,0 km/h (0 Bft)
_ Min-Zeit 23:59 18:47 17:08 - 23:59 - - - - - - 21:27 00:36 23:59
Minimum _ 3,2 °C 38 % 1018,5 hPa - 0,0 km/h (0 Bft) - - - - - - -0,6 °C 2,5 °C 0,0 km/h (0 Bft)
_ Max-Zeit 15:41 06:52 23:12 23:59 15:53 - - 16:07 15:01 13:21 12:54 12:58 16:36 15:53
Maximum _ 15,9 °C 89 % 1020,7 hPa 0,0 mm 18,1 km/h
N-NO (3 Bft)
- - 1 min 0,406 mm 5,2 UV-I 895 W/m² 8,2 °C 15,8 °C 27,4 km/h
O-NO (4 Bft)
Durchschnitt _ 9,6 °C 67 % 1019,5 hPa #0,0 mm 3,9 km/h (1 Bft) O-NO - #3:35 h #3,099 mm 2,7 UV-I 209 W/m² 3,3 °C 9,5 °C 6,4 km/h (2 Bft)